[[{"header":{"parameterUnit":"m.s-1","parameterCategory":1,"la1":30.6,"la2":29.2853,"lo1":-89.7004,"lo2":-87.6739,"dy":0.0162,"dx":0.0183,"nx":112,"ny":82,"refTime":"2025-04-24T18:00:00:Z","depth":0,"parameterNumber":2,"parameterNumberName":"U-component_of_WINDS"},"data":[0.0,0.0,0.0,0.0,0.0,0.0,0.0,0.0,0.0,0.0,0.0,0.0,0.0,0.0,0.0,0.0,0.0,0.0,0.0,0.0,0.0,0.0,0.0,0.0,0.0,0.0,0.0,0.0,0.0,0.0,0.0,0.0,0.0,0.0,0.0,0.0,0.0,0.0,0.0,0.0,0.0,0.0,0.0,0.0,0.0,0.0,0.0,0.0,0.0,0.0,0.0,0.0,0.0,0.0,0.0,0.0,0.0,0.0,0.0,0.0,0.0,0.0,0.0,0.0,0.0,0.0,0.0,0.0,0.0,0.0,0.0,0.0,0.0,0.0,0.0,0.0,0.0,0.0,0.0,0.0,0.0,0.0,0.0,0.0,0.0,0.0,0.0,0.0,0.0,0.0,1.4204,1.5359,1.7347,1.8715,1.8984,1.9002,1.7695,1.4654,0.0,0.0,0.0,0.0,0.0,0.0,0.0,0.0,0.0,0.0,0.0,0.0,0.0,0.0,0.0,0.0,0.0,0.0,0.0,0.0,0.0,0.0,0.0,0.0,0.0,0.0,0.0,0.0,0.0,0.0,0.0,0.0,0.0,0.0,0.0,0.0,0.0,0.0,0.0,0.0,0.0,0.0,0.0,0.0,0.0,0.0,0.0,0.0,0.0,0.0,0.0,0.0,0.0,0.0,0.0,0.0,0.0,0.0,0.0,0.0,0.0,0.0,0.0,0.0,0.0,0.0,0.0,0.0,0.0,0.0,0.0,0.0,0.0,0.0,0.0,0.0,0.0,0.0,0.0,0.0,0.0,0.0,0.0,0.0,0.0,0.0,0.0,0.0,0.0,0.0,0.0,0.0,0.0,0.0,0.0,0.0,0.0,0.0,0.0,0.0,0.0,0.0,0.0,0.0,1.4706,1.7717,1.8373,1.8715,1.8984,1.9002,1.7645,1.4538,0.0,0.0,0.0,0.0,0.0,0.0,0.0,0.0,0.0,0.0,0.0,0.0,0.0,0.0,0.0,0.0,0.0,0.0,0.0,0.0,0.0,0.0,0.0,0.0,0.0,0.0,0.0,0.0,0.0,0.0,0.0,0.0,0.0,0.0,0.0,0.0,0.0,0.0,0.0,0.0,0.0,0.0,0.0,0.0,0.0,0.0,0.0,0.0,0.0,0.0,0.0,0.0,0.0,0.0,0.0,0.0,0.0,0.0,0.0,0.0,0.0,0.0,0.0,0.0,0.0,0.0,0.0,0.0,0.0,0.0,0.0,0.0,0.0,0.0,0.0,0.0,0.0,0.0,0.0,0.0,0.0,0.0,0.0,0.0,0.0,0.0,0.0,0.0,0.0,0.0,0.0,0.0,0.0,0.0,0.0,0.0,0.0,0.0,0.0,0.0,0.0,0.0,0.0,1.4161,1.5699,1.8657,1.8981,1.9033,1.915,1.9166,1.7933,1.5085,1.4587,0.0,0.0,0.0,0.0,0.0,0.0,0.0,0.0,0.0,0.0,0.0,0.0,0.0,0.0,0.0,0.0,0.0,0.0,0.0,0.0,0.0,0.0,0.0,0.0,0.0,0.0,0.0,0.0,0.0,0.0,0.0,0.0,0.0,0.0,0.0,0.0,0.0,0.0,0.0,0.0,0.0,0.0,0.0,0.0,0.0,0.0,0.0,0.0,0.0,0.0,0.0,0.0,0.0,0.0,0.0,0.0,0.0,0.0,0.0,0.0,0.0,0.0,0.0,0.0,0.0,0.0,0.0,0.0,0.0,0.0,0.0,0.0,0.0,0.0,0.0,0.0,0.0,0.0,0.0,0.0,0.0,0.0,0.0,0.0,0.0,0.0,0.0,0.0,0.0,0.0,0.0,0.0,0.0,0.0,0.0,0.0,0.0,0.0,0.0,0.0,0.0,0.0,1.5992,1.7132,1.9087,1.9305,1.9305,1.9305,1.9305,1.8185,1.5578,1.4692,0.0,0.0,0.0,0.0,0.0,0.0,0.0,0.0,0.0,0.0,0.0,0.0,0.0,0.0,0.0,0.0,0.0,0.0,0.0,0.0,0.0,0.0,0.0,0.0,0.0,0.0,0.0,0.0,0.0,0.0,0.0,0.0,0.0,0.0,0.0,0.0,0.0,0.0,0.0,0.0,0.0,0.0,0.0,0.0,0.0,0.0,0.0,0.0,0.0,0.0,0.0,0.0,0.0,0.0,0.0,0.0,0.0,0.0,0.0,0.0,0.0,0.0,0.0,0.0,0.0,0.0,0.0,0.0,0.0,0.0,0.0,0.0,0.0,0.0,0.0,0.0,0.0,0.0,0.0,0.0,0.0,0.0,0.0,0.0,0.0,0.0,0.0,0.0,0.0,0.0,0.0,0.0,0.0,0.0,0.0,0.0,0.0,0.0,0.0,0.0,0.0,0.0,1.7442,1.9106,1.9271,1.9305,1.9305,1.9305,1.9305,1.8185,1.5578,1.4594,0.0,0.0,0.0,0.0,0.0,0.0,0.0,0.0,0.0,0.0,0.0,0.0,0.0,0.0,0.0,0.0,0.0,0.0,0.0,0.0,0.0,0.0,0.0,0.0,0.0,0.0,0.0,0.0,0.0,0.0,0.0,0.0,0.0,0.0,0.0,0.0,0.0,0.0,0.0,0.0,0.0,0.0,0.0,0.0,0.0,0.0,0.0,0.0,0.0,0.0,0.0,0.0,0.0,0.0,0.0,0.0,0.0,0.0,0.0,0.0,0.0,0.0,0.0,0.0,0.0,0.0,0.0,0.0,0.0,0.0,0.0,0.0,0.0,0.0,0.0,0.0,0.0,0.0,0.0,0.0,0.0,0.0,0.0,0.0,0.0,0.0,0.0,0.0,0.0,0.0,0.0,0.0,0.0,0.0,0.0,0.0,0.0,0.0,0.0,0.0,0.0,0.0,1.6447,1.7914,0.0,1.9101,1.9166,1.9289,1.9305,1.8359,1.6153,0.0,0.0,0.0,0.0,0.0,0.0,0.0,0.0,0.0,0.0,0.0,0.0,0.0,0.0,0.0,0.0,0.0,0.0,0.0,0.0,0.0,0.0,0.0,0.0,0.0,0.0,0.0,0.0,0.0,0.0,0.0,0.0,0.0,0.0,0.0,0.0,0.0,0.0,0.0,0.0,0.0,0.0,0.0,0.0,0.0,0.0,0.0,0.0,0.0,0.0,0.0,0.0,0.0,0.0,0.0,0.0,0.0,0.0,0.0,0.0,0.0,0.0,0.0,0.0,0.0,0.0,0.0,0.0,0.0,0.0,0.0,0.0,0.0,0.0,0.0,0.0,0.0,0.0,0.0,0.0,0.0,0.0,0.0,0.0,0.0,0.0,0.0,0.0,0.0,0.0,0.0,0.0,0.0,0.0,0.0,0.0,0.0,0.0,0.0,0.0,0.0,0.0,1.4684,1.62,1.7541,0.0,1.8949,1.9052,1.9198,1.9259,1.8377,1.621,0.0,0.0,0.0,0.0,0.0,0.0,0.0,0.0,0.0,0.0,0.0,0.0,0.0,0.0,0.0,0.0,0.0,0.0,0.0,0.0,0.0,0.0,0.0,0.0,0.0,0.0,0.0,0.0,0.0,0.0,0.0,0.0,0.0,0.0,0.0,0.0,0.0,0.0,0.0,0.0,0.0,0.0,0.0,0.0,0.0,0.0,0.0,0.0,0.0,0.0,0.0,0.0,0.0,0.0,0.0,0.0,0.0,0.0,0.0,0.0,0.0,0.0,0.0,0.0,0.0,0.0,0.0,0.0,0.0,0.0,0.0,0.0,0.0,0.0,0.0,0.0,0.0,0.0,0.0,0.0,0.0,0.0,0.0,0.0,0.0,0.0,0.0,0.0,0.0,0.0,0.0,0.0,0.0,0.0,0.0,0.0,0.0,0.0,0.0,0.0,0.0,0.0,1.479,1.7082,1.8585,1.8585,1.8825,1.8984,1.9002,1.9182,1.8185,0.0,0.0,0.0,0.0,0.0,0.0,0.0,0.0,0.0,0.0,0.0,0.0,0.0,0.0,0.0,0.0,0.0,0.0,0.0,0.0,0.0,0.0,0.0,0.0,0.0,0.0,0.0,0.0,0.0,0.0,0.0,0.0,0.0,0.0,0.0,0.0,0.0,0.0,0.0,0.0,0.0,0.0,0.0,0.0,0.0,0.0,0.0,0.0,0.0,0.0,0.0,0.0,0.0,0.0,0.0,0.0,0.0,0.0,0.0,0.0,0.0,0.0,0.0,0.0,0.0,0.0,0.0,0.0,0.0,0.0,0.0,0.0,0.0,0.0,0.0,0.0,0.0,0.0,0.0,0.0,0.0,0.0,0.0,0.0,0.0,0.0,0.0,0.0,0.0,0.0,0.0,0.0,0.0,0.0,0.0,0.0,0.0,0.0,0.0,0.0,0.0,0.0,0.0,1.4822,1.7082,1.8585,1.8585,1.8508,1.8508,1.8715,1.8771,1.7736,1.521,0.0,0.0,0.0,0.0,0.0,0.0,0.0,0.0,0.0,0.0,0.0,0.0,0.0,0.0,0.0,0.0,0.0,0.0,0.0,0.0,0.0,0.0,0.0,0.0,0.0,0.0,0.0,0.0,0.0,0.0,0.0,0.0,0.0,0.0,0.0,0.0,0.0,0.0,0.0,0.0,0.0,0.0,0.0,0.0,0.0,0.0,0.0,0.0,0.0,0.0,0.0,0.0,0.0,0.0,0.0,0.0,0.0,0.0,0.0,0.0,0.0,0.0,0.0,0.0,0.0,0.0,0.0,0.0,0.0,0.0,0.0,0.0,0.0,0.0,0.0,0.0,0.0,0.0,0.0,0.0,0.0,0.0,0.0,0.0,0.0,0.0,0.0,0.0,0.0,0.0,0.0,0.0,0.0,0.0,0.0,0.0,0.0,0.0,0.0,0.0,0.0,0.0,1.4276,1.6726,1.8391,1.829,1.8128,1.8111,1.841,1.8432,1.7536,1.5538,0.0,0.0,0.0,0.0,0.0,0.0,0.0,0.0,0.0,0.0,0.0,0.0,0.0,0.0,0.0,0.0,0.0,0.0,0.0,0.0,0.0,0.0,0.0,0.0,0.0,0.0,0.0,0.0,0.0,0.0,0.0,0.0,0.0,0.0,0.0,0.0,0.0,0.0,0.0,0.0,0.0,0.0,0.0,0.0,0.0,0.0,0.0,0.0,0.0,0.0,0.0,0.0,0.0,0.0,0.0,0.0,0.0,0.0,0.0,0.0,0.0,0.0,0.0,0.0,0.0,0.0,0.0,0.0,0.0,0.0,0.0,0.0,0.0,0.0,0.0,0.0,0.0,0.0,0.0,0.0,0.0,0.0,0.0,0.0,0.0,0.0,0.0,0.0,0.0,0.0,0.0,0.0,0.0,0.0,0.0,0.0,0.0,0.0,0.0,0.0,0.0,0.0,1.3548,1.6239,1.8061,1.7816,1.7698,1.7732,1.8044,1.8056,1.748,1.6186,0.0,0.0,0.0,0.0,0.0,0.0,0.0,0.0,0.0,0.0,0.0,0.0,0.0,0.0,0.0,0.0,0.0,0.0,0.0,0.0,0.0,0.0,0.0,0.0,0.0,0.0,0.0,0.0,0.0,0.0,0.0,0.0,0.0,0.0,0.0,0.0,0.0,0.0,0.0,0.0,0.0,0.0,0.0,0.0,0.0,0.0,0.0,0.0,0.0,0.0,0.0,0.0,0.0,0.0,0.0,0.0,0.0,0.0,0.0,0.0,1.2547,0.0,0.0,0.0,0.0,0.0,0.0,0.0,0.0,0.0,0.0,0.0,0.0,0.0,0.0,0.0,0.0,0.0,0.0,0.0,0.0,0.0,0.0,0.0,0.0,0.0,0.0,0.0,0.0,0.0,0.0,0.0,0.0,0.0,0.0,0.0,0.0,0.0,0.0,0.0,0.0,0.0,1.4516,1.6475,1.7776,1.7749,1.7287,1.701,1.7101,1.7311,1.6859,1.5428,1.4844,0.0,0.0,0.0,0.0,0.0,0.0,0.0,0.0,0.0,0.0,0.0,0.0,0.0,0.0,0.0,0.0,0.0,0.0,0.0,0.0,0.0,0.0,0.0,0.0,0.0,0.0,0.0,0.0,0.0,0.0,0.0,0.0,0.0,0.0,0.0,0.0,0.0,0.0,0.0,0.0,0.0,0.0,0.0,0.0,0.0,0.0,0.0,0.0,0.0,0.0,0.0,0.0,0.0,0.0,0.0,0.0,0.0,0.0,0.0,1.3506,1.3035,0.0,0.0,0.0,0.0,0.0,0.0,0.0,0.0,0.0,0.0,0.0,0.0,0.0,0.0,0.0,0.0,0.0,0.0,0.0,0.0,0.0,0.0,0.0,0.0,0.0,0.0,0.0,0.0,0.0,0.0,0.0,0.0,0.0,0.0,0.0,0.0,0.0,0.0,0.0,0.0,1.4398,1.636,1.758,1.7294,1.6834,1.6607,1.6789,1.6799,1.6629,1.6203,1.5358,0.0,0.0,0.0,0.0,0.0,0.0,0.0,0.0,0.0,0.0,0.0,0.0,0.0,0.0,0.0,0.0,0.0,0.0,0.0,0.0,0.0,0.0,0.0,0.0,0.0,0.0,0.0,0.0,0.0,0.0,0.0,0.0,0.0,0.0,0.0,0.0,0.0,0.0,0.0,0.0,0.0,0.0,0.0,0.0,0.0,0.0,0.0,0.0,0.0,0.0,0.0,0.0,0.0,1.3193,1.3139,1.3623,1.2691,1.3246,1.4954,1.4448,1.4792,1.5552,1.3479,0.0,0.0,0.0,0.0,0.0,0.0,0.0,0.0,0.0,0.0,0.0,0.0,0.0,0.0,0.0,0.0,0.0,0.0,0.0,0.0,0.0,0.0,1.7035,1.7865,1.8624,1.8567,1.6462,0.0,0.0,0.0,0.0,0.0,0.0,0.0,0.0,0.0,0.0,0.0,1.4331,1.6188,1.7271,1.6763,1.6394,1.6328,1.6607,1.6421,1.6554,1.7085,1.5971,1.5371,0.0,0.0,0.0,0.0,0.0,0.0,0.0,0.0,0.0,0.0,0.0,0.0,0.0,0.0,0.0,0.0,0.0,0.0,0.0,0.0,0.0,0.0,0.0,0.0,0.0,0.0,0.0,0.0,0.0,0.0,0.0,0.0,1.0795,1.0707,0.0,0.0,0.0,0.0,0.0,0.0,0.0,0.0,0.0,0.0,0.0,0.0,0.0,1.331,1.3615,1.4466,1.4914,1.4916,1.5775,1.6219,1.6288,1.6134,1.6246,1.6518,1.6422,0.0,1.5649,1.4973,0.0,0.0,0.0,0.0,0.0,0.0,0.0,0.0,0.0,0.0,0.0,0.0,0.0,0.0,0.0,0.0,0.0,0.0,0.0,0.0,0.0,0.0,1.936,1.9495,1.9601,1.9601,1.9268,1.7549,1.5752,1.476,1.4206,1.3576,0.0,0.0,0.0,0.0,0.0,0.0,1.5759,1.6255,1.6459,1.6367,1.6067,1.587,1.5926,1.6163,1.634,1.6421,1.6185,1.5792,1.5192,1.457,0.0,0.0,0.0,0.0,0.0,0.0,0.0,0.0,0.0,0.0,0.0,0.0,0.0,0.0,0.0,0.0,0.0,0.0,0.0,0.0,0.0,0.0,0.0,0.0,0.0,0.0,0.0,0.0,0.0,1.0151,1.158,1.158,1.1879,1.1759,0.0,0.0,0.0,0.0,0.0,0.0,0.0,0.0,0.0,1.445,1.428,1.4569,1.5381,1.5852,1.6066,1.6072,1.6376,1.6531,1.6495,1.6047,1.5996,1.6219,1.597,1.5826,1.5728,1.5367,1.469,1.3791,0.0,0.0,0.0,0.0,1.2929,1.2974,1.4251,1.4684,1.457,1.3827,0.0,0.0,0.0,0.0,0.0,0.0,0.0,1.5822,1.7272,1.8228,1.8964,1.9642,1.9681,1.9582,1.9582,1.869,1.751,1.6228,1.5282,1.4248,1.2822,1.269,0.0,0.0,0.0,1.4718,1.5519,1.6025,1.6219,1.6039,1.5885,1.5799,1.5799,1.5926,1.608,1.6301,1.6271,1.6281,1.6334,1.5371,1.4312,0.0,0.0,0.0,0.0,0.0,0.0,0.0,0.0,0.0,0.0,0.0,0.0,0.0,0.0,0.0,0.0,0.0,0.0,0.0,0.0,0.0,0.0,0.0,0.0,0.0,0.0,0.0,0.0,1.1091,1.2562,1.2604,1.3179,1.3022,0.0,0.0,0.0,0.0,0.0,0.0,1.3904,1.366,1.4084,1.534,1.5014,1.5411,1.6636,1.6539,1.6481,1.6496,1.6144,1.5941,1.5818,1.5219,1.5134,1.5459,1.5098,1.5147,1.5463,1.5525,1.5237,1.4692,1.4015,1.3374,1.2901,1.375,1.4031,1.416,1.5503,1.5966,1.5854,1.5122,1.4718,1.431,1.3343,0.0,0.0,0.0,0.0,1.5995,1.7609,1.8034,1.8273,1.9254,1.929,1.9084,1.9184,1.8919,1.8393,1.7483,1.654,1.5409,1.3861,1.3678,0.0,1.3756,1.4319,1.4938,1.5423,1.5883,1.6095,1.5827,1.5799,1.5799,1.5799,1.5799,1.5926,1.6274,1.6382,1.6696,1.7272,1.6326,1.5725,1.5595,0.0,0.0,0.0,0.0,0.0,0.0,0.0,0.0,0.0,0.0,0.0,0.0,0.0,0.0,0.0,0.0,0.0,0.0,0.0,0.0,0.0,0.0,0.0,0.0,0.0,0.0,0.0,0.0,0.0,1.3783,1.4594,0.0,0.0,0.0,0.0,1.2662,1.3252,1.393,1.4691,1.4845,1.5294,1.6107,1.5692,1.5691,1.6228,1.5866,1.5664,1.565,1.5313,1.4954,1.4606,1.4552,1.4531,1.4572,1.4525,1.4533,1.4662,1.5773,1.5826,1.5207,1.5459,1.498,1.4225,1.5214,1.5445,1.5355,1.6384,1.6725,1.6614,1.5886,1.4986,1.434,1.4978,1.4683,0.0,0.0,1.6056,1.6785,1.7827,1.8078,1.8193,1.8569,1.8419,1.8248,1.8569,1.7891,1.7484,1.85,1.8338,1.7795,1.6999,0.0,1.6032,1.6032,1.5527,1.5438,1.6146,1.6009,1.5827,1.5799,1.5799,1.5799,1.5799,1.5799,1.5926,1.6274,1.6607,1.6926,1.7296,1.7528,1.7011,1.5629,1.5089,0.0,0.0,0.0,0.0,0.0,0.0,0.0,0.0,0.0,0.0,0.0,0.0,0.0,0.0,0.0,0.0,0.0,0.0,0.0,0.0,0.0,0.0,0.0,0.0,0.0,0.0,0.0,0.0,1.4178,1.5243,0.0,1.3618,1.4353,1.4647,1.3972,1.4764,1.5392,1.5685,1.5264,1.5135,1.5437,1.5052,1.4936,1.5099,1.4976,1.4887,1.4874,1.4754,1.4633,1.4488,1.4232,1.4277,1.4499,1.4245,1.4249,1.4538,1.4961,1.5149,1.5168,1.5284,1.528,1.5289,1.5628,1.5701,1.5664,1.6031,1.6163,1.6117,1.586,1.513,1.4501,1.4993,1.5143,1.5182,1.5541,1.6287,1.7076,1.744,1.7513,1.758,1.7902,1.7735,1.7535,1.7664,1.7434,1.7227,1.7479,1.7188,1.6753,1.627,1.6233,1.6095,1.5627,1.5571,1.5682,1.5953,1.5885,1.5799,1.5799,1.5799,1.5799,1.5799,1.5799,1.5856,1.5983,1.608,1.6313,1.6644,1.6977,1.7018,1.6714,1.6612,1.5358,0.0,0.0,0.0,0.0,0.0,0.0,0.0,0.0,0.0,0.0,0.0,0.0,0.0,0.0,0.0,0.0,0.0,0.0,0.0,0.0,0.0,0.0,0.0,0.0,0.0,0.0,1.5274,1.4417,1.5761,1.6011,1.4158,1.4994,1.5278,1.4416,1.4833,1.5107,1.5125,1.4628,1.437,1.437,1.4156,1.4224,1.4569,1.4569,1.4647,1.4826,1.4852,1.4667,1.4365,1.4108,1.4119,1.4345,1.4096,1.4243,1.4627,1.444,1.47,1.5198,1.4983,1.5104,1.5359,1.5359,1.5359,1.5359,1.5359,1.546,1.565,1.565,1.5361,1.5076,1.537,1.5584,1.5792,1.5991,1.6657,1.7348,1.7497,1.7267,1.7085,1.7363,1.6919,1.6537,1.6797,1.6847,1.683,1.667,1.6522,1.6329,1.6111,1.6203,1.6068,1.5345,1.5543,1.5724,1.5499,1.5664,1.5799,1.5799,1.5799,1.5799,1.5799,1.5674,1.5684,1.594,1.5854,1.5972,1.6448,1.6447,1.6621,1.691,1.6991,1.6018,1.3961,0.0,0.0,0.0,0.0,0.0,0.0,0.0,0.0,0.0,0.0,0.0,0.0,0.0,0.0,0.0,0.0,0.0,0.0,0.0,0.0,0.0,0.0,0.0,1.416,1.4558,1.487,1.4669,1.6119,1.6433,1.4656,1.4703,1.4541,1.3828,1.3267,1.2973,1.2973,1.3035,1.306,1.3048,1.3148,1.3654,1.4628,1.4663,1.4955,1.5447,1.5469,1.5006,1.4113,1.4113,1.4125,1.411,1.411,1.4412,1.4865,1.4337,1.4672,1.5404,1.474,1.4515,1.4529,1.4515,1.4501,1.4501,1.4515,1.485,1.5298,1.5325,1.5653,1.6046,1.6082,1.6082,1.619,1.6732,1.7132,1.7545,1.8006,1.7364,1.6637,1.6965,1.601,1.5227,1.6004,1.6169,1.6169,1.6246,1.6543,1.6763,1.6763,1.6501,1.6068,1.5418,1.5601,0.0,1.4902,1.5409,1.5784,1.5769,1.5769,1.5769,1.5769,1.5427,1.5505,1.6254,1.5934,1.6046,1.6757,1.6192,1.5989,1.6275,1.6282,1.5723,1.4563,0.0,0.0,0.0,0.0,0.0,0.0,0.0,0.0,0.0,0.0,0.0,0.0,0.0,0.0,0.0,0.0,0.0,0.0,0.0,0.0,0.0,1.4184,1.4822,1.4798,1.5648,1.6051,1.5396,1.5445,1.511,1.4094,1.372,1.3448,1.3221,1.2817,1.2565,1.2565,1.2613,1.2495,1.2189,1.2847,1.3155,1.3031,1.3861,1.4301,1.4432,1.485,1.4937,1.4663,1.4663,1.4676,1.4689,1.4689,1.4765,1.4903,1.4739,1.4841,1.5018,1.4317,1.4471,1.5029,1.4621,1.4501,1.457,1.4933,1.4992,1.4967,1.5665,1.5598,1.5272,1.5583,1.5657,1.5694,1.5841,1.5847,1.5959,1.6522,1.6124,1.5594,1.5708,1.5424,1.5224,1.5441,1.5168,1.5012,1.5499,1.5561,1.5681,1.6024,1.6011,1.5866,1.5684,1.5736,1.5739,1.5559,1.5694,1.5619,1.5139,1.5052,1.5052,1.5052,1.4968,1.5323,1.6227,1.6196,1.6339,1.6789,1.6857,1.7123,1.7629,1.6708,1.6154,0.0,0.0,0.0,0.0,0.0,0.0,0.0,0.0,0.0,0.0,0.0,0.0,0.0,0.0,0.0,0.0,0.0,0.0,0.0,0.0,0.0,0.0,1.4826,1.5034,1.5009,1.5465,1.5577,1.493,1.4418,1.387,1.3285,1.2749,1.2377,1.2177,1.1757,1.1535,1.1535,1.1734,1.1748,1.1472,1.2401,1.2984,1.3094,1.3999,1.4636,1.5042,1.5396,1.5446,1.5255,1.5255,1.5255,1.5255,1.5255,1.5341,1.5542,1.5316,1.5354,1.5495,0.0,0.0,0.0,0.0,1.465,1.4703,1.4999,1.5144,1.5182,1.5441,1.558,1.5514,1.5262,1.533,1.5532,1.552,1.5429,1.5472,1.6049,1.5348,1.4533,1.4533,1.4189,1.3915,1.4111,1.415,1.4317,1.482,1.5017,0.0,1.5448,1.5668,1.5709,1.5424,1.5619,1.5709,1.5424,1.5634,1.5649,1.5274,1.5229,1.5284,1.5406,1.5266,0.0,0.0,0.0,1.6292,1.6392,1.6685,0.0,0.0,0.0,0.0,0.0,0.0,0.0,0.0,1.546,1.5442,0.0,0.0,0.0,0.0,0.0,0.0,0.0,0.0,0.0,0.0,0.0,0.0,0.0,0.0,0.0,0.0,1.5111,1.5184,1.4607,1.42,1.3918,1.3664,1.3179,1.2655,1.2188,1.1732,1.1265,1.0781,1.0341,1.0118,1.0118,0.0,0.0,0.0,0.0,1.2939,1.3831,1.4526,1.5311,1.6194,1.638,1.6216,1.5699,1.574,1.5781,1.5781,1.5781,1.607,1.6471,1.5994,1.607,1.6409,1.5379,1.4966,1.4877,1.4826,1.4838,1.4877,1.4901,0.0,0.0,1.5133,1.5642,1.6194,1.5107,1.5152,1.5487,1.544,1.5372,1.5404,1.5868,1.4771,1.3521,1.3521,1.2741,1.2103,1.2711,1.3179,1.3692,1.4251,1.4626,1.4892,1.4937,1.5418,1.5604,1.4992,1.5424,1.5589,1.5004,1.5439,1.5797,1.5751,1.5736,0.0,1.6231,1.5912,1.6022,1.6818,1.6562,1.6272,1.6046,1.6249,1.652,1.6812,1.709,1.7652,1.8547,1.8943,1.9154,1.9112,1.6483,1.6086,0.0,0.0,0.0,0.0,0.0,0.0,0.0,0.0,0.0,0.0,0.0,0.0,0.0,0.0,0.0,1.2839,1.3487,1.3519,1.2396,1.18,1.1775,1.2577,1.2248,1.16,1.0692,1.0215,0.9688,0.9191,0.9079,0.8999,0.8999,0.9864,1.0176,0.9806,1.1503,1.2331,1.2086,1.391,1.4653,1.4318,1.5788,0.0,1.562,1.612,1.6358,1.6358,1.6358,1.6421,1.6509,1.6409,1.6421,1.6459,1.5793,1.5266,1.4838,1.4356,1.4474,1.4888,1.4841,1.5196,1.5768,1.6081,1.5978,1.5732,1.5499,1.5186,0.0,1.4869,1.4492,1.4157,1.4185,1.36,1.2939,1.2939,1.2339,1.2101,1.3315,1.2617,1.2225,1.3785,1.3774,1.3624,1.4071,1.5074,1.5754,1.5634,1.5724,1.5754,1.5619,1.5724,1.5702,1.5437,1.5402,1.5541,1.5862,1.5831,1.6177,1.715,1.7369,1.7479,1.7417,1.7462,1.7524,1.7596,1.7838,1.8072,1.827,1.8567,1.8843,1.9033,1.8777,1.8826,0.0,0.0,0.0,0.0,0.0,0.0,0.0,0.0,0.0,0.0,0.0,1.1776,1.2343,0.0,1.2058,1.2477,1.2545,1.2141,1.0972,1.0411,1.0386,1.1196,1.0881,1.0522,1.0283,0.9785,0.9439,0.9297,0.9065,0.9023,0.9273,0.998,1.033,1.0183,1.1603,1.2352,1.2345,1.3673,1.4305,1.4283,1.5152,1.5421,1.5141,1.5466,1.5744,1.6051,1.6051,1.6238,1.6522,1.6522,1.6522,1.6497,1.6208,1.5944,1.5652,1.5007,1.4995,1.521,1.4876,1.497,1.5223,1.5528,1.5599,1.5499,1.4858,1.4687,1.456,1.3978,1.3341,1.2783,1.2764,1.2024,1.129,1.129,1.1103,1.1151,1.1844,1.1743,1.1778,1.266,1.296,1.3175,1.3437,1.441,1.5225,1.5418,1.5639,1.5799,1.5799,1.5799,1.5805,1.5794,1.579,1.5931,1.6271,1.6451,1.6782,1.7263,1.7595,1.7726,1.7549,1.7704,1.7635,1.7313,1.7755,1.791,1.7743,1.8191,1.8469,1.8604,1.8947,1.9225,0.0,0.0,0.0,0.0,0.0,0.0,0.0,0.0,1.187,1.2255,1.1861,1.1613,1.2014,1.1676,1.1372,1.1537,1.1259,1.0613,0.9408,0.9068,0.909,0.9533,0.9451,0.9478,0.9804,0.9439,0.9281,0.9502,0.917,0.9203,0.9759,1.0356,1.0726,1.0878,1.179,1.249,1.2896,1.3573,1.4048,1.434,1.4617,1.4652,1.4514,1.4663,1.4971,1.541,1.5543,1.5864,1.6324,1.6466,1.6423,1.6337,1.6337,1.6238,1.6107,1.5599,1.541,1.532,1.4744,1.4606,1.4698,1.4698,1.4971,1.5084,1.4086,1.4061,1.4165,1.3152,1.2344,1.1765,1.1665,1.072,0.9799,0.9885,0.9964,1.0076,1.0384,1.0948,1.1429,1.1631,1.2304,1.2867,1.2982,1.3769,1.4564,1.5043,1.5418,1.5712,1.5799,1.5799,1.5926,1.6274,1.6301,1.6436,1.6763,1.7052,1.7199,1.7199,1.7455,1.7479,1.7224,1.7455,1.7384,1.6917,1.7432,1.7595,1.7392,1.7888,1.8146,1.8208,1.843,1.8753,1.0685,1.1996,1.2437,1.3504,1.3217,1.3267,0.0,0.0,1.3297,1.4328,1.2447,1.0566,1.0317,0.9562,0.8663,0.7716,0.8319,0.8391,0.6754,0.6961,0.7273,0.7356,0.8203,0.8643,0.8201,0.8118,0.8093,0.8131,0.8407,0.8779,0.9332,1.0259,1.0775,1.0818,1.1734,1.2224,1.2309,1.332,1.3548,1.3113,1.4201,1.4422,1.3909,1.4468,1.4744,1.4835,1.5365,1.5632,1.5732,1.6281,1.6194,1.572,1.572,1.5365,1.488,1.4846,1.4789,1.4698,1.4097,1.4236,1.4698,1.4698,1.4376,1.4003,1.3815,1.3467,1.3065,1.2929,1.2344,1.1665,1.1065,1.0364,0.9841,1.0082,0.9743,0.9682,1.1111,1.0727,1.0424,1.151,1.1834,1.209,1.2484,1.3353,1.4214,1.4982,1.5134,1.5329,1.5741,1.5799,1.5926,1.6274,1.6301,1.6436,1.6763,1.6841,1.6866,1.6866,1.6892,1.6892,1.6866,1.6892,1.7018,1.7248,1.732,1.7462,1.7726,1.7811,1.7971,1.8208,1.8229,1.841,1.4055,1.4706,1.3962,1.442,1.4389,1.4368,1.492,1.4134,1.3317,1.3335,1.1641,0.9894,0.8889,0.8216,0.7524,0.0,0.7033,0.7103,0.6081,0.6062,0.6113,0.6113,0.6809,0.7558,0.8316,0.8077,0.7953,0.8139,0.8281,0.8612,0.916,1.0337,1.1122,1.1255,1.2144,1.2607,1.2607,1.3052,1.3152,1.2929,1.343,1.3515,1.3286,1.3515,1.3836,1.4236,1.5186,1.5588,1.5632,1.6238,1.6139,1.5588,1.5588,1.5005,1.419,1.419,1.419,1.4097,1.3515,1.343,1.3705,1.4061,1.4003,1.3815,1.3815,1.3637,1.3324,1.3017,1.2344,1.1765,1.1458,1.0714,1.0081,1.0181,0.9916,0.9796,1.0474,1.0377,1.0368,1.1147,1.1572,1.1957,1.2437,1.3069,1.3769,1.4627,1.4937,1.5255,1.5741,1.5799,1.5926,1.6274,1.6301,1.6355,1.6501,1.6501,1.6501,1.6501,1.6686,1.6712,1.6501,1.6686,1.6686,1.6432,1.6986,1.7272,1.7216,1.7612,1.7878,1.7971,1.7971,1.8035,1.5942,1.6108,1.4985,1.4639,1.4811,1.4779,1.3793,1.3222,1.2698,1.1978,1.0392,0.8785,0.7554,0.7009,0.6484,0.5738,0.6029,0.609,0.538,0.5311,0.5407,0.5677,0.6144,0.6972,0.8349,0.7987,0.7799,0.8164,0.8518,0.8964,0.9535,1.0883,1.1762,1.1934,1.2549,1.2881,1.2881,1.2881,1.2881,1.2881,1.2881,1.2881,1.2881,1.2881,1.3152,1.36,1.4641,1.5084,1.5129,1.5732,1.5644,1.5084,1.5084,1.4584,1.3815,1.3815,1.3684,1.3505,1.3065,1.2881,1.2968,1.342,1.3552,1.3552,1.3552,1.3552,1.3457,1.3017,1.2344,1.1814,1.1814,1.1118,1.0384,1.0328,1.0193,1.0079,1.0031,1.017,1.0428,1.0905,1.1431,1.1957,1.2437,1.2908,1.3459,1.4214,1.469,1.5134,1.5741,1.5799,1.587,1.6136,1.6163,1.6163,1.6163,1.6246,1.6301,1.6301,1.6607,1.6686,1.6448,1.6581,1.6528,1.6203,1.685,1.7126,1.7093,1.7566,1.7811,1.7811,1.7811,1.7811,1.4648,1.4704,1.4519,1.3655,1.3951,1.4192,1.3249,1.2365,1.1578,1.0983,0.881,0.6838,0.6235,0.5837,0.519,0.4066,0.4901,0.5357,0.4214,0.4459,0.5125,0.6152,0.6681,0.721,0.0,0.7363,0.728,0.7885,0.9117,1.0131,1.0731,1.2091,1.2852,1.2842,1.2871,1.2881,1.2881,1.2881,1.2881,1.2881,1.2881,1.2881,1.2881,1.2881,1.2929,1.2968,1.36,1.3862,1.3909,1.4514,1.4376,1.3862,1.3862,1.3815,1.3815,1.3815,1.342,1.2929,1.2929,1.2881,1.2881,1.2929,1.2929,1.2929,1.2929,1.2929,1.2929,1.2929,1.2344,1.1814,1.1814,1.1308,1.0772,1.0621,1.057,1.0522,1.032,1.0293,1.0428,1.0905,1.1431,1.1957,1.2437,1.2908,1.3357,1.3835,1.4246,1.4814,1.5697,1.5799,1.5799,1.5799,1.5827,1.5827,1.5827,1.6108,1.6301,1.6301,1.6607,1.6789,1.6789,1.6474,1.6617,1.7248,1.6952,1.7142,1.7766,1.7789,1.7811,1.7811,1.7811,1.7811,1.477,1.5686,1.6156,1.5924,1.5668,1.5289,1.4675,1.3531,1.2485,1.2313,1.0026,0.7573,0.586,0.4822,0.4183,0.3986,0.5009,0.571,0.5316,0.5165,0.5575,0.6867,0.6728,0.0,0.0,0.0,0.0,0.7912,0.8981,0.9858,1.0288,1.1414,1.2139,1.2441,1.2725,1.2881,1.2881,1.2881,1.2881,1.2881,1.2881,1.2881,1.2881,1.2881,1.2881,1.292,1.3552,1.3815,1.3862,1.4468,1.456,1.4376,1.4376,1.4376,1.4376,1.4376,1.4294,1.4071,1.4071,1.4071,1.4025,1.3647,1.3515,1.342,1.3017,1.2559,1.2295,1.2774,1.2344,1.1922,1.2393,1.2147,1.1658,1.1334,1.1027,1.0717,1.0361,1.0283,1.0544,1.1367,1.1664,1.2066,1.2826,1.3094,1.3357,1.3835,1.4246,1.469,1.5255,1.5359,1.5359,1.5359,1.561,1.5799,1.5799,1.5898,1.5983,1.5983,1.6301,1.6474,1.6474,1.6581,1.6738,1.6952,1.7076,1.7248,1.7479,1.7681,1.7811,1.7811,1.7811,1.7811,1.6064,1.7,1.7126,1.7177,1.6871,1.6139,1.4397,1.1994,1.0194,1.0188,0.8722,0.6855,0.5004,0.4046,0.3478,0.3253,0.462,0.5859,0.6352,0.6186,0.635,0.717,0.7228,0.7661,0.0,0.0,0.0,0.8688,0.9809,1.0498,1.0549,1.1713,1.2423,1.2451,1.2734,1.2881,1.2881,1.2881,1.2881,1.2881,1.2881,1.2881,1.2881,1.2881,1.2881,1.2929,1.3334,1.3457,1.3505,1.3884,1.4201,1.4376,1.4376,1.4514,1.4744,1.4926,1.5017,1.5005,1.4789,1.4698,1.4606,1.4003,1.3815,1.3684,1.3055,1.2559,1.2295,1.2774,1.2559,1.2295,1.2774,1.2559,1.2119,1.1714,1.123,1.0832,1.0595,1.0428,1.0582,1.159,1.1811,1.2029,1.2838,1.2943,1.3104,1.3529,1.3583,1.3802,1.4554,1.4769,1.48,1.4648,1.5059,1.5389,1.5551,1.5667,1.5811,1.5983,1.6301,1.6528,1.6644,1.6763,1.6917,1.7167,1.7248,1.7368,1.7479,1.7681,1.7811,1.7811,1.7811,1.7811,1.83,1.8549,1.7572,1.7558,1.7692,1.6773,1.2882,0.8614,0.5385,0.4906,0.4843,0.4536,0.0,0.0,0.3134,0.245,0.3863,0.5608,0.7327,0.7488,0.7368,0.0,0.0,0.0,0.0,0.0,0.0,1.0217,0.0,1.2027,1.1472,1.2879,1.3437,1.2929,1.2871,1.2871,1.2881,1.2881,1.2881,1.2881,1.2881,1.2881,1.2881,1.2881,1.2881,1.2881,1.2881,1.2881,1.2881,1.2881,1.3286,1.3815,1.3815,1.419,1.488,1.541,1.5632,1.5632,1.5005,1.4835,1.4698,1.4097,1.3909,1.3768,1.3152,1.2929,1.2881,1.2881,1.2881,1.2881,1.2929,1.2596,1.2155,1.1792,1.1305,1.0984,1.1037,1.0687,1.0659,1.1664,1.1847,1.1993,1.2437,1.2508,1.2614,1.297,1.2342,1.2283,1.3565,1.4141,1.4251,1.3808,1.4205,1.4658,1.5074,1.5389,1.5777,1.6231,1.6581,1.6926,1.7272,1.6977,1.7142,1.7789,1.7486,1.7502,1.7811,1.7833,1.7816,1.7833,1.7816,1.7856,1.9459,2.0875,2.1442,2.1341,2.0152,1.874,1.7847,1.4164,0.9071,0.265,0.1308,0.1216,0.0,0.0,0.0,0.9093,0.5161,0.0,0.8711,0.891,0.0,0.9013,0.0,0.9562,1.0874,1.1649,0.0,0.0,1.193,1.1855,1.2012,1.1912,1.2158,1.2871,1.2344,1.2344,1.2881,1.2881,1.2881,1.2881,1.2881,1.2881,1.2881,1.2881,1.2881,1.2881,1.2881,1.2881,1.2881,1.2881,1.3525,1.4422,1.3956,1.4732,1.602,1.572,1.6145,1.6828,1.6701,1.6386,1.592,1.532,1.5129,1.4949,1.3873,1.3198,1.2861,1.291,1.2842,1.2948,1.3447,1.3535,1.3368,1.2881,1.2405,1.1929,1.1652,1.1505,1.159,1.221,1.2615,1.2768,1.2544,1.2508,1.2425,1.2187,1.1945,1.2043,1.2659,1.3175,1.3411,1.3297,1.3998,1.4658,1.5074,1.5166,1.5448,1.5898,1.6246,1.6581,1.6917,1.7076,1.7368,1.7789,1.791,1.791,1.7811,1.8208,1.829,1.8103,1.831,1.8391,2.0842,2.2812,2.3475,2.3908,1.4547,0.5645,0.7311,0.9188,0.8599,0.1453,-0.0,-0.0,-0.0,-0.0,0.1585,0.0,0.0,0.0,0.815,0.905,0.951,0.0,0.9806,0.0,1.1256,1.207,1.2617,0.0,1.2439,1.2263,1.25,1.1835,1.1879,1.2871,1.2187,1.2129,1.2881,1.2881,1.2881,1.2881,1.2881,1.2881,1.2881,1.2881,1.2881,1.2881,1.2881,1.2881,1.2881,1.2881,1.3478,1.4283,1.3909,1.4595,1.5744,1.5884,1.6361,1.6954,1.7216,1.7118,1.674,1.6145,1.5796,1.5353,1.419,1.3521,1.3188,1.2958,1.3074,1.3321,1.3721,1.3682,1.3524,1.3245,1.2861,1.2462,1.2456,1.2287,1.2281,1.2673,1.3345,1.3642,1.2883,1.2602,1.2294,1.1884,1.1442,1.1308,1.1718,1.2224,1.2543,1.2543,1.3357,1.4141,1.4783,1.5013,1.5299,1.577,1.6108,1.6448,1.6789,1.7126,1.7455,1.7789,1.7949,1.8014,1.7971,1.827,1.841,1.8371,1.8528,1.8585,2.1529,2.2806,2.2129,2.3163,0.6676,-0.9745,-0.9491,-0.1074,0.5799,0.2682,0.095,-0.0,-0.0,-0.0,0.0269,0.1171,0.0,0.9673,0.7639,0.9072,1.0256,0.9885,1.0485,1.0948,1.0948,1.212,1.2881,1.2881,1.2764,1.2706,1.2764,1.1895,1.1796,1.2618,1.2187,1.2286,1.3017,1.2929,1.2929,1.3017,1.3017,1.2968,1.2881,1.2968,1.2968,1.2881,1.2881,1.2881,1.2881,1.2881,1.3238,1.3779,1.3732,1.4143,1.4926,1.5828,1.6305,1.6562,1.705,1.7175,1.7092,1.6574,1.6102,1.5499,1.4365,1.4003,1.3826,1.3286,1.3515,1.3956,1.4003,1.3817,1.3597,1.3568,1.3271,1.3097,1.3426,1.3262,1.3134,1.3478,1.4245,1.4519,1.35,1.2935,1.2471,1.1986,1.1124,1.0643,1.1067,1.1431,1.1737,1.1872,1.2601,1.3511,1.4501,1.4907,1.5299,1.577,1.6108,1.6448,1.6789,1.7126,1.7455,1.7789,1.7816,1.7949,1.8146,1.8208,1.8371,1.8604,1.8641,1.866,1.862,1.5536,1.083,1.1427,0.8891,0.1953,-1.4612,-0.8146,0.0,1.114,0.5945,-0.0,-0.0,-0.0,0.1788,0.7311,1.055,1.2401,1.2344,1.1751,1.1107,0.0,1.1208,1.1616,1.1648,1.2393,0.0,0.0,1.2325,1.1963,1.1972,1.0813,1.0466,1.1124,1.2157,1.2997,1.3647,1.3152,1.3152,1.3637,1.3637,1.3372,1.2929,1.342,1.3372,1.2881,1.2881,1.2881,1.2881,1.2881,1.3238,1.3732,1.3238,1.4014,1.541,1.5096,1.5915,1.7092,1.6689,1.6562,1.6574,1.6484,1.6423,1.6194,1.5499,1.496,1.4514,1.4433,1.4479,1.4652,1.5141,1.5622,1.5812,1.5368,1.5208,1.5054,1.4714,1.4917,1.5312,1.5804,1.5694,1.5336,1.4688,1.4146,1.3486,1.2589,1.199,1.1627,1.1671,1.1356,1.1446,1.2224,1.2798,1.3598,1.4876,1.5074,1.5299,1.577,1.6108,1.6448,1.6789,1.7126,1.7455,1.7789,1.8014,1.804,1.7861,1.831,1.8547,1.8622,1.8825,1.9017,1.254,1.0691,0.7546,0.6061,0.298,-0.1964,-1.066,0.0,0.0,0.8189,0.8963,0.7189,0.4506,0.1827,0.0,0.422,1.0745,1.49,1.3416,1.2562,1.2031,1.1922,1.1823,1.1972,1.2344,1.2666,1.2881,1.2881,1.2236,1.1972,1.2344,1.1742,1.1384,1.1316,1.2353,1.3065,1.3334,1.3065,1.319,1.3815,1.3815,1.3826,1.3847,1.4154,1.392,1.3372,1.3372,1.319,1.2881,1.2881,1.3065,1.3286,1.3017,1.36,1.4721,1.5016,1.5847,1.687,1.7177,1.6886,1.6391,1.6416,1.6256,1.5864,1.4949,1.4687,1.4652,1.4329,1.4468,1.4926,1.5784,1.6239,1.6519,1.6519,1.6537,1.6471,1.6222,1.6791,1.7278,1.688,1.7057,1.693,1.5874,1.5478,1.5053,1.4312,1.3809,1.3598,1.3803,1.3385,1.3021,1.2777,1.3385,1.4132,1.5029,1.5329,1.5624,1.6039,1.6367,1.6712,1.7052,1.7516,1.7777,1.7811,1.8208,1.8351,1.8208,1.8604,1.886,1.8964,1.9101,1.9214,0.6542,0.5718,0.3864,0.128,-0.4923,-0.999,-0.8412,-0.7284,-0.4683,0.1997,0.9208,1.3279,0.9976,0.6026,0.3411,0.0,1.1187,1.6153,1.3888,1.3028,1.2716,0.0,1.2403,0.0,1.2822,1.2881,0.0,1.2881,1.2344,1.2138,1.2461,1.2618,1.2393,1.1814,1.251,1.2968,1.3104,1.2968,1.319,1.3815,1.3815,1.405,1.4514,1.4652,1.4422,1.4003,1.3862,1.3552,1.3055,1.2978,1.2881,1.2881,1.2881,1.3286,1.3899,1.4959,1.5716,1.6348,1.7259,1.697,1.6176,1.5947,1.5652,1.5231,1.4272,1.4329,1.4652,1.4272,1.4595,1.5309,1.6348,1.6821,1.7134,1.7539,1.7553,1.7501,1.7628,1.8309,1.8642,1.7821,1.8263,1.8355,1.7128,1.6759,1.6414,1.5925,1.5462,1.5297,1.5665,1.5465,1.4951,1.4054,1.4484,1.5029,1.5599,1.5995,1.635,1.6735,1.7049,1.7339,1.7543,1.8132,1.8254,1.7883,1.8351,1.8585,1.8585,1.8807,1.9017,1.9246,1.9246,1.9259,0.3069,-0.1395,-0.6687,-0.6994,-1.1198,-1.5586,-1.6764,0.0,-0.5906,-0.2886,0.4681,1.157,1.4212,1.4304,0.0,0.0,0.0,1.4758,1.5686,1.4124,1.2879,1.2919,0.0,0.0,1.2881,1.2881,1.2881,1.2881,1.2822,1.2255,1.1074,1.1566,1.1864,1.1814,1.251,1.3152,1.3732,1.3152,1.319,1.3815,1.3815,1.3815,1.3909,1.4468,1.4652,1.4617,1.405,1.3768,1.3684,1.3152,1.2881,1.2881,1.2881,1.3286,1.3862,1.4549,1.5141,1.5664,1.5796,1.5752,1.5487,1.44,1.4376,1.4744,1.4652,1.4663,1.4789,1.532,1.584,1.6391,1.705,1.7932,1.8679,1.8717,1.8373,1.8166,1.8655,1.8849,1.9014,1.9403,1.9163,1.8829,1.8682,1.7848,1.705,1.6519,1.6009,1.5737,1.571,1.6014,1.6383,1.6684,1.6422,1.6545,1.7391,1.7503,1.7726,1.8191,1.853,1.8582,1.8317,1.8875,1.8879,1.8184,1.845,1.8585,1.8585,1.8623,1.877,1.9018,1.9018,1.9117,-0.2938,-0.5795,-0.8914,-1.2213,-1.3897,-1.48,-1.5016,-1.1082,-0.667,-0.4134,0.1109,0.6481,1.0564,1.3544,1.5587,0.0,0.0,0.0,1.4464,1.3496,1.3026,1.3676,1.3,0.0,0.0,0.0,1.4207,1.4891,1.4288,1.3695,1.3125,1.2686,1.2452,1.2452,1.2774,1.3017,1.3238,1.3017,1.319,1.3815,1.3815,1.4003,1.4376,1.496,1.505,1.4698,1.4824,1.4687,1.4283,1.3695,1.342,1.342,1.3065,1.3065,1.3382,1.434,1.4835,1.5231,1.6275,1.6188,1.5576,1.5419,1.4801,1.4143,1.4143,1.4422,1.4835,1.541,1.6003,1.6591,1.7531,1.8574,1.9369,1.9369,1.9207,1.9132,1.9332,1.9369,1.9442,1.9639,1.953,1.9369,1.9369,1.9043,1.8679,1.8473,1.8266,1.8129,1.81,1.8274,1.8543,1.8993,1.7918,1.7342,1.7682,1.7697,1.7861,1.8269,1.8675,1.9017,1.9278,2.004,2.0067,1.9285,1.97,1.9643,1.9081,1.9172,1.9259,1.9353,1.9363,1.9693,-0.542,-0.6944,-0.8504,-1.3398,-1.3726,-1.2778,-1.2817,-1.0481,-0.7607,-0.529,-0.2314,0.1275,0.5772,1.0188,1.3613,0.0,0.0,1.4354,1.3529,1.3128,1.3044,1.3366,0.0,1.2988,0.0,1.5348,1.5591,1.6443,1.5721,1.5222,1.5091,1.4345,1.3627,1.2929,1.2881,1.2881,1.2881,1.2881,1.3104,1.3552,1.3552,1.3826,1.4468,1.4869,1.4915,1.4698,1.5141,1.5096,1.4652,1.4236,1.405,1.4003,1.361,1.343,1.3563,1.4606,1.4971,1.5186,1.6587,1.6557,1.5908,1.6102,1.5342,1.4365,1.4527,1.463,1.488,1.562,1.6464,1.7369,1.8327,1.9132,1.969,1.969,1.969,1.969,1.969,1.969,1.969,1.969,1.969,1.969,1.969,1.9566,1.9442,1.9442,1.9442,1.9442,1.9442,1.9603,1.9839,2.0246,1.9214,1.8548,1.8663,1.8533,1.868,1.9169,1.9618,2.0014,2.039,2.1206,2.1298,2.0516,2.0752,2.0575,1.9894,1.9731,1.9638,1.9606,1.9592,2.0156,-0.2651,-0.4328,-0.628,-0.9851,-1.0346,-1.0364,-1.2016,-1.0833,-0.8886,-0.713,-0.5734,-0.3433,0.1128,0.5159,0.9461,1.4566,0.0,0.0,1.359,1.3385,1.2896,0.0,0.0,1.237,1.3247,1.5489,1.6889,1.6889,1.6889,0.0,1.6325,1.6283,1.5236,1.2968,1.2881,1.2881,1.2881,1.2881,1.2881,1.2929,1.2929,1.3248,1.3815,1.3815,1.4143,1.4698,1.4698,1.4709,1.4698,1.4698,1.4709,1.4709,1.4698,1.4698,1.4755,1.5365,1.5588,1.5676,1.6281,1.6522,1.638,1.5808,1.5588,1.5664,1.6219,1.5608,1.4926,1.6077,1.7572,1.9006,1.953,1.969,1.969,1.969,1.969,1.969,1.969,1.969,1.969,1.969,1.969,1.969,1.969,1.9244,1.8893,1.8893,1.8893,1.8893,1.8893,1.9369,1.9839,2.0246,2.0265,2.0467,2.0943,2.0534,2.0651,2.1505,2.1898,2.1905,2.1604,2.2373,2.2445,2.1686,2.1301,2.1091,2.1091,2.0217,1.9734,1.9597,1.9587,2.0401,-0.35,-0.49,-0.6361,-0.8954,-0.9046,-0.8453,-0.8368,-0.8073,-0.7392,-0.5818,-0.4804,-0.3102,0.0557,0.3339,0.6793,1.1967,1.2452,0.0,0.0,0.0,0.0,1.4818,1.6772,1.7946,0.0,0.0,1.9706,1.9706,1.8687,1.8009,1.7882,1.687,1.5608,1.4125,1.4068,1.369,1.2929,1.2881,1.2881,1.2881,1.2881,1.3017,1.32,1.36,1.3909,1.4143,1.533,1.586,1.586,1.586,1.586,1.5784,1.5005,1.4698,1.4789,1.5365,1.5588,1.5764,1.6727,1.6795,1.6509,1.6714,1.6232,1.5796,1.6744,1.6476,1.6164,1.7693,1.8482,1.9006,1.9566,1.969,1.969,1.969,1.969,1.9782,2.0054,2.0124,2.0193,2.0532,2.0599,2.0599,2.0599,2.0177,1.9849,1.9849,1.9849,1.9849,1.9849,2.028,2.0731,2.1165,2.0943,2.0829,2.1007,2.0862,2.1053,2.1714,2.2102,2.2489,2.2953,2.3635,2.375,2.3151,2.2999,2.2435,2.1359,2.1145,2.0698,2.0057,1.9613,1.9665,-0.2787,-0.4123,-0.5593,-0.703,-0.741,-0.7209,-0.6405,-0.6311,-0.6012,-0.4769,-0.378,-0.2522,-0.0525,0.2082,0.5161,0.8972,1.0105,0.0,0.0,0.0,0.0,1.7034,0.0,0.0,0.0,2.0548,2.1247,2.1023,2.0073,1.9248,1.8633,1.8103,1.7021,1.5301,1.4834,1.4242,1.3569,1.3094,1.2881,1.2881,1.2881,1.2881,1.2929,1.3286,1.3457,1.3552,1.5306,1.6065,0.0,1.6747,1.7053,1.697,1.628,1.5978,1.6022,1.6421,1.6549,1.6634,1.7368,1.7394,1.7105,1.7271,1.6954,1.6718,1.7653,1.7639,1.7572,1.8598,1.9043,1.9281,1.9603,1.969,1.9747,1.9909,1.9945,2.0035,2.0483,2.055,2.0649,2.0926,2.0991,2.0991,2.0991,2.0764,2.055,2.055,2.055,2.055,2.055,2.0927,2.135,2.1757,2.1694,2.1703,2.1922,2.1682,2.1827,2.2513,2.2922,2.3355,2.3842,2.4437,2.4594,2.4255,2.4017,2.3381,2.2293,2.1503,2.084,2.0285,1.9605,1.9444,0.0,-0.245,-0.4236,-0.452,-0.5569,-0.6371,-0.5706,-0.5293,0.0,-0.3836,-0.2691,-0.1863,-0.1768,0.126,0.4334,0.6012,0.8419,0.0,0.0,1.5253,0.0,0.0,1.9437,0.0,1.9663,2.1031,2.1696,2.1039,2.0959,2.0255,1.8671,1.9652,1.9068,1.6494,1.5389,1.4789,1.4699,1.3653,1.3142,1.3142,1.3142,1.3142,1.3142,1.3142,1.3142,1.3266,1.4959,1.5743,1.5874,1.7518,1.8171,1.8145,1.8106,1.8106,1.8106,1.8106,1.8106,1.8106,1.8145,1.8145,1.8027,1.7504,1.7706,1.8263,1.8803,1.8954,1.9006,1.9006,1.9391,1.9782,1.9782,1.9782,1.9874,2.0246,2.0348,2.0483,2.0926,2.1055,2.1086,2.1118,2.1134,2.1165,2.1165,2.1149,2.1149,2.1149,2.1133,2.1164,2.1164,2.1467,2.1814,2.2184,2.2505,2.2922,2.3536,2.2894,2.2864,2.3804,2.415,2.4358,2.4372,2.4801,2.5041,2.5041,2.4408,2.3918,2.3561,2.1372,2.0307,2.0285,1.9648,1.9829,-0.166,0.0,-0.4137,-0.4519,-0.4347,-0.3985,0.0,-0.3524,-0.3155,-0.1286,-0.1447,-0.1607,-0.0632,0.1092,0.3224,0.5881,0.7677,0.9892,1.3169,1.6329,0.0,2.0429,2.2017,2.2406,2.0956,2.1768,2.1987,2.1055,2.0665,1.9913,1.8671,1.9396,1.9133,1.7651,1.7357,1.6798,1.5899,1.5651,1.5489,1.5489,1.5489,1.5489,1.5489,1.5489,1.569,1.6019,1.733,1.7882,1.7935,1.8875,1.9037,1.865,1.8263,1.8106,1.8106,1.8106,1.8106,1.8185,1.8574,1.8458,1.8066,1.7947,1.8263,1.8803,1.9295,1.9692,1.9954,1.9954,2.0314,2.0698,2.0698,2.0698,2.0698,2.0797,2.0829,2.0959,2.1368,2.1668,2.1927,2.2235,2.2504,2.2669,2.2669,2.2547,2.2461,2.2461,2.2597,2.267,2.267,2.3017,2.3304,2.3386,2.3522,2.3825,2.4355,2.3699,2.3601,2.4441,2.4559,2.4794,2.5191,2.5327,2.5378,2.5378,2.4389,2.3634,2.3145,2.1229,2.0301,2.0293,2.0148,2.1521,-0.1878,-0.2838,-0.3691,-0.3714,-0.3505,-0.307,-0.2216,-0.2178,-0.1877,-0.0334,0.0,-0.0628,0.0629,0.1609,0.3101,0.5853,0.7436,0.0,0.0,0.0,1.9214,2.0672,2.2337,2.2874,0.0,2.2603,2.274,2.1508,2.1189,2.0335,1.87,1.9453,1.9353,1.8034,1.8503,1.8243,1.71,1.6536,1.6283,1.6283,1.6283,1.6283,1.6283,1.6283,1.6514,1.697,1.8124,1.8716,1.8994,1.9882,2.0078,1.9834,1.9555,1.9432,1.9432,1.9432,1.9432,1.9447,1.9513,1.9089,1.8496,1.8727,1.8855,1.9029,1.9692,2.0265,2.0616,2.0616,2.0797,2.0991,2.0991,2.0991,2.1086,2.1411,2.1502,2.1652,2.2207,2.2478,2.266,2.288,2.3069,2.3189,2.3189,2.3212,2.3217,2.3217,2.3422,2.3573,2.3573,2.3894,2.4117,2.4117,2.4247,2.4515,2.491,2.4538,2.4512,2.5037,2.5065,2.5207,2.5488,2.5488,2.5488,2.5488,2.4888,2.4445,2.414,2.1651,2.0391,2.0291,2.0392,2.2256,-0.1778,-0.242,-0.2926,-0.2666,-0.2754,-0.2616,-0.1561,0.0,0.0,0.0,0.0,0.0,0.1692,0.2598,0.0,0.0,0.0,0.0,1.4469,1.6852,1.8573,1.9613,2.1297,0.0,2.1749,2.3004,2.3343,2.21,2.1878,2.091,1.8854,1.9723,1.9611,1.8138,1.9259,1.9441,1.8446,1.737,1.6868,1.6924,1.6924,1.6965,1.7034,1.7089,1.7329,1.7741,1.8717,1.9371,1.9805,2.0718,2.1071,2.0991,2.0991,2.0991,2.0991,2.0991,2.0991,2.0926,2.055,1.9884,1.9288,1.9752,1.9594,1.9419,2.0338,2.0863,2.118,2.1334,2.1303,2.1274,2.1336,2.1305,2.1428,2.204,2.2231,2.2419,2.3052,2.3307,2.3413,2.3413,2.343,2.3458,2.3458,2.3667,2.3845,2.383,2.4026,2.4176,2.4176,2.4376,2.4557,2.4557,2.4739,2.4962,2.5108,2.5142,2.5221,2.5395,2.5473,2.5517,2.5517,2.5509,2.5515,2.5539,2.5531,2.5537,2.5517,2.274,2.1145,2.0733,2.1177,2.2933,-0.1373,-0.1489,-0.1697,-0.2017,-0.1599,-0.1138,-0.1265,-0.0735,0.0,0.0,0.0,0.0,0.0,0.4,0.6013,0.0,0.0,1.214,0.0,0.0,1.7754,1.7246,0.0,2.1178,2.0834,2.1679,2.2346,2.2564,2.1777,2.0757,1.9426,1.9958,1.9773,1.8536,2.0001,2.0715,2.0552,1.9641,1.9353,1.9703,1.9703,1.9897,2.0273,2.0575,2.0923,2.1319,2.1503,2.1578,2.1653,2.1562,2.1306,2.0991,2.0991,2.0991,2.0991,2.0991,2.0991,2.0991,2.0926,2.0797,2.0682,2.0764,2.0748,2.0863,2.1782,2.2017,2.2118,2.2876,2.28,2.2504,2.2788,2.266,2.2468,2.2574,2.2784,2.2999,2.3093,2.3743,2.4302,2.4302,2.4483,2.4646,2.4646,2.4811,2.4949,2.4943,2.4938,2.4921,2.4921,2.4823,2.474,2.474,2.4783,2.4823,2.4858,2.4914,2.4949,2.4995,2.5366,2.5578,2.5575,2.5527,2.5549,2.5662,2.5677,2.5675,2.5675,2.5155,2.414,2.2707,2.4213,2.5197,-0.1305,-0.0955,-0.0661,-0.0871,-0.0822,-0.0694,-0.0621,-0.0292,0.0,0.0,0.0,0.0,0.0,0.0,0.6211,0.8286,0.0,1.1706,1.23,1.404,1.5348,0.0,0.0,1.9126,1.9586,2.1496,2.2596,2.2287,2.2117,2.1529,2.0462,2.0327,2.0062,1.9551,2.0469,2.1151,2.1471,2.0771,2.0499,2.0682,2.0682,2.0894,2.1272,2.1423,2.1802,2.2373,2.2373,2.2496,2.2694,2.265,2.2356,2.1967,2.2367,2.217,2.1691,2.1691,2.1538,2.1337,2.1337,2.1362,2.1427,2.1427,2.1602,2.1915,2.2509,2.2693,2.2893,2.362,2.3525,2.3212,2.3379,2.3404,2.3453,2.3623,2.3781,2.3912,2.4039,2.4337,2.4547,2.4547,2.4652,2.469,2.4543,2.481,2.5,2.4881,2.4946,2.4993,2.4992,2.4898,2.4841,2.4841,2.4853,2.4851,2.4851,2.4869,2.4949,2.5069,2.5265,2.5458,2.5592,2.5575,2.557,2.5585,2.5652,2.5696,2.5696,2.5696,2.5283,2.4522,2.5332,2.5703,-0.1173,-0.0576,0.0,0.0,0.0,-0.0458,-0.0079,0.0,0.0,0.0,0.0,0.0,0.0,0.4304,0.0,0.9565,1.0382,1.0701,1.1071,1.1759,1.2405,1.2984,1.4241,1.552,1.6748,1.9589,2.1347,2.1282,2.2047,2.2327,2.1906,2.1338,2.1017,2.1027,2.1456,2.1921,2.2378,2.1915,2.1574,2.1359,2.1214,2.1401,2.1873,2.1969,2.2341,2.2965,2.2951,2.3094,2.3328,2.3444,2.3249,2.2951,2.3547,2.324,2.2473,2.2563,2.2296,2.1955,2.2023,2.2146,2.2263,2.2306,2.2524,2.2896,2.3236,2.346,2.3672,2.4058,2.3998,2.3842,2.3889,2.4,2.4184,2.4449,2.4508,2.4571,2.4762,2.4732,2.4676,2.467,2.4672,2.4609,2.4397,2.4654,2.4754,2.4302,2.4296,2.4342,2.4293,2.4212,2.4281,2.4591,2.4629,2.4629,2.4629,2.4629,2.4657,2.4792,2.5071,2.5335,2.5534,2.5543,2.5505,2.5447,2.5541,2.5615,2.5615,2.5615,2.5615,2.5653,2.5615,2.5615,-0.084,-0.0384,0.0,0.0,-0.0035,-0.0035,0.0,0.0,0.0,0.0,0.0,0.0,0.0,0.438,0.7103,0.9372,1.0021,0.9898,0.8989,0.0,0.9276,0.8005,0.8482,0.9522,1.1013,1.3701,1.6481,1.929,2.1027,2.2546,2.3907,2.3487,2.3178,2.3193,2.3579,2.3785,2.3836,2.3817,2.3306,2.2399,2.1812,2.2082,2.2994,2.331,2.3654,2.3997,2.399,2.3862,2.3653,2.3548,2.3473,2.3473,2.3707,2.3464,2.3,2.3298,2.3209,2.2935,2.3258,2.3485,2.3666,2.3718,2.3777,2.3905,2.4498,2.4544,2.4406,2.4389,2.4411,2.4492,2.4739,2.4635,2.4481,2.4498,2.4499,2.4502,2.4526,2.4701,2.4875,2.4879,2.489,2.4876,2.4841,2.4879,2.449,2.3288,2.2914,2.2667,2.2437,2.2169,2.2486,2.3649,2.3789,2.3789,2.3789,2.3789,2.3723,2.3628,2.4726,2.539,2.5409,2.5341,2.5322,2.5303,2.5322,2.5332,2.5332,2.5332,2.5399,2.5515,2.5399,2.5332,-0.0807,-0.035,0.0,0.0,0.0,0.0,0.0,0.0,0.0,0.0,0.0365,0.0,0.0,0.0,0.6216,0.8026,0.8093,0.7902,0.7988,0.7771,0.7487,0.7326,0.755,0.806,0.9092,1.2525,1.5191,1.6342,1.9838,2.2145,2.274,2.3168,2.3228,2.2853,2.3236,2.3443,2.3443,2.343,2.3435,2.3427,2.32,2.3414,2.396,2.4103,2.4327,2.4605,2.4596,2.4538,2.4441,2.4469,2.4315,2.4041,2.3879,2.3879,2.3952,2.3624,2.35,2.3506,2.3497,2.3875,2.4352,2.4394,2.4518,2.4632,2.4561,2.4495,2.4351,2.3998,2.4049,2.4182,2.4104,2.4296,2.4508,2.4508,2.4638,2.4696,2.4534,2.4463,2.434,2.4132,2.362,2.3182,2.2983,2.2573,2.2099,2.1466,2.1297,2.121,2.1079,2.1499,2.1975,2.2468,2.3035,2.3392,2.3392,2.3516,2.3548,2.3515,2.3953,2.436,2.4692,2.4692,2.4787,2.4979,2.5182,2.5294,2.5304,2.4841,2.4879,2.5381,2.5323,2.5304,-0.0794,-0.0354,0.0,0.0,0.0,0.0,0.0,0.0,0.0,0.0,0.0196,0.0837,0.2392,0.0,0.0,0.0,0.6215,0.5944,0.6212,0.5584,0.5063,0.5023,0.5019,0.5157,0.5629,0.9098,1.1939,1.3286,1.7263,2.0215,2.1579,2.2603,2.2965,2.2533,2.3095,2.3379,2.3379,2.3383,2.3589,2.4004,2.4011,2.4224,2.4611,2.454,2.4687,2.502,2.4946,2.4894,2.4907,2.5073,2.498,2.4688,2.44,2.4429,2.4557,2.4132,2.4025,2.4042,2.4026,2.4416,2.4902,2.4858,2.5071,2.5247,2.4617,2.4511,2.4378,2.3322,2.3136,2.3123,2.2444,2.3375,2.4487,2.4499,2.4587,2.4507,2.4009,2.3601,2.3221,2.2693,2.2057,2.1568,2.1394,2.0767,2.0104,1.9574,1.9464,1.9379,1.909,1.9776,2.0569,2.1275,2.2452,2.3165,2.3045,2.3188,2.314,2.2911,2.2911,2.3271,2.4098,2.4044,2.4137,2.451,2.4804,2.4957,2.4936,2.4454,2.4492,2.5083,2.493,2.4956,-0.08,-0.0364,0.0,0.0,0.0,0.0,0.0,0.0,0.0,0.0,0.0599,0.1219,0.1688,0.2582,0.0,0.4864,0.4676,0.4123,0.3369,0.2654,0.1664,0.0168,0.0,0.0,0.0056,0.2495,0.5915,1.0289,1.3165,1.6578,2.0858,2.2055,2.2605,2.2572,2.3501,2.3984,2.3955,2.3984,2.3993,2.3983,2.3997,2.4314,2.4898,2.4626,2.4796,2.5273,2.5019,2.4907,2.4918,2.512,2.5284,2.539,2.539,2.5084,2.4648,2.4911,2.4822,2.4648,2.4999,2.5241,2.5379,2.5242,2.5514,2.572,2.4769,2.4768,2.462,2.2329,2.1696,2.1337,1.9788,2.1923,2.4459,2.4458,2.426,2.3779,2.2781,2.216,2.1507,2.0569,2.0384,2.0384,2.0384,1.9797,1.8914,1.7678,1.7477,1.7167,1.6216,1.6708,1.7935,2.0162,2.2063,2.3045,2.2721,2.2712,2.2378,2.1658,2.1598,2.2251,2.3708,2.3453,2.3456,2.3884,2.4087,2.4185,2.4199,2.4181,2.4327,2.4586,2.4129,2.4215,-0.0344,-0.0109,0.0,0.0,0.0,0.0,0.0,0.0787,0.0,0.0,0.0545,0.0478,0.1062,0.1514,0.0,0.3484,0.2763,0.2163,0.2491,0.1445,0.0503,0.0056,0.0,0.0613,0.2091,0.4711,0.769,1.0994,1.4766,1.7677,1.9376,2.1456,2.2102,2.1016,2.2521,2.2856,2.1767,2.2811,2.3379,2.3377,2.4035,2.4448,2.462,2.4544,2.4681,2.5031,2.5085,2.5115,2.5116,2.5273,2.5366,2.5396,2.5396,2.5306,2.5149,2.5154,2.5143,2.5164,2.517,2.5209,2.525,2.5212,2.5302,2.5168,2.3824,2.3636,2.339,2.1264,2.0649,2.0461,1.9606,2.0346,2.1264,2.1262,2.1375,2.135,2.0811,2.0575,2.0193,1.9241,1.8763,1.8365,1.7963,1.7122,1.6536,1.6653,1.6374,1.63,1.6762,1.6995,1.773,1.9448,2.0926,2.2043,2.2704,2.2408,2.2274,2.2353,2.1614,2.1348,2.1804,2.1737,2.199,2.2618,2.3067,2.359,2.4205,2.3744,2.378,2.4314,2.4176,2.3747,-0.011,0.019,0.0,0.042,0.0973,0.1457,0.1546,0.0,0.0,0.0,0.077,0.0434,0.0544,0.0828,0.0,0.2165,0.1376,0.0894,0.1667,0.0222,-0.067,-0.0056,-0.0503,0.0221,0.2952,0.468,0.7178,1.0848,1.3522,1.5631,1.7068,1.9228,1.9979,1.9059,2.0702,2.1199,2.0262,2.1151,2.1627,2.1627,2.2726,2.3302,2.3459,2.4195,2.4673,2.4912,2.5118,2.5259,2.5337,2.5414,2.5437,2.5434,2.5434,2.5449,2.5434,2.5321,2.5352,2.5461,2.5594,2.5455,2.5257,2.5562,2.5256,2.4557,2.3438,2.2983,2.2446,2.0504,1.9627,1.9115,1.842,1.8021,1.8186,1.9577,1.9869,1.9677,1.9091,1.8644,1.812,1.717,1.674,1.6377,1.602,1.5279,1.484,1.5265,1.5085,1.518,1.604,1.6708,1.7529,1.8621,2.0221,2.1475,2.207,2.2281,2.2134,2.1501,2.1063,2.0631,2.0182,2.0709,2.1336,2.2096,2.2417,2.298,2.3803,2.3389,2.3417,2.3784,2.3679,2.3253,-0.0041,0.0487,0.094,0.1156,0.1676,0.0,0.2293,0.173,0.1174,0.1118,0.0,0.0671,0.0,0.0392,0.0782,0.0782,0.0224,0.0056,0.0726,-0.0888,-0.161,-0.028,-0.1224,-0.055,0.3056,0.3384,0.5422,1.0319,1.0778,1.1909,1.4492,1.6198,1.7074,1.6965,1.8559,1.937,1.9263,1.937,1.9405,1.9405,2.0687,2.1441,2.1813,2.3703,2.469,2.493,2.5095,2.5293,2.5486,2.5486,2.548,2.5485,2.5486,2.5481,2.5485,2.5515,2.5551,2.5651,2.6185,2.5835,2.5264,2.5958,2.5176,2.3851,2.325,2.263,2.1754,1.9938,1.8698,1.7681,1.6638,1.558,1.5628,1.8812,1.9071,1.8368,1.7424,1.6565,1.569,1.4699,1.4547,1.4569,1.4534,1.402,1.3705,1.3788,1.3868,1.4087,1.4699,1.6079,1.7267,1.7861,1.982,2.1144,2.1237,2.2191,2.1952,2.0005,2.021,2.0009,1.9017,2.011,2.1118,2.1936,2.1898,2.2255,2.3028,2.3029,2.3033,2.298,2.2688,2.2755,0.0559,0.089,0.0,0.1686,0.2436,0.304,0.3051,0.2508,0.1786,0.1229,0.0168,-0.067,-0.0838,-0.1228,-0.1505,-0.1505,-0.1618,-0.1673,-0.1505,-0.1394,-0.1228,-0.0894,-0.0615,0.094,0.457,0.4946,0.6723,1.1129,1.1999,1.2801,1.3846,1.5948,1.6744,1.5966,1.818,1.906,1.8317,1.9024,1.9405,1.9405,2.0687,2.1328,2.1458,2.3303,2.4442,2.4972,2.5018,2.5152,2.5341,2.5341,2.5369,2.541,2.5426,2.5414,2.5515,2.6224,2.6329,2.619,2.6745,2.6004,2.4769,2.4647,2.3848,2.2725,2.1702,2.1542,2.1241,1.8929,1.808,1.7629,1.6407,1.5913,1.5928,1.6642,1.6225,1.5569,1.5346,1.5149,1.4651,1.3453,1.3478,1.3521,1.3058,1.2874,1.2993,1.37,1.4207,1.4722,1.5262,1.6021,1.6917,1.7932,1.9374,2.0785,2.2083,2.1643,2.1438,2.185,2.0666,1.9838,1.9622,1.9047,1.9376,2.0732,2.0347,2.0686,2.177,2.1795,2.1675,2.1458,2.1404,2.1762,0.0727,0.0,0.0,0.2716,0.0,0.368,0.2954,0.2452,0.1785,0.0335,-0.0559,-0.1229,-0.1563,-0.1952,-0.2174,-0.2174,-0.2174,-0.2174,-0.2174,-0.2171,-0.1892,-0.1173,-0.1059,0.0661,0.5,0.5379,0.7012,1.0956,1.1935,1.2483,1.2754,1.4541,1.5292,1.4767,1.6325,1.7032,1.6834,1.7343,1.7977,1.8743,2.0007,2.1229,2.2375,2.3231,2.3856,2.4267,2.4267,2.4538,2.496,2.496,2.4993,2.5101,2.5461,2.5454,2.5348,2.6166,2.6367,2.6249,2.6206,2.5185,2.3844,2.3581,2.247,2.1169,2.0816,2.0738,2.039,1.8721,1.7873,1.7209,1.6232,1.5539,1.4908,1.4094,1.3713,1.3538,1.3538,1.2647,1.1644,1.0972,1.1015,1.1046,1.0725,1.1379,1.2404,1.3724,1.4785,1.5522,1.5806,1.6657,1.7585,1.8461,1.9408,2.032,2.1152,2.1218,2.1091,2.084,2.0253,1.974,1.943,1.8592,1.8879,2.0391,1.9863,2.0131,2.1213,2.1215,2.1005,2.0624,2.0606,2.0751,0.0834,0.0,0.2418,0.3717,0.4243,0.0,0.2561,0.2119,0.1393,-0.0837,-0.1284,-0.1507,-0.2232,-0.2508,-0.2621,-0.2621,-0.2454,-0.2454,-0.2565,-0.2777,-0.2496,-0.1396,-0.1613,0.0,0.4574,0.5065,0.6554,1.0171,1.1048,1.1548,1.1814,1.3082,1.3815,1.3815,1.4376,1.4926,1.5454,1.5543,1.628,1.7598,1.8943,2.0712,2.2794,2.2716,2.3,2.356,2.356,2.3897,2.446,2.446,2.4492,2.462,2.5244,2.5197,2.4861,2.5501,2.5725,2.5643,2.5074,2.3998,2.2809,2.2655,2.1306,1.9854,2.0263,2.0129,1.9631,1.8768,1.7706,1.6697,1.5842,1.4625,1.3351,1.197,1.1577,1.1541,1.1707,1.0164,0.8731,0.8637,0.8612,0.8705,0.8967,1.038,1.2048,1.3813,1.5191,1.6075,1.6308,1.7303,1.8195,1.8861,1.9443,1.9798,1.9798,2.0745,2.0797,1.9419,1.9722,1.9712,1.9168,1.8629,1.8975,2.0262,1.9777,1.9867,2.0632,2.0621,2.0351,1.9855,1.9827,1.9686,0.1217,0.0,0.3494,0.0,0.4194,0.3877,0.0,0.0,0.061,0.0,-0.2063,-0.2286,-0.301,-0.3735,-0.4184,-0.4184,-0.3624,-0.34,-0.407,-0.2563,-0.1562,-0.2009,-0.1005,0.0723,0.3309,0.3586,0.5097,0.8717,0.9592,1.0511,1.1706,1.3082,1.3815,1.3815,1.4376,1.4744,1.4835,1.532,1.5708,1.5947,1.7518,1.887,1.9971,2.0412,2.1748,2.3765,2.3765,2.3823,2.3916,2.3916,2.3916,2.3952,2.4218,2.3973,2.3527,2.4069,2.4103,2.3852,2.3701,2.304,2.2193,2.1837,2.085,1.9839,1.9876,1.9825,1.9527,1.8112,1.7148,1.6136,1.4808,1.3254,1.1949,1.1767,0.9984,0.852,0.9349,0.9279,0.8866,0.8314,0.8207,0.8618,1.0124,1.1014,1.2164,1.3862,1.477,1.5639,1.6735,1.6979,1.745,1.8609,1.8836,1.9101,1.9645,1.9902,2.0207,2.0515,2.0079,1.9773,1.9673,1.9183,1.9198,1.9874,1.9346,1.9113,1.9182,1.9174,1.8891,1.8366,1.8394,1.8545,0.1415,0.2634,0.3601,0.0,0.3553,0.325,0.1891,0.0988,0.0,-0.1838,-0.2508,-0.3065,-0.3846,-0.4239,-0.4519,-0.4519,-0.3846,-0.3456,-0.3846,-0.2287,-0.1229,-0.1563,-0.0279,0.1338,0.3099,0.3649,0.5221,0.8462,0.9119,0.9966,1.1384,1.2367,1.2902,1.2902,1.3736,1.4376,1.4698,1.532,1.6034,1.6959,1.8212,1.8987,1.9405,1.9955,2.0782,2.1807,2.2097,2.2408,2.2682,2.2682,2.2516,2.232,2.3103,2.2889,2.2215,2.2891,2.3258,2.3188,2.175,2.099,2.0444,1.9611,1.8737,1.7958,1.7931,1.7914,1.7599,1.6073,1.5375,1.4763,1.3199,1.2235,1.1352,0.9901,0.8695,0.7643,0.7121,0.688,0.6922,0.7586,0.7731,0.8549,1.132,1.2006,1.2652,1.3965,1.516,1.5766,1.5442,1.6479,1.7311,1.7401,1.7823,1.8391,1.9098,1.9189,1.9467,2.0168,1.9977,1.9617,1.9182,1.8967,1.8745,1.8566,1.8843,1.9141,1.9405,1.9405,1.9121,1.8603,1.8599,1.8548,0.0,0.0,0.3028,0.2761,0.2735,0.2456,0.0,0.0,-0.0713,0.0,-0.3049,-0.379,-0.4405,-0.4519,-0.4519,-0.4519,-0.3677,-0.3121,-0.3345,-0.1898,-0.0895,-0.1062,0.0223,0.1616,0.2883,0.3712,0.5391,0.8449,0.8903,0.9766,1.1533,1.2091,1.2393,1.2393,1.3152,1.3873,1.4468,1.5231,1.628,1.7625,1.8341,1.8654,1.8691,1.9214,1.948,1.9516,2.0536,2.1146,2.1383,2.1383,2.1095,2.07,2.1708,2.1507,2.0724,2.1237,2.1628,2.1617,1.9428,1.8771,1.877,1.765,1.6917,1.6456,1.6428,1.6277,1.5769,1.4184,1.3626,1.3076,1.1465,1.0725,0.9926,0.8035,0.7399,0.6894,0.5683,0.5375,0.5755,0.6965,0.7431,0.8555,1.1615,1.2161,1.2555,1.37,1.4902,1.5271,1.4222,1.566,1.6586,1.6141,1.6842,1.7516,1.807,1.8498,1.8867,1.9202,1.9405,1.917,1.8449,1.8398,1.8167,1.7633,1.8285,1.8883,1.9343,1.9343,1.9154,1.8783,1.881,1.8582,0.0,0.1316,0.0,0.1998,0.2066,0.1747,0.0,0.0,-0.1427,-0.2764,-0.3767,-0.446,-0.4519,-0.4519,-0.4519,-0.4519,-0.3234,-0.2508,-0.3289,-0.1452,-0.0336,-0.1006,0.0223,0.1396,0.2174,0.2896,0.4848,0.8456,0.8709,0.9898,1.2686,1.2842,1.2842,1.2842,1.292,1.3238,1.3815,1.4994,1.5952,1.6595,1.6625,1.6667,1.6655,1.7216,1.745,1.7558,1.9963,2.0749,2.0276,2.0276,1.9974,1.9521,1.9757,1.9461,1.8907,1.8625,1.8388,1.796,1.6558,1.6802,1.7549,1.6709,1.645,1.6417,1.6396,1.5879,1.4907,1.3327,1.2313,1.1374,0.9749,0.8127,0.6907,0.678,0.6137,0.5491,0.5428,0.6052,0.6624,0.6692,0.7378,0.8538,1.031,1.0625,1.1171,1.2805,1.3111,1.3372,1.4006,1.4275,1.4612,1.5274,1.6055,1.6574,1.6591,1.789,1.8419,1.7745,1.8347,1.8449,1.769,1.7656,1.7633,1.7578,1.7632,1.7802,1.7996,1.7996,1.808,1.8223,1.8226,1.8242,0.0,0.0,0.0,0.0885,0.0855,0.0538,-0.0693,-0.1321,-0.1957,-0.2904,-0.3753,-0.4355,-0.4498,-0.4519,-0.4519,-0.4519,-0.3231,-0.2286,-0.2565,-0.1118,0.0056,0.0279,0.1172,0.212,0.2843,0.3624,0.4984,0.7164,0.7494,0.8467,1.0385,1.13,1.1807,1.1807,1.2877,1.3956,1.4949,1.5365,1.5908,1.6522,1.6522,1.6522,1.6522,1.6629,1.6912,1.734,1.7769,1.8299,1.8829,1.8829,1.8293,1.7545,1.7914,1.7232,1.6044,1.5893,1.5755,1.5435,1.4278,1.4444,1.5189,1.5535,1.5002,1.4326,1.4767,1.3654,1.1982,1.0863,0.9957,0.9017,0.7897,0.7154,0.6555,0.6005,0.562,0.5428,0.5428,0.6117,0.7019,0.8088,0.8977,1.0164,1.1843,1.2104,1.2112,1.2251,1.3127,1.3279,1.1997,1.3672,1.4701,1.3911,1.5022,1.5966,1.6448,1.6981,1.7355,1.7573,1.7846,1.769,1.6896,1.6899,1.6641,1.6187,1.6187,1.6926,1.8429,1.8429,1.867,1.9233,1.9245,1.9221,0.056,0.0,0.0,0.0,-0.02,-0.0589,-0.1648,-0.2075,-0.2445,-0.3198,-0.381,-0.4171,-0.4044,-0.4097,-0.4125,-0.4125,-0.3234,-0.2397,-0.1898,-0.1006,0.0,0.1006,0.173,0.2508,0.3231,0.4015,0.5109,0.6489,0.6985,0.7809,0.9211,1.0433,1.109,1.109,1.2637,1.3831,1.4642,1.5084,1.5511,1.5888,1.5888,1.5776,1.5576,1.5484,1.558,1.5719,1.5254,1.6028,1.7504,1.707,1.6333,1.5508,1.5657,1.4965,1.389,1.389,1.3821,1.3551,1.2707,1.2789,1.3409,1.3936,1.345,1.2655,1.2846,1.1603,0.9892,0.8753,0.7807,0.688,0.6047,0.5796,0.5698,0.5484,0.5428,0.5498,0.5771,0.6548,0.7461,0.8581,0.9707,1.0911,1.2011,1.2168,1.2011,1.1495,1.231,1.2382,1.0794,1.2923,1.4082,1.2739,1.4271,1.5488,1.5722,1.6226,1.6582,1.6835,1.7062,1.6917,1.6151,1.6151,1.5921,1.541,1.541,1.6244,1.7961,1.7961,1.8454,1.9443,1.9443,1.9337,0.0,0.0,0.0,0.0,0.0,0.0,-0.233,0.0,-0.2881,-0.3612,-0.3976,-0.3918,-0.3232,-0.3214,-0.334,-0.3229,-0.3229,-0.2732,-0.1284,-0.1062,-0.0503,0.095,0.1786,0.2508,0.3287,0.407,0.5054,0.6489,0.718,0.8174,0.9578,1.0383,1.0762,1.0813,1.2092,1.2773,1.2822,1.4029,1.4698,1.4698,1.4698,1.4354,1.3695,1.3648,1.3287,1.2704,1.2656,1.4017,1.6182,1.4934,1.413,1.3601,1.2914,1.2656,1.2618,1.2628,1.2476,1.2244,1.1729,1.1966,1.2444,1.1936,1.1737,1.1552,1.0739,0.985,0.8798,0.7166,0.5977,0.502,0.4207,0.4002,0.4207,0.5156,0.5428,0.5634,0.6461,0.7361,0.7996,0.8001,0.9415,1.0624,1.0624,1.0624,1.0624,1.0624,1.0624,1.0636,1.0616,1.1989,1.2717,1.1889,1.3916,1.4993,1.4222,1.5548,1.6105,1.541,1.6036,1.6151,1.541,1.541,1.541,1.541,1.541,1.5748,1.6492,1.6492,1.7236,1.8657,1.8657,1.8407,0.0,0.0,0.0,0.0,0.0,0.0,0.0,0.0,-0.2633,-0.2923,-0.3119,-0.3112,-0.2541,-0.2469,-0.2364,-0.1774,-0.1703,-0.1563,-0.1174,-0.0615,0.0224,0.173,0.2063,0.273,0.4015,0.4349,0.4842,0.5751,0.646,0.7267,0.8224,0.9429,1.0312,1.0762,1.1607,1.2288,1.2822,1.3606,1.4283,1.4698,1.4204,1.3893,1.3648,1.2725,1.2406,1.2666,1.1742,1.1978,1.301,1.3121,1.2819,1.2231,1.2027,1.1396,1.061,1.0869,1.0562,1.0155,1.0429,1.0622,1.0826,1.0829,1.0454,0.9929,0.9655,0.8104,0.6322,0.5826,0.461,0.3538,0.3904,0.4025,0.4207,0.5156,0.5428,0.5495,0.5704,0.642,0.7445,0.8684,0.9845,1.0624,1.0624,1.0624,1.0624,1.0624,1.1129,1.129,1.0691,1.1984,1.2717,1.1889,1.2918,1.3576,1.3322,1.3726,1.4112,1.451,1.4737,1.504,1.5352,1.541,1.541,1.541,1.541,1.5526,1.57,1.6265,1.7002,1.7901,1.7901,1.785,0.0,0.0,0.0,0.0,0.0,0.0,-0.2191,-0.2234,-0.2158,0.0,-0.2443,-0.2342,-0.1762,-0.1722,-0.1504,-0.0779,-0.0642,-0.0661,-0.0614,-0.028,0.0559,0.2007,0.251,0.3178,0.4405,0.4732,0.5027,0.5325,0.6421,0.7402,0.8103,0.8942,0.9562,0.9961,1.0618,1.1308,1.1935,1.2638,1.312,1.3501,1.31,1.2599,1.2055,1.1273,1.0965,1.1039,1.0297,1.0151,1.0535,1.0898,1.1006,1.0881,1.0578,1.0049,0.9404,0.971,0.9563,0.9207,0.9477,0.9291,0.9009,0.8926,0.8324,0.7585,0.7173,0.599,0.4709,0.4303,0.3218,0.2345,0.3242,0.3424,0.3801,0.5087,0.5428,0.5498,0.5841,0.6367,0.6979,0.8052,0.8913,0.9497,0.9497,0.9497,0.9497,0.9497,0.9914,1.0053,0.9566,1.0624,1.1219,1.0795,1.1787,1.246,1.2499,1.2808,1.3205,1.3674,1.3726,1.4085,1.4874,1.4874,1.4874,1.4874,1.4925,1.4723,1.4415,1.5496,1.641,1.7164,1.7467,1.7423,0.0,0.0,0.0,0.0,0.0,0.0,-0.1513,-0.1593,-0.1642,0.0,-0.1855,-0.1769,-0.1073,-0.1013,-0.0842,-0.0198,-0.0051,0.0,0.0,0.0056,0.0613,0.2007,0.2899,0.368,0.4408,0.5109,0.5421,0.5261,0.6844,0.8103,0.8752,0.8804,0.8804,0.8804,0.9458,1.0115,1.0813,1.1416,1.1715,1.1814,1.1665,1.0965,0.9814,0.971,0.9361,0.8804,0.8804,0.8804,0.8804,0.8699,0.9054,0.9614,0.9008,0.8804,0.8844,0.9055,0.9118,0.9078,0.8655,0.8067,0.7264,0.6523,0.5773,0.4993,0.4143,0.3777,0.352,0.2636,0.1822,0.1417,0.2432,0.2681,0.3129,0.4951,0.5428,0.5634,0.639,0.6531,0.6548,0.6566,0.734,0.8016,0.8016,0.8016,0.8016,0.8016,0.8016,0.8016,0.8016,0.8637,0.9122,0.9267,1.0575,1.1495,1.1643,1.2344,1.2776,1.2887,1.2887,1.3243,1.4025,1.4094,1.4085,1.4067,1.406,1.374,1.3007,1.4548,1.5547,1.6105,1.6774,1.6814,0.0,0.0,0.0,0.0,-0.0776,0.0,-0.1263,-0.1478,-0.1556,0.0,-0.1539,-0.159,-0.1264,-0.0973,-0.0741,-0.0566,-0.0233,0.0,0.0,0.0495,0.1228,0.212,0.2899,0.368,0.4408,0.5109,0.5747,0.6255,0.7747,0.8646,0.8804,0.8804,0.8804,0.8804,0.9458,1.0115,1.0813,1.0914,1.1266,1.1765,1.072,1.0064,0.9762,0.9263,0.891,0.8804,0.8804,0.8804,0.8752,0.8156,0.8368,0.8956,0.8857,0.8804,0.8765,0.8638,0.8579,0.841,0.738,0.6943,0.6552,0.5013,0.4412,0.408,0.322,0.2429,0.1619,0.0742,0.0404,0.0607,0.2296,0.2681,0.3129,0.4951,0.5428,0.5428,0.5634,0.5634,0.5627,0.5657,0.6955,0.8002,0.8002,0.8002,0.8002,0.8002,0.8002,0.8002,0.8002,0.8144,0.8498,0.9211,0.9572,1.0059,1.0771,1.0954,1.1373,1.202,1.2012,1.2389,1.3191,1.3243,1.321,1.3245,1.3236,1.3132,1.2978,1.3983,1.4163,1.3707,1.3828,1.4154,0.0,0.0,-0.0038,-0.0303,-0.034,0.0,0.0,-0.0742,-0.0761,-0.0663,-0.0745,-0.079,-0.0687,-0.0487,-0.0365,-0.0365,0.0088,0.0326,0.0048,0.0914,0.1805,0.2491,0.3232,0.3897,0.4294,0.5304,0.6458,0.7605,0.8247,0.8657,0.8798,0.8804,0.8804,0.8804,0.9113,0.9614,1.0312,1.0312,1.0466,1.0813,0.9732,0.9072,0.8718,0.8415,0.8262,0.8262,0.8262,0.8262,0.8156,0.7047,0.6822,0.7197,0.7551,0.7723,0.7728,0.7827,0.757,0.7081,0.6233,0.5091,0.376,0.2455,0.1395,0.0665,0.0672,0.0674,0.0539,0.0135,0.0,0.0404,0.2228,0.2681,0.3129,0.4951,0.5428,0.5428,0.5428,0.5428,0.5428,0.5498,0.6187,0.6809,0.6738,0.6672,0.6672,0.6672,0.6672,0.6672,0.6672,0.6672,0.7229,0.8501,0.8683,0.9208,1.0485,1.0624,1.0744,1.1163,1.1226,1.156,1.2375,1.2375,1.2403,1.2427,1.2387,1.222,1.1787,1.2607,1.303,1.2992,1.2981,1.3224,-0.0038,0.0,0.0,0.0,0.0,0.0,0.0,0.0,0.0,-0.012,-0.0118,-0.0155,0.0,0.0,0.0,-0.0153,0.0,0.0,0.0,0.1128,0.0,0.2503,0.3386,0.4056,0.4148,0.542,0.6935,0.8507,0.8313,0.83,0.8704,0.8724,0.8751,0.8804,0.8804,0.9054,0.9599,0.9444,0.9392,0.9384,0.8633,0.8013,0.7509,0.7509,0.7509,0.7509,0.7509,0.7391,0.716,0.5833,0.5116,0.4942,0.6013,0.6381,0.6464,0.6725,0.6395,0.567,0.4631,0.2852,0.0862,-0.02,-0.1478,-0.2498,-0.1552,-0.0809,-0.0202,-0.0067,0.0,0.0404,0.2025,0.2547,0.3129,0.4746,0.5292,0.5428,0.5428,0.5428,0.5495,0.5564,0.5595,0.5566,0.5449,0.5428,0.5428,0.5428,0.5428,0.5428,0.5428,0.5428,0.5981,0.7579,0.7921,0.8656,1.0199,1.0485,1.0624,1.0624,1.0624,1.0911,1.1565,1.1643,1.1695,1.174,1.175,1.1354,1.0694,1.1347,1.1929,1.2545,1.2545,1.2637,-0.0171,0.0,0.0,0.0,0.0,0.0,0.0,0.0,-0.0108,-0.0523,0.0,-0.072,0.0,0.0,0.0,0.0,0.0,0.0,0.0739,0.0933,0.1082,0.1304,0.2893,0.4021,0.4036,0.5101,0.6415,0.7907,0.7363,0.7386,0.839,0.8424,0.8544,0.8798,0.8804,0.8784,0.8842,0.8237,0.7913,0.7817,0.716,0.6799,0.675,0.675,0.675,0.675,0.675,0.6347,0.5666,0.4856,0.3747,0.2798,0.4834,0.5716,0.5726,0.5169,0.5023,0.4589,0.1646,0.04,-0.0133,-0.1872,-0.2547,-0.2554,-0.1617,-0.1214,-0.1012,-0.0202,0.0,0.0202,0.1214,0.2076,0.2928,0.3934,0.4815,0.5428,0.5428,0.5498,0.5568,0.5568,0.5718,0.5757,0.5592,0.5564,0.5564,0.5428,0.5428,0.5428,0.5428,0.5428,0.5771,0.6738,0.751,0.8386,0.9352,1.0129,1.0624,1.0624,1.0624,1.0631,1.0701,1.0982,1.1178,1.1464,1.1459,1.1277,1.0918,1.1059,1.1045,1.0877,1.0877,1.124,-0.0172,0.0,0.0,0.0,0.0,0.0,0.0,0.0,-0.007,-0.0246,0.0,0.0,0.0,0.0,0.0,0.0,0.0176,0.0,0.0,0.0,0.1745,0.1524,0.248,0.3578,0.4754,0.5492,0.6446,0.7773,0.7615,0.7726,0.835,0.8427,0.8351,0.8143,0.8156,0.7931,0.7481,0.7224,0.7069,0.6993,0.6303,0.5982,0.5982,0.5982,0.5982,0.5928,0.5534,0.4907,0.4117,0.2485,0.1174,0.0284,0.119,0.1826,0.2266,0.1958,0.157,0.0957,-0.033,-0.1467,-0.2538,-0.3813,-0.388,-0.3278,-0.2407,-0.1746,-0.1146,-0.027,0.0,0.0202,0.1079,0.2018,0.295,0.3806,0.4746,0.5428,0.5498,0.5564,0.5674,0.5813,0.5855,0.5864,0.5852,0.5734,0.5704,0.5634,0.5634,0.5634,0.5634,0.5634,0.5977,0.6809,0.7283,0.8066,0.9509,0.9983,1.0415,1.1059,1.1059,1.1059,1.1059,1.1202,1.1259,1.1411,1.1411,1.1306,1.1229,1.1229,1.1176,1.1056,1.0715,1.0832,-0.0541,-0.0185,0.0,0.0,0.0,0.0,0.0,0.0,0.0,0.0,0.0,0.0,0.0,0.0,0.0,0.0,0.0,0.0499,0.0,0.1147,0.0,0.0,0.0,0.3307,0.4915,0.5326,0.5911,0.7042,0.7146,0.7344,0.786,0.8154,0.8075,0.7612,0.7688,0.7235,0.6312,0.6312,0.6204,0.6046,0.5492,0.5218,0.5218,0.5218,0.5218,0.5164,0.4433,0.3591,0.2532,0.0446,-0.1139,-0.2272,-0.2373,-0.2205,-0.1793,-0.0938,-0.096,-0.1554,-0.1918,-0.2869,-0.4146,-0.4818,-0.4408,-0.3465,-0.2593,-0.1873,-0.1146,-0.027,0.0,0.0135,0.0809,0.1619,0.256,0.3473,0.4408,0.5156,0.5564,0.5702,0.5739,0.594,0.6022,0.6099,0.6099,0.5971,0.5821,0.5821,0.5821,0.5821,0.5821,0.5821,0.6037,0.6688,0.6978,0.7784,0.9428,0.9765,1.0362,1.1334,1.1407,1.1414,1.156,1.1533,1.1556,1.1636,1.1636,1.1616,1.1556,1.1556,1.1464,1.1416,1.0995,1.0909,-0.1493,-0.0652,0.0,0.0,0.0,0.0,0.0,0.0,0.0,0.0,0.0,0.0,0.0,0.0,0.0,0.0,0.0,0.0,0.0,0.0,0.0,0.0,0.0,0.3351,0.3995,0.4068,0.4382,0.5146,0.5203,0.5618,0.6606,0.7455,0.773,0.7347,0.7541,0.7015,0.5542,0.5538,0.5218,0.457,0.4519,0.4515,0.4515,0.4515,0.4515,0.446,0.3677,0.25,0.1055,-0.0741,-0.277,-0.4789,-0.5092,-0.5598,-0.5853,-0.2672,-0.1428,-0.153,-0.3338,-0.3944,-0.4002,-0.4002,-0.3462,-0.2593,-0.166,-0.1338,-0.1146,-0.027,0.0,0.0,0.0067,0.0674,0.1615,0.2667,0.3597,0.4544,0.5564,0.5892,0.5999,0.6015,0.618,0.6261,0.6261,0.6163,0.5915,0.5835,0.5835,0.5835,0.5835,0.5835,0.5835,0.5835,0.663,0.7508,0.8553,0.9425,1.0363,1.134,1.142,1.1586,1.1838,1.187,1.1977,1.2298,1.2298,1.2111,1.1877,1.1877,1.17,1.1423,1.141,1.1403,-0.2413,-0.1563,-0.0835,-0.0843,-0.0411,0.0,0.0,0.0,0.0,0.0,0.0,0.0,0.0,0.0,0.0,0.0,0.0,0.0,0.0,0.0,0.0,0.0,0.0,0.0,0.3763,0.4039,0.4418,0.504,0.5189,0.5626,0.6543,0.7095,0.7114,0.66,0.6839,0.6312,0.4842,0.4842,0.4732,0.4519,0.4519,0.4519,0.4519,0.4519,0.4235,0.3686,0.2296,0.087,-0.0592,-0.2334,-0.3835,-0.5098,-0.5767,-0.5886,-0.5603,-0.4543,-0.404,-0.4074,-0.4686,-0.4547,-0.4002,-0.4015,-0.3405,-0.253,-0.1607,-0.1273,-0.1107,-0.0275,0.0,0.0,0.0,0.0673,0.142,0.1789,0.2523,0.3333,0.3806,0.3912,0.3999,0.4064,0.4683,0.5226,0.5226,0.578,0.618,0.6103,0.6103,0.6103,0.6103,0.6103,0.6103,0.6103,0.6419,0.6979,0.7953,0.9557,1.0654,1.0985,1.1636,1.205,1.2137,1.2137,1.1874,1.134,1.134,1.0932,1.0205,1.0205,1.0104,1.0047,1.0047,1.0629,-0.3246,-0.2483,-0.1728,-0.1389,-0.0857,-0.0394,-0.0083,0.0,0.0,0.0,0.0,0.0,0.0,0.0,0.0,0.0,0.0,0.0,0.0,0.0937,0.0,0.0,0.0,0.0,0.0,0.3486,0.3743,0.4432,0.4596,0.5019,0.5773,0.6379,0.6433,0.5774,0.6053,0.566,0.4519,0.4519,0.4519,0.4519,0.4519,0.4349,0.4128,0.4123,0.3675,0.2872,0.1241,-0.018,-0.1469,-0.3466,-0.4846,-0.5639,-0.6264,-0.6234,-0.5881,-0.5881,-0.5686,-0.5359,-0.5024,-0.4276,-0.3467,-0.3145,-0.2474,-0.1605,-0.1009,-0.0849,-0.0741,-0.0144,0.0,0.0,0.0,0.0393,0.0943,0.1335,0.1878,0.2421,0.2909,0.299,0.2989,0.3056,0.3677,0.4142,0.4133,0.4993,0.586,0.6257,0.6338,0.6338,0.6338,0.6338,0.6338,0.6338,0.6338,0.674,0.7708,0.9332,1.0387,1.0751,1.1396,1.1797,1.1797,1.1797,1.1286,1.0265,1.0301,0.9986,0.9326,0.9326,0.9331,0.9266,0.9266,1.009]},{"header":{"parameterUnit":"m.s-1","parameterCategory":1,"la1":30.6,"la2":29.2853,"lo1":-89.7004,"lo2":-87.6739,"dy":0.0162,"dx":0.0183,"nx":112,"ny":82,"refTime":"2025-04-24T18:00:00:Z","depth":0,"parameterNumber":3,"parameterNumberName":"V-component_of_WINDS"},"data":[0.0,0.0,0.0,0.0,0.0,0.0,0.0,0.0,0.0,0.0,0.0,0.0,0.0,0.0,0.0,0.0,0.0,0.0,0.0,0.0,0.0,0.0,0.0,0.0,0.0,0.0,0.0,0.0,0.0,0.0,0.0,0.0,0.0,0.0,0.0,0.0,0.0,0.0,0.0,0.0,0.0,0.0,0.0,0.0,0.0,0.0,0.0,0.0,0.0,0.0,0.0,0.0,0.0,0.0,0.0,0.0,0.0,0.0,0.0,0.0,0.0,0.0,0.0,0.0,0.0,0.0,0.0,0.0,0.0,0.0,0.0,0.0,0.0,0.0,0.0,0.0,0.0,0.0,0.0,0.0,0.0,0.0,0.0,0.0,0.0,0.0,0.0,0.0,0.0,0.0,-0.6966,-0.745,-0.8228,-0.848,-0.7961,-0.7919,-0.7194,-0.5479,0.0,0.0,0.0,0.0,0.0,0.0,0.0,0.0,0.0,0.0,0.0,0.0,0.0,0.0,0.0,0.0,0.0,0.0,0.0,0.0,0.0,0.0,0.0,0.0,0.0,0.0,0.0,0.0,0.0,0.0,0.0,0.0,0.0,0.0,0.0,0.0,0.0,0.0,0.0,0.0,0.0,0.0,0.0,0.0,0.0,0.0,0.0,0.0,0.0,0.0,0.0,0.0,0.0,0.0,0.0,0.0,0.0,0.0,0.0,0.0,0.0,0.0,0.0,0.0,0.0,0.0,0.0,0.0,0.0,0.0,0.0,0.0,0.0,0.0,0.0,0.0,0.0,0.0,0.0,0.0,0.0,0.0,0.0,0.0,0.0,0.0,0.0,0.0,0.0,0.0,0.0,0.0,0.0,0.0,0.0,0.0,0.0,0.0,0.0,0.0,0.0,0.0,0.0,0.0,-0.7534,-0.8403,-0.8616,-0.848,-0.7961,-0.7919,-0.7264,-0.5727,0.0,0.0,0.0,0.0,0.0,0.0,0.0,0.0,0.0,0.0,0.0,0.0,0.0,0.0,0.0,0.0,0.0,0.0,0.0,0.0,0.0,0.0,0.0,0.0,0.0,0.0,0.0,0.0,0.0,0.0,0.0,0.0,0.0,0.0,0.0,0.0,0.0,0.0,0.0,0.0,0.0,0.0,0.0,0.0,0.0,0.0,0.0,0.0,0.0,0.0,0.0,0.0,0.0,0.0,0.0,0.0,0.0,0.0,0.0,0.0,0.0,0.0,0.0,0.0,0.0,0.0,0.0,0.0,0.0,0.0,0.0,0.0,0.0,0.0,0.0,0.0,0.0,0.0,0.0,0.0,0.0,0.0,0.0,0.0,0.0,0.0,0.0,0.0,0.0,0.0,0.0,0.0,0.0,0.0,0.0,0.0,0.0,0.0,0.0,0.0,0.0,0.0,0.0,-0.6416,-0.6949,-0.768,-0.7765,-0.769,-0.7447,-0.7405,-0.7019,-0.6095,-0.5709,0.0,0.0,0.0,0.0,0.0,0.0,0.0,0.0,0.0,0.0,0.0,0.0,0.0,0.0,0.0,0.0,0.0,0.0,0.0,0.0,0.0,0.0,0.0,0.0,0.0,0.0,0.0,0.0,0.0,0.0,0.0,0.0,0.0,0.0,0.0,0.0,0.0,0.0,0.0,0.0,0.0,0.0,0.0,0.0,0.0,0.0,0.0,0.0,0.0,0.0,0.0,0.0,0.0,0.0,0.0,0.0,0.0,0.0,0.0,0.0,0.0,0.0,0.0,0.0,0.0,0.0,0.0,0.0,0.0,0.0,0.0,0.0,0.0,0.0,0.0,0.0,0.0,0.0,0.0,0.0,0.0,0.0,0.0,0.0,0.0,0.0,0.0,0.0,0.0,0.0,0.0,0.0,0.0,0.0,0.0,0.0,0.0,0.0,0.0,0.0,0.0,0.0,-0.6299,-0.6491,-0.6947,-0.6979,-0.6979,-0.6979,-0.6979,-0.6799,-0.6334,-0.5973,0.0,0.0,0.0,0.0,0.0,0.0,0.0,0.0,0.0,0.0,0.0,0.0,0.0,0.0,0.0,0.0,0.0,0.0,0.0,0.0,0.0,0.0,0.0,0.0,0.0,0.0,0.0,0.0,0.0,0.0,0.0,0.0,0.0,0.0,0.0,0.0,0.0,0.0,0.0,0.0,0.0,0.0,0.0,0.0,0.0,0.0,0.0,0.0,0.0,0.0,0.0,0.0,0.0,0.0,0.0,0.0,0.0,0.0,0.0,0.0,0.0,0.0,0.0,0.0,0.0,0.0,0.0,0.0,0.0,0.0,0.0,0.0,0.0,0.0,0.0,0.0,0.0,0.0,0.0,0.0,0.0,0.0,0.0,0.0,0.0,0.0,0.0,0.0,0.0,0.0,0.0,0.0,0.0,0.0,0.0,0.0,0.0,0.0,0.0,0.0,0.0,0.0,-0.6827,-0.6954,-0.7014,-0.6979,-0.6979,-0.6979,-0.6979,-0.6799,-0.6334,-0.6157,0.0,0.0,0.0,0.0,0.0,0.0,0.0,0.0,0.0,0.0,0.0,0.0,0.0,0.0,0.0,0.0,0.0,0.0,0.0,0.0,0.0,0.0,0.0,0.0,0.0,0.0,0.0,0.0,0.0,0.0,0.0,0.0,0.0,0.0,0.0,0.0,0.0,0.0,0.0,0.0,0.0,0.0,0.0,0.0,0.0,0.0,0.0,0.0,0.0,0.0,0.0,0.0,0.0,0.0,0.0,0.0,0.0,0.0,0.0,0.0,0.0,0.0,0.0,0.0,0.0,0.0,0.0,0.0,0.0,0.0,0.0,0.0,0.0,0.0,0.0,0.0,0.0,0.0,0.0,0.0,0.0,0.0,0.0,0.0,0.0,0.0,0.0,0.0,0.0,0.0,0.0,0.0,0.0,0.0,0.0,0.0,0.0,0.0,0.0,0.0,0.0,0.0,-0.7237,-0.7329,0.0,-0.7572,-0.7405,-0.7021,-0.6979,-0.7001,-0.6982,0.0,0.0,0.0,0.0,0.0,0.0,0.0,0.0,0.0,0.0,0.0,0.0,0.0,0.0,0.0,0.0,0.0,0.0,0.0,0.0,0.0,0.0,0.0,0.0,0.0,0.0,0.0,0.0,0.0,0.0,0.0,0.0,0.0,0.0,0.0,0.0,0.0,0.0,0.0,0.0,0.0,0.0,0.0,0.0,0.0,0.0,0.0,0.0,0.0,0.0,0.0,0.0,0.0,0.0,0.0,0.0,0.0,0.0,0.0,0.0,0.0,0.0,0.0,0.0,0.0,0.0,0.0,0.0,0.0,0.0,0.0,0.0,0.0,0.0,0.0,0.0,0.0,0.0,0.0,0.0,0.0,0.0,0.0,0.0,0.0,0.0,0.0,0.0,0.0,0.0,0.0,0.0,0.0,0.0,0.0,0.0,0.0,0.0,0.0,0.0,0.0,0.0,-0.7361,-0.7684,-0.7902,0.0,-0.7995,-0.7746,-0.7321,-0.7105,-0.7008,-0.7048,0.0,0.0,0.0,0.0,0.0,0.0,0.0,0.0,0.0,0.0,0.0,0.0,0.0,0.0,0.0,0.0,0.0,0.0,0.0,0.0,0.0,0.0,0.0,0.0,0.0,0.0,0.0,0.0,0.0,0.0,0.0,0.0,0.0,0.0,0.0,0.0,0.0,0.0,0.0,0.0,0.0,0.0,0.0,0.0,0.0,0.0,0.0,0.0,0.0,0.0,0.0,0.0,0.0,0.0,0.0,0.0,0.0,0.0,0.0,0.0,0.0,0.0,0.0,0.0,0.0,0.0,0.0,0.0,0.0,0.0,0.0,0.0,0.0,0.0,0.0,0.0,0.0,0.0,0.0,0.0,0.0,0.0,0.0,0.0,0.0,0.0,0.0,0.0,0.0,0.0,0.0,0.0,0.0,0.0,0.0,0.0,0.0,0.0,0.0,0.0,0.0,0.0,-0.7455,-0.8193,-0.8716,-0.8716,-0.8234,-0.7912,-0.7919,-0.7363,-0.6799,0.0,0.0,0.0,0.0,0.0,0.0,0.0,0.0,0.0,0.0,0.0,0.0,0.0,0.0,0.0,0.0,0.0,0.0,0.0,0.0,0.0,0.0,0.0,0.0,0.0,0.0,0.0,0.0,0.0,0.0,0.0,0.0,0.0,0.0,0.0,0.0,0.0,0.0,0.0,0.0,0.0,0.0,0.0,0.0,0.0,0.0,0.0,0.0,0.0,0.0,0.0,0.0,0.0,0.0,0.0,0.0,0.0,0.0,0.0,0.0,0.0,0.0,0.0,0.0,0.0,0.0,0.0,0.0,0.0,0.0,0.0,0.0,0.0,0.0,0.0,0.0,0.0,0.0,0.0,0.0,0.0,0.0,0.0,0.0,0.0,0.0,0.0,0.0,0.0,0.0,0.0,0.0,0.0,0.0,0.0,0.0,0.0,0.0,0.0,0.0,0.0,0.0,0.0,-0.739,-0.8193,-0.8716,-0.8716,-0.8878,-0.8878,-0.848,-0.8308,-0.7896,-0.7173,0.0,0.0,0.0,0.0,0.0,0.0,0.0,0.0,0.0,0.0,0.0,0.0,0.0,0.0,0.0,0.0,0.0,0.0,0.0,0.0,0.0,0.0,0.0,0.0,0.0,0.0,0.0,0.0,0.0,0.0,0.0,0.0,0.0,0.0,0.0,0.0,0.0,0.0,0.0,0.0,0.0,0.0,0.0,0.0,0.0,0.0,0.0,0.0,0.0,0.0,0.0,0.0,0.0,0.0,0.0,0.0,0.0,0.0,0.0,0.0,0.0,0.0,0.0,0.0,0.0,0.0,0.0,0.0,0.0,0.0,0.0,0.0,0.0,0.0,0.0,0.0,0.0,0.0,0.0,0.0,0.0,0.0,0.0,0.0,0.0,0.0,0.0,0.0,0.0,0.0,0.0,0.0,0.0,0.0,0.0,0.0,0.0,0.0,0.0,0.0,0.0,0.0,-0.7471,-0.8431,-0.9119,-0.9319,-0.9588,-0.9579,-0.9079,-0.899,-0.86,-0.7662,0.0,0.0,0.0,0.0,0.0,0.0,0.0,0.0,0.0,0.0,0.0,0.0,0.0,0.0,0.0,0.0,0.0,0.0,0.0,0.0,0.0,0.0,0.0,0.0,0.0,0.0,0.0,0.0,0.0,0.0,0.0,0.0,0.0,0.0,0.0,0.0,0.0,0.0,0.0,0.0,0.0,0.0,0.0,0.0,0.0,0.0,0.0,0.0,0.0,0.0,0.0,0.0,0.0,0.0,0.0,0.0,0.0,0.0,0.0,0.0,0.0,0.0,0.0,0.0,0.0,0.0,0.0,0.0,0.0,0.0,0.0,0.0,0.0,0.0,0.0,0.0,0.0,0.0,0.0,0.0,0.0,0.0,0.0,0.0,0.0,0.0,0.0,0.0,0.0,0.0,0.0,0.0,0.0,0.0,0.0,0.0,0.0,0.0,0.0,0.0,0.0,0.0,-0.7626,-0.8772,-0.9755,-1.0235,-1.0321,-1.0186,-0.9746,-0.96,-0.91,-0.8026,0.0,0.0,0.0,0.0,0.0,0.0,0.0,0.0,0.0,0.0,0.0,0.0,0.0,0.0,0.0,0.0,0.0,0.0,0.0,0.0,0.0,0.0,0.0,0.0,0.0,0.0,0.0,0.0,0.0,0.0,0.0,0.0,0.0,0.0,0.0,0.0,0.0,0.0,0.0,0.0,0.0,0.0,0.0,0.0,0.0,0.0,0.0,0.0,0.0,0.0,0.0,0.0,0.0,0.0,0.0,0.0,0.0,0.0,0.0,0.0,-0.6086,0.0,0.0,0.0,0.0,0.0,0.0,0.0,0.0,0.0,0.0,0.0,0.0,0.0,0.0,0.0,0.0,0.0,0.0,0.0,0.0,0.0,0.0,0.0,0.0,0.0,0.0,0.0,0.0,0.0,0.0,0.0,0.0,0.0,0.0,0.0,0.0,0.0,0.0,0.0,0.0,0.0,-0.7476,-0.8992,-1.0108,-1.0196,-1.096,-1.142,-1.1319,-1.0922,-1.0281,-0.9362,-0.827,0.0,0.0,0.0,0.0,0.0,0.0,0.0,0.0,0.0,0.0,0.0,0.0,0.0,0.0,0.0,0.0,0.0,0.0,0.0,0.0,0.0,0.0,0.0,0.0,0.0,0.0,0.0,0.0,0.0,0.0,0.0,0.0,0.0,0.0,0.0,0.0,0.0,0.0,0.0,0.0,0.0,0.0,0.0,0.0,0.0,0.0,0.0,0.0,0.0,0.0,0.0,0.0,0.0,0.0,0.0,0.0,0.0,0.0,0.0,-0.7257,-0.6894,0.0,0.0,0.0,0.0,0.0,0.0,0.0,0.0,0.0,0.0,0.0,0.0,0.0,0.0,0.0,0.0,0.0,0.0,0.0,0.0,0.0,0.0,0.0,0.0,0.0,0.0,0.0,0.0,0.0,0.0,0.0,0.0,0.0,0.0,0.0,0.0,0.0,0.0,0.0,0.0,-0.8146,-0.9398,-1.0407,-1.0912,-1.1678,-1.2066,-1.1811,-1.1763,-1.1322,-1.0372,-0.9365,0.0,0.0,0.0,0.0,0.0,0.0,0.0,0.0,0.0,0.0,0.0,0.0,0.0,0.0,0.0,0.0,0.0,0.0,0.0,0.0,0.0,0.0,0.0,0.0,0.0,0.0,0.0,0.0,0.0,0.0,0.0,0.0,0.0,0.0,0.0,0.0,0.0,0.0,0.0,0.0,0.0,0.0,0.0,0.0,0.0,0.0,0.0,0.0,0.0,0.0,0.0,0.0,0.0,-0.781,-0.8052,-0.8679,-0.8845,-0.958,-1.0617,-0.8681,-0.8242,-0.8844,-0.798,0.0,0.0,0.0,0.0,0.0,0.0,0.0,0.0,0.0,0.0,0.0,0.0,0.0,0.0,0.0,0.0,0.0,0.0,0.0,0.0,0.0,0.0,-0.409,-0.3594,-0.3578,-0.3567,-0.3237,0.0,0.0,0.0,0.0,0.0,0.0,0.0,0.0,0.0,0.0,0.0,-0.913,-1.0066,-1.095,-1.1847,-1.2354,-1.2473,-1.2066,-1.2318,-1.2138,-1.1308,-1.0372,-0.9605,0.0,0.0,0.0,0.0,0.0,0.0,0.0,0.0,0.0,0.0,0.0,0.0,0.0,0.0,0.0,0.0,0.0,0.0,0.0,0.0,0.0,0.0,0.0,0.0,0.0,0.0,0.0,0.0,0.0,0.0,0.0,0.0,-0.356,-0.5136,0.0,0.0,0.0,0.0,0.0,0.0,0.0,0.0,0.0,0.0,0.0,0.0,0.0,-0.6745,-0.7586,-0.9172,-0.9229,-0.7765,-0.92,-1.0383,-1.13,-1.135,-1.1429,-1.162,-1.1552,0.0,-1.0114,-0.9539,0.0,0.0,0.0,0.0,0.0,0.0,0.0,0.0,0.0,0.0,0.0,0.0,0.0,0.0,0.0,0.0,0.0,0.0,0.0,0.0,0.0,0.0,-0.5097,-0.5042,-0.5024,-0.5024,-0.4983,-0.4294,-0.3745,-0.3851,-0.4753,-0.5554,0.0,0.0,0.0,0.0,0.0,0.0,-1.0088,-1.1382,-1.2234,-1.2389,-1.2838,-1.3082,-1.3012,-1.2685,-1.2425,-1.2318,-1.1072,-1.0109,-0.9632,-0.8668,0.0,0.0,0.0,0.0,0.0,0.0,0.0,0.0,0.0,0.0,0.0,0.0,0.0,0.0,0.0,0.0,0.0,0.0,0.0,0.0,0.0,0.0,0.0,0.0,0.0,0.0,0.0,0.0,0.0,-0.3745,-0.4101,-0.4387,-0.459,-0.4573,0.0,0.0,0.0,0.0,0.0,0.0,0.0,0.0,0.0,-0.8134,-0.7633,-0.8201,-0.9989,-1.0196,-1.0186,-0.9994,-1.0787,-1.1361,-1.182,-1.2707,-1.2896,-1.2615,-1.299,-1.2702,-1.1906,-1.1114,-1.0382,-0.9657,0.0,0.0,0.0,0.0,-0.8598,-0.8916,-0.9432,-0.9627,-0.9552,-0.9152,0.0,0.0,0.0,0.0,0.0,0.0,0.0,-0.6034,-0.5989,-0.5967,-0.5843,-0.5401,-0.5551,-0.5754,-0.5754,-0.567,-0.5521,-0.5234,-0.5752,-0.6269,-0.6323,-0.6998,0.0,0.0,0.0,-1.0068,-1.107,-1.1966,-1.2615,-1.2873,-1.3094,-1.3198,-1.3198,-1.3012,-1.2791,-1.2508,-1.193,-1.1242,-1.0456,-0.9605,-0.8642,0.0,0.0,0.0,0.0,0.0,0.0,0.0,0.0,0.0,0.0,0.0,0.0,0.0,0.0,0.0,0.0,0.0,0.0,0.0,0.0,0.0,0.0,0.0,0.0,0.0,0.0,0.0,0.0,-0.4509,-0.4603,-0.4309,-0.5125,-0.5561,0.0,0.0,0.0,0.0,0.0,0.0,-0.7987,-0.8619,-0.9366,-1.0298,-0.9291,-0.9724,-1.1757,-1.1314,-1.1433,-1.2151,-1.2166,-1.2399,-1.2867,-1.4007,-1.4299,-1.3859,-1.408,-1.3941,-1.356,-1.2516,-1.1745,-1.1172,-1.0803,-1.0355,-0.9944,-1.0082,-1.0194,-1.0383,-1.1058,-1.1284,-1.1205,-1.0786,-1.0644,-1.0541,-1.0009,0.0,0.0,0.0,0.0,-0.729,-0.7249,-0.7241,-0.706,-0.6349,-0.6548,-0.6899,-0.6793,-0.7121,-0.7291,-0.6667,-0.7021,-0.7391,-0.7254,-0.8218,0.0,-0.8976,-1.0026,-1.1104,-1.1888,-1.2409,-1.2803,-1.3163,-1.3198,-1.3198,-1.3198,-1.3198,-1.3012,-1.2544,-1.2401,-1.1909,-1.1057,-1.0251,-0.9589,-0.9004,0.0,0.0,0.0,0.0,0.0,0.0,0.0,0.0,0.0,0.0,0.0,0.0,0.0,0.0,0.0,0.0,0.0,0.0,0.0,0.0,0.0,0.0,0.0,0.0,0.0,0.0,0.0,0.0,0.0,-0.6209,-0.6308,0.0,0.0,0.0,0.0,-0.8223,-1.0032,-1.0786,-1.0003,-1.0935,-1.1735,-1.2248,-1.1825,-1.1663,-1.179,-1.262,-1.3085,-1.3132,-1.3137,-1.4006,-1.5595,-1.5673,-1.5719,-1.5627,-1.5107,-1.4854,-1.4727,-1.3591,-1.3104,-1.293,-1.1809,-1.1599,-1.1883,-1.1257,-1.1273,-1.1623,-1.1741,-1.1766,-1.1687,-1.1227,-1.1039,-1.1053,-1.1441,-1.1216,0.0,0.0,-1.013,-0.94,-0.928,-0.9261,-0.9121,-0.8659,-0.8884,-0.9098,-0.8659,-0.8629,-0.8528,-0.7853,-0.86,-0.9214,-0.8755,0.0,-1.0312,-1.0312,-1.1126,-1.19,-1.2389,-1.2849,-1.3163,-1.3198,-1.3198,-1.3198,-1.3198,-1.3198,-1.3012,-1.2544,-1.2066,-1.1579,-1.1019,-1.0532,-0.9871,-0.9023,-0.7813,0.0,0.0,0.0,0.0,0.0,0.0,0.0,0.0,0.0,0.0,0.0,0.0,0.0,0.0,0.0,0.0,0.0,0.0,0.0,0.0,0.0,0.0,0.0,0.0,0.0,0.0,0.0,0.0,-0.7698,-0.8233,0.0,-0.8759,-0.9276,-0.9649,-0.9738,-1.1431,-1.2244,-1.1606,-1.2527,-1.2984,-1.2839,-1.3317,-1.3272,-1.2725,-1.3019,-1.3762,-1.4874,-1.4883,-1.522,-1.5811,-1.5806,-1.5581,-1.5213,-1.5077,-1.4885,-1.4602,-1.4197,-1.3881,-1.3598,-1.317,-1.2935,-1.2772,-1.2543,-1.2545,-1.2685,-1.2695,-1.2685,-1.2649,-1.2503,-1.2809,-1.3229,-1.3148,-1.2763,-1.2349,-1.2307,-1.1404,-1.0413,-1.0376,-1.0367,-1.0253,-0.972,-0.9983,-1.0329,-1.0147,-1.0116,-1.0198,-1.0348,-1.0226,-1.0116,-1.0266,-1.1105,-1.164,-1.1354,-1.2111,-1.2756,-1.2918,-1.3094,-1.3198,-1.3198,-1.3198,-1.3198,-1.3198,-1.3198,-1.3129,-1.2943,-1.2791,-1.2461,-1.1982,-1.1505,-1.0946,-1.0293,-0.8694,-0.7408,0.0,0.0,0.0,0.0,0.0,0.0,0.0,0.0,0.0,0.0,0.0,0.0,0.0,0.0,0.0,0.0,0.0,0.0,0.0,0.0,0.0,0.0,0.0,0.0,0.0,0.0,-0.8818,-0.914,-0.9753,-1.02,-1.0286,-1.1095,-1.1723,-1.1989,-1.3181,-1.3782,-1.3441,-1.4065,-1.4245,-1.3938,-1.4595,-1.4665,-1.407,-1.4956,-1.5984,-1.7131,-1.6641,-1.6361,-1.6237,-1.6229,-1.5959,-1.5518,-1.5587,-1.5612,-1.5549,-1.535,-1.5156,-1.4935,-1.4343,-1.3901,-1.3648,-1.3648,-1.3648,-1.3648,-1.3648,-1.3799,-1.3968,-1.3968,-1.4513,-1.5142,-1.4843,-1.4532,-1.4219,-1.4024,-1.3132,-1.2204,-1.2025,-1.1979,-1.1797,-1.1276,-1.152,-1.1796,-1.1491,-1.1417,-1.1513,-1.1945,-1.1408,-1.0963,-1.1281,-1.1989,-1.233,-1.1828,-1.2586,-1.3135,-1.2947,-1.3085,-1.3198,-1.3198,-1.3198,-1.3198,-1.3198,-1.292,-1.2815,-1.2965,-1.2667,-1.2423,-1.2282,-1.1786,-1.1264,-1.0825,-0.8939,-0.7427,-0.6289,0.0,0.0,0.0,0.0,0.0,0.0,0.0,0.0,0.0,0.0,0.0,0.0,0.0,0.0,0.0,0.0,0.0,0.0,0.0,0.0,0.0,0.0,0.0,-0.9108,-0.9499,-0.9983,-1.0512,-1.0821,-1.14,-1.2462,-1.3239,-1.4042,-1.4959,-1.533,-1.5529,-1.5529,-1.5604,-1.5634,-1.5619,-1.5739,-1.5847,-1.5894,-1.8434,-1.9667,-1.9682,-1.8354,-1.7492,-1.712,-1.712,-1.6984,-1.6741,-1.6741,-1.71,-1.7637,-1.701,-1.6878,-1.6958,-1.5198,-1.4515,-1.4529,-1.4515,-1.4501,-1.4501,-1.4515,-1.498,-1.5499,-1.5527,-1.5999,-1.6544,-1.6508,-1.6508,-1.6403,-1.5878,-1.5358,-1.4853,-1.4323,-1.4124,-1.3961,-1.3435,-1.3614,-1.365,-1.273,-1.2519,-1.2519,-1.2579,-1.2186,-1.1847,-1.1847,-1.221,-1.233,-1.183,-1.2577,0.0,-1.2504,-1.2872,-1.3185,-1.3173,-1.3173,-1.3173,-1.3173,-1.2326,-1.2005,-1.2472,-1.163,-1.134,-1.1788,-1.1233,-1.0734,-1.0368,-0.8567,-0.6796,-0.5157,0.0,0.0,0.0,0.0,0.0,0.0,0.0,0.0,0.0,0.0,0.0,0.0,0.0,0.0,0.0,0.0,0.0,0.0,0.0,0.0,0.0,-1.1032,-1.0868,-0.9702,-1.0505,-1.1502,-1.2302,-1.2675,-1.3251,-1.4218,-1.4713,-1.5067,-1.5344,-1.5758,-1.601,-1.601,-1.6071,-1.6138,-1.6175,-1.5935,-1.6539,-1.8102,-1.9165,-1.9594,-1.9327,-1.8585,-1.796,-1.7552,-1.7552,-1.749,-1.7428,-1.7428,-1.7518,-1.7682,-1.7488,-1.7453,-1.7353,-1.5624,-1.5051,-1.5161,-1.4685,-1.4501,-1.457,-1.5064,-1.5525,-1.598,-1.6151,-1.6727,-1.7338,-1.7006,-1.6938,-1.6904,-1.6766,-1.6626,-1.6383,-1.5955,-1.6054,-1.6219,-1.6055,-1.6112,-1.6113,-1.5851,-1.5435,-1.5012,-1.4708,-1.395,-1.3216,-1.2861,-1.2908,-1.2963,-1.2815,-1.3029,-1.3148,-1.2998,-1.311,-1.3048,-1.2647,-1.263,-1.263,-1.263,-1.2394,-1.2298,-1.2508,-1.226,-1.2035,-1.1811,-1.1263,-1.0596,-0.9772,-0.8422,-0.7319,0.0,0.0,0.0,0.0,0.0,0.0,0.0,0.0,0.0,0.0,0.0,0.0,0.0,0.0,0.0,0.0,0.0,0.0,0.0,0.0,0.0,0.0,-1.2167,-1.2283,-1.1465,-1.2246,-1.3128,-1.3801,-1.4169,-1.4679,-1.5418,-1.5814,-1.6057,-1.6233,-1.6636,-1.6862,-1.6862,-1.6914,-1.6857,-1.6692,-1.6382,-1.6921,-1.8442,-1.8919,-1.9247,-1.9427,-1.9098,-1.8654,-1.81,-1.81,-1.81,-1.81,-1.81,-1.8283,-1.8523,-1.8253,-1.8298,-1.8384,0.0,0.0,0.0,0.0,-1.5848,-1.5906,-1.6297,-1.6746,-1.7236,-1.7607,-1.8081,-1.8572,-1.8679,-1.8597,-1.8429,-1.8414,-1.8388,-1.8276,-1.7824,-1.797,-1.8188,-1.8188,-1.8161,-1.8053,-1.79,-1.709,-1.6254,-1.5823,-1.4757,0.0,-1.3547,-1.3323,-1.3123,-1.2885,-1.3048,-1.3123,-1.2885,-1.306,-1.3073,-1.276,-1.2722,-1.2656,-1.2476,-1.2089,0.0,0.0,0.0,-1.1567,-1.1425,-1.0992,0.0,0.0,0.0,0.0,0.0,0.0,0.0,0.0,-0.4106,-0.4174,0.0,0.0,0.0,0.0,0.0,0.0,0.0,0.0,0.0,0.0,0.0,0.0,0.0,0.0,0.0,0.0,-1.268,-1.3434,-1.3861,-1.4387,-1.4795,-1.5109,-1.5431,-1.5839,-1.6322,-1.6677,-1.702,-1.7422,-1.7732,-1.7883,-1.7883,0.0,0.0,0.0,0.0,-1.7249,-1.7944,-1.8343,-1.8992,-1.9909,-1.9782,-1.9411,-1.8876,-1.8841,-1.8807,-1.8807,-1.8807,-1.9151,-1.963,-1.9061,-1.9151,-1.9555,-1.8328,-1.7757,-1.773,-1.7747,-1.7762,-1.773,-1.7837,0.0,0.0,-1.9282,-1.9577,-1.9909,-2.0698,-2.0665,-2.0366,-2.0304,-2.0307,-2.0258,-1.9771,-1.9781,-1.9952,-1.9952,-1.9904,-1.9751,-1.9295,-1.814,-1.6984,-1.6467,-1.5145,-1.4071,-1.4052,-1.3581,-1.3035,-1.258,-1.2885,-1.3023,-1.2534,-1.2897,-1.3138,-1.3042,-1.3029,0.0,-1.2342,-1.1561,-1.1271,-1.1667,-1.0859,-1.0517,-1.0823,-1.0552,-1.0123,-0.9512,-0.9087,-0.8849,-0.8797,-0.7702,-0.7161,-0.7051,-0.5395,-0.4765,0.0,0.0,0.0,0.0,0.0,0.0,0.0,0.0,0.0,0.0,0.0,0.0,0.0,0.0,0.0,-1.5233,-1.4848,-1.4818,-1.5795,-1.6317,-1.6432,-1.6025,-1.6253,-1.6722,-1.7363,-1.7693,-1.8031,-1.8333,-1.841,-1.845,-1.845,-1.798,-1.7805,-1.7967,-1.7798,-1.8281,-1.9531,-1.9322,-1.9893,-2.1228,-2.0208,0.0,-1.9993,-1.9642,-1.9495,-1.9495,-1.9495,-1.957,-1.9675,-1.9555,-1.957,-1.9615,-1.8822,-1.8194,-1.7762,-1.8129,-1.8035,-1.7822,-1.8742,-1.8933,-1.8792,-1.9421,-1.9908,-2.0227,-2.0382,-2.0616,0.0,-2.0846,-2.1086,-2.1289,-2.1129,-2.1348,-2.1642,-2.1642,-2.181,-2.1831,-2.1205,-2.0191,-1.9098,-1.8128,-1.6488,-1.5197,-1.4892,-1.3934,-1.316,-1.306,-1.3135,-1.316,-1.3048,-1.3135,-1.2886,-1.2061,-1.1979,-1.1765,-1.1262,-1.1034,-1.1014,-1.1137,-1.0644,-1.0348,-1.0414,-1.0338,-1.0271,-1.0108,-0.9635,-0.9358,-0.9359,-0.8707,-0.8144,-0.769,-0.642,-0.5891,0.0,0.0,0.0,0.0,0.0,0.0,0.0,0.0,0.0,0.0,0.0,-1.1674,-1.2129,0.0,-1.5785,-1.5756,-1.5701,-1.5967,-1.6815,-1.7327,-1.7457,-1.6995,-1.7245,-1.7512,-1.7721,-1.8023,-1.8426,-1.8956,-1.9112,-1.9131,-1.9012,-1.907,-1.8927,-1.8562,-1.8659,-1.9203,-2.0244,-1.9895,-2.0241,-2.1275,-2.0665,-2.0465,-2.0649,-2.0431,-2.0243,-2.0,-2.0,-1.9874,-1.969,-1.969,-1.969,-1.966,-1.9316,-1.9001,-1.8736,-1.9208,-1.9192,-1.9122,-1.9922,-2.0047,-1.9929,-2.0237,-2.033,-2.0382,-2.083,-2.0975,-2.1086,-2.1524,-2.1878,-2.2141,-2.2107,-2.2496,-2.2895,-2.2895,-2.2639,-2.2244,-2.1928,-2.0441,-1.9033,-1.8506,-1.689,-1.5563,-1.5389,-1.4537,-1.3769,-1.3581,-1.3357,-1.3198,-1.3198,-1.3198,-1.2914,-1.2174,-1.2116,-1.1896,-1.1393,-1.1096,-1.0951,-1.0998,-1.0572,-1.039,-1.0649,-1.0428,-1.0544,-1.1029,-1.0302,-1.003,-1.0244,-0.9469,-0.8958,-0.8675,-0.7848,-0.714,0.0,0.0,0.0,0.0,0.0,0.0,0.0,0.0,-1.0548,-1.3141,-1.3289,-1.33,-1.4446,-1.5779,-1.6547,-1.6025,-1.6459,-1.7067,-1.7693,-1.8089,-1.8231,-1.8025,-1.8156,-1.8208,-1.8057,-1.8229,-1.8615,-1.9269,-1.9666,-1.9737,-1.9468,-2.0107,-2.0067,-1.9226,-1.9621,-2.0086,-2.0638,-2.041,-2.0632,-2.126,-2.1071,-2.1023,-2.1118,-2.1039,-2.0797,-2.0449,-2.0348,-2.0124,-1.9803,-1.9711,-1.9747,-1.9818,-1.9818,-1.9874,-1.998,-2.033,-2.0449,-2.0516,-2.0959,-2.1055,-2.0991,-2.0991,-2.0797,-2.0667,-2.1383,-2.1446,-2.1401,-2.2106,-2.25,-2.2721,-2.2772,-2.3253,-2.3656,-2.343,-2.2779,-2.2109,-2.1771,-2.0058,-1.856,-1.8434,-1.7013,-1.5818,-1.5749,-1.5092,-1.4438,-1.3967,-1.3581,-1.3301,-1.3198,-1.3198,-1.3012,-1.2544,-1.2508,-1.233,-1.1847,-1.1394,-1.1169,-1.1169,-1.0802,-1.0764,-1.1132,-1.0802,-1.0916,-1.1627,-1.084,-1.0572,-1.0867,-1.0069,-0.9597,-0.9478,-0.9039,-0.83,0.4048,-0.1793,-0.6133,-0.9109,-1.0142,-1.0648,0.0,0.0,-1.1764,-1.3302,-1.4899,-1.6193,-1.6836,-1.7611,-1.8265,-1.8515,-1.836,-1.8412,-1.9074,-1.9124,-1.907,-1.9038,-1.8753,-1.8641,-1.8861,-1.8896,-1.895,-1.904,-1.9686,-1.9951,-1.9676,-2.0135,-2.0373,-2.0239,-2.0739,-2.1066,-2.1107,-2.1317,-2.1681,-2.2152,-2.1354,-2.1181,-2.1521,-2.115,-2.0959,-2.0894,-2.0483,-2.028,-2.0227,-1.9839,-1.9909,-2.0212,-2.0212,-2.0483,-2.0862,-2.091,-2.0926,-2.0991,-2.1399,-2.1306,-2.0991,-2.0991,-2.1213,-2.146,-2.1582,-2.1869,-2.218,-2.2282,-2.25,-2.2772,-2.3069,-2.3414,-2.3469,-2.2513,-2.2407,-2.2135,-2.057,-1.9756,-1.9098,-1.851,-1.7462,-1.6565,-1.627,-1.5565,-1.4783,-1.4032,-1.3868,-1.3682,-1.3267,-1.3198,-1.3012,-1.2544,-1.2508,-1.233,-1.1847,-1.1737,-1.17,-1.17,-1.1664,-1.1664,-1.17,-1.1664,-1.1479,-1.1094,-1.0981,-1.0753,-1.039,-1.0283,-0.9961,-0.9478,-0.9439,-0.9079,-0.3766,-0.8236,-0.9685,-1.1677,-1.1652,-1.1429,-1.2299,-1.2615,-1.3144,-1.4616,-1.6022,-1.7224,-1.8025,-1.8896,-1.9601,0.0,-2.028,-2.0628,-2.1033,-2.0632,-2.0311,-2.0311,-1.9634,-1.9064,-1.8789,-1.8914,-1.9199,-1.965,-1.9993,-2.0045,-1.9757,-2.062,-2.0808,-2.0201,-2.1247,-2.1837,-2.1837,-2.1938,-2.2106,-2.2282,-2.1915,-2.184,-2.2003,-2.184,-2.1615,-2.1306,-2.0616,-2.0314,-2.028,-1.9874,-1.9929,-2.0314,-2.0314,-2.0748,-2.1337,-2.1337,-2.1337,-2.1399,-2.184,-2.1915,-2.1721,-2.1446,-2.146,-2.1582,-2.1582,-2.1718,-2.1957,-2.2209,-2.25,-2.2721,-2.2855,-2.2847,-2.2642,-2.2211,-2.1387,-2.0537,-1.9803,-1.9013,-1.8325,-1.7839,-1.7237,-1.6686,-1.6355,-1.5854,-1.5225,-1.4374,-1.4052,-1.3735,-1.3267,-1.3198,-1.3012,-1.2544,-1.2508,-1.2437,-1.221,-1.221,-1.221,-1.221,-1.1957,-1.192,-1.221,-1.1957,-1.1957,-1.227,-1.1457,-1.1057,-1.118,-1.0582,-1.0166,-0.9961,-0.9961,-0.9843,-0.9066,-1.2083,-1.1655,-1.2782,-1.2762,-1.2679,-1.3495,-1.4055,-1.4737,-1.5968,-1.7042,-1.8011,-1.8814,-1.9792,-2.0564,-2.0866,-2.1556,-2.2147,-2.241,-2.1703,-2.1095,-2.1004,-2.0097,-1.9286,-1.8753,-1.8931,-1.9304,-1.9831,-2.0191,-2.0253,-1.9991,-2.1131,-2.1439,-2.067,-2.1735,-2.231,-2.231,-2.231,-2.231,-2.231,-2.231,-2.231,-2.231,-2.231,-2.2106,-2.1764,-2.1007,-2.0667,-2.0634,-2.0227,-2.0296,-2.0667,-2.0667,-2.1023,-2.1582,-2.1582,-2.1688,-2.1823,-2.218,-2.231,-2.2237,-2.1899,-2.1794,-2.1794,-2.1794,-2.1794,-2.1853,-2.2209,-2.25,-2.2695,-2.2695,-2.2544,-2.2268,-2.1776,-2.067,-1.9569,-1.9065,-1.8346,-1.7704,-1.7368,-1.7027,-1.6686,-1.6355,-1.6011,-1.5551,-1.4783,-1.431,-1.3868,-1.3267,-1.3198,-1.3082,-1.272,-1.2685,-1.2685,-1.2685,-1.2579,-1.2508,-1.2508,-1.2066,-1.1957,-1.2282,-1.2102,-1.2174,-1.2603,-1.1689,-1.1282,-1.1367,-1.0659,-1.0283,-1.0283,-1.0283,-1.0283,-0.9467,-1.1854,-1.2291,-1.3245,-1.3891,-1.4505,-1.5242,-1.6042,-1.669,-1.6994,-1.8064,-1.9044,-1.9332,-2.0189,-2.1009,-2.1414,-2.188,-2.2315,-2.2738,-2.1914,-2.1145,-2.0768,-1.9822,-1.9157,0.0,-1.9182,-1.9214,-1.9037,-2.0121,-2.0657,-2.0396,-2.1591,-2.226,-2.2243,-2.2293,-2.231,-2.231,-2.231,-2.231,-2.231,-2.231,-2.231,-2.231,-2.231,-2.2282,-2.2237,-2.1764,-2.1552,-2.1521,-2.1118,-2.1213,-2.1552,-2.1552,-2.1582,-2.1582,-2.1582,-2.1899,-2.2282,-2.2282,-2.231,-2.231,-2.2282,-2.2282,-2.2282,-2.2282,-2.2282,-2.2282,-2.2282,-2.25,-2.2695,-2.2695,-2.293,-2.2712,-2.0958,-2.0524,-1.9999,-1.824,-1.7828,-1.7704,-1.7368,-1.7027,-1.6686,-1.6355,-1.6011,-1.5639,-1.5165,-1.4752,-1.4181,-1.3288,-1.3198,-1.3198,-1.3198,-1.3163,-1.3163,-1.3163,-1.2756,-1.2508,-1.2508,-1.2066,-1.1811,-1.1811,-1.2246,-1.2018,-1.1094,-1.1542,-1.1292,-1.0361,-1.0322,-1.0283,-1.0283,-1.0283,-1.0283,-0.8441,-1.1767,-1.3318,-1.531,-1.5737,-1.5971,-1.7107,-1.7633,-1.8081,-1.8692,-1.8758,-1.8743,-1.902,-1.9893,-2.0794,-2.1509,-2.2596,-2.3556,-2.4228,-2.3542,-2.2785,-2.2286,-2.102,0.0,0.0,0.0,0.0,-1.8984,-1.9043,-1.9243,-1.9658,-2.0381,-2.1025,-2.1549,-2.204,-2.231,-2.231,-2.231,-2.231,-2.231,-2.231,-2.231,-2.231,-2.231,-2.231,-2.2265,-2.1794,-2.1582,-2.1552,-2.115,-2.1086,-2.1213,-2.1213,-2.1213,-2.1213,-2.1213,-2.1291,-2.1462,-2.1462,-2.1462,-2.1493,-2.1735,-2.184,-2.1899,-2.2209,-2.2426,-2.2527,-2.2349,-2.25,-2.266,-2.2473,-2.2141,-2.1584,-2.0448,-1.9792,-1.9137,-1.8037,-1.7811,-1.7635,-1.7093,-1.6892,-1.6607,-1.6052,-1.5885,-1.5639,-1.5165,-1.4752,-1.431,-1.3735,-1.3648,-1.3648,-1.3648,-1.3391,-1.3198,-1.3198,-1.3047,-1.2943,-1.2943,-1.2508,-1.2246,-1.2246,-1.2102,-1.1884,-1.1542,-1.1356,-1.1094,-1.0764,-1.0467,-1.0283,-1.0283,-1.0283,-1.0283,-0.5104,-1.1575,-1.6903,-1.7404,-1.7701,-1.8162,-1.928,-1.9382,-1.9376,-1.9995,-1.9249,-1.8581,-1.8839,-1.9666,-2.0508,-2.1138,-2.2459,-2.3721,-2.4563,-2.392,-2.3291,-2.3092,-2.1761,-2.0906,0.0,0.0,0.0,-1.9628,-1.9356,-1.9436,-2.005,-2.0391,-2.0881,-2.1566,-2.2057,-2.231,-2.231,-2.231,-2.231,-2.231,-2.231,-2.231,-2.231,-2.231,-2.231,-2.2282,-2.1974,-2.1853,-2.1823,-2.1584,-2.1354,-2.1213,-2.1213,-2.1118,-2.0959,-2.0829,-2.0764,-2.0748,-2.0926,-2.0991,-2.1055,-2.146,-2.1582,-2.1688,-2.2163,-2.2426,-2.2527,-2.2349,-2.2426,-2.2527,-2.2349,-2.1752,-2.0991,-2.0187,-1.9452,-1.8667,-1.7809,-1.7704,-1.7612,-1.6942,-1.6789,-1.6633,-1.6067,-1.5983,-1.5826,-1.536,-1.5286,-1.5062,-1.4365,-1.42,-1.4168,-1.4269,-1.3921,-1.3615,-1.3459,-1.3263,-1.3091,-1.2943,-1.2508,-1.2174,-1.1982,-1.1847,-1.1627,-1.1255,-1.1094,-1.0905,-1.0764,-1.0467,-1.0283,-1.0283,-1.0283,-1.0283,0.016,-1.0763,-2.1507,-1.9329,-1.9735,-2.0898,-2.1653,-2.1187,-2.0637,-2.0836,-1.9606,-1.8535,0.0,0.0,-2.0069,-2.0322,-2.163,-2.2918,-2.378,-2.3217,-2.2845,0.0,0.0,0.0,0.0,0.0,0.0,-2.0833,0.0,-2.1044,-2.1462,-2.1541,-2.182,-2.2282,-2.2293,-2.2293,-2.231,-2.231,-2.231,-2.231,-2.231,-2.231,-2.231,-2.231,-2.231,-2.231,-2.231,-2.231,-2.231,-2.231,-2.2003,-2.1582,-2.1582,-2.1337,-2.0862,-2.0449,-2.028,-2.028,-2.0748,-2.0894,-2.0991,-2.1399,-2.1521,-2.1612,-2.2106,-2.2282,-2.231,-2.231,-2.231,-2.231,-2.2282,-2.1708,-2.0948,-2.0119,-1.9386,-1.8555,-1.7493,-1.7526,-1.7566,-1.6892,-1.6763,-1.6659,-1.6355,-1.6301,-1.6145,-1.5734,-1.6305,-1.6374,-1.5198,-1.4772,-1.4693,-1.5003,-1.471,-1.4342,-1.3934,-1.3437,-1.2948,-1.2567,-1.2102,-1.1579,-1.1057,-1.1505,-1.1292,-1.0322,-1.0715,-1.0725,-1.0283,-1.0244,-1.0235,-1.0244,-1.0235,-1.0205,0.2088,-0.2887,-0.8609,-1.9814,-2.2381,-2.2137,-2.2039,-2.1915,-2.1632,-2.0828,-1.9311,-1.7947,0.0,0.0,0.0,-1.9724,-2.1498,0.0,-2.3933,-2.4151,0.0,-2.3633,0.0,-2.2123,-2.2294,-2.1455,0.0,0.0,-2.0874,-2.0534,-2.1232,-2.149,-2.1822,-2.2293,-2.25,-2.25,-2.231,-2.231,-2.231,-2.231,-2.231,-2.231,-2.231,-2.231,-2.231,-2.231,-2.231,-2.231,-2.231,-2.231,-2.1857,-2.1181,-2.1491,-2.0943,-2.005,-2.0212,-1.9849,-1.9273,-1.9383,-1.9702,-2.0104,-2.0516,-2.0634,-2.0765,-2.1568,-2.1965,-2.2164,-2.2248,-2.2243,-2.2091,-2.1836,-2.1042,-2.0101,-1.937,-1.8654,-1.7938,-1.7113,-1.6977,-1.6942,-1.6501,-1.6219,-1.6123,-1.6274,-1.6301,-1.634,-1.647,-1.667,-1.6575,-1.5985,-1.5563,-1.536,-1.5432,-1.488,-1.4342,-1.3934,-1.3776,-1.3488,-1.3047,-1.2579,-1.2102,-1.1627,-1.1356,-1.0905,-1.0322,-1.003,-1.003,-1.0283,-0.9478,-0.9319,-0.9677,-0.9279,-0.9119,0.2191,0.0,-0.2157,-1.1212,-1.6882,-2.0183,-1.9953,-1.9593,-1.909,-1.8459,-1.7949,-1.7422,-1.6816,-1.7344,-1.8114,0.0,0.0,0.0,-2.3014,-2.3576,-2.3837,0.0,-2.3102,0.0,-2.2825,-2.2116,-2.1854,0.0,-2.1437,-2.1133,-2.1651,-2.191,-2.2108,-2.2293,-2.2563,-2.2573,-2.231,-2.231,-2.231,-2.231,-2.231,-2.231,-2.231,-2.231,-2.231,-2.231,-2.231,-2.231,-2.231,-2.231,-2.1886,-2.1275,-2.1521,-2.1039,-2.0243,-2.0058,-1.9671,-1.9163,-1.8954,-1.9095,-1.9427,-1.9849,-2.0128,-2.0467,-2.1337,-2.1744,-2.1948,-2.222,-2.2084,-2.1845,-2.1642,-2.0573,-1.9404,-1.9004,-1.8367,-1.7716,-1.7144,-1.7146,-1.6981,-1.6148,-1.5904,-1.5832,-1.5981,-1.613,-1.6389,-1.6738,-1.7043,-1.7085,-1.6735,-1.6369,-1.6126,-1.6126,-1.5433,-1.4772,-1.4214,-1.4,-1.3715,-1.3232,-1.2756,-1.2282,-1.1811,-1.1282,-1.0802,-1.0322,-1.0,-0.9883,-0.9961,-0.9359,-0.9079,-0.9159,-0.8837,-0.8716,0.1505,0.0547,0.0918,0.0202,-0.768,-1.5444,-1.6193,-1.5862,-1.5305,-1.5016,-1.6105,-1.6973,-1.6602,-1.7109,-1.7635,-1.7872,0.0,-2.0983,-2.1723,-2.2455,-2.3035,-2.343,-2.3275,-2.3082,-2.2952,-2.2556,-2.231,-2.231,-2.222,-2.2231,-2.2332,-2.2609,-2.266,-2.2415,-2.2563,-2.251,-2.2209,-2.2282,-2.2282,-2.2209,-2.2209,-2.2237,-2.231,-2.2237,-2.2237,-2.231,-2.231,-2.231,-2.231,-2.231,-2.2032,-2.1628,-2.1658,-2.1368,-2.0829,-2.0078,-1.9692,-1.9477,-1.9103,-1.8991,-1.9066,-1.9492,-1.9884,-2.0382,-2.1197,-2.146,-2.1598,-2.2003,-2.184,-2.1491,-2.146,-2.0104,-1.8801,-1.8847,-1.8266,-1.7619,-1.7418,-1.7519,-1.7273,-1.5921,-1.5821,-1.5915,-1.5876,-1.6189,-1.655,-1.6881,-1.7461,-1.7713,-1.7288,-1.7027,-1.6841,-1.6722,-1.6056,-1.5272,-1.4501,-1.4084,-1.3715,-1.3232,-1.2756,-1.2282,-1.1811,-1.1282,-1.0802,-1.0322,-1.0235,-1.0,-0.9597,-0.9478,-0.9159,-0.8675,-0.8643,-0.8553,0.2204,0.3373,0.5758,0.1151,-0.2782,-0.6755,-1.1467,-1.4038,0.0,-1.2986,-1.4997,-1.6797,-1.5801,-1.6309,-1.7016,-1.7435,-1.943,-2.1053,-2.138,-2.2574,-2.3417,0.0,-2.2979,-2.2797,-2.2737,-2.2473,0.0,0.0,-2.2466,-2.2617,-2.2634,-2.3189,-2.3369,-2.3063,-2.2624,-2.2175,-2.1735,-2.2106,-2.2106,-2.1718,-2.1718,-2.1928,-2.2282,-2.1899,-2.1928,-2.231,-2.231,-2.231,-2.231,-2.231,-2.2032,-2.1658,-2.2032,-2.1477,-2.0449,-2.0682,-2.0008,-1.9066,-1.9368,-1.9477,-1.9492,-1.9645,-1.9747,-1.9909,-2.0382,-2.0781,-2.1118,-2.1197,-2.1166,-2.1023,-2.0649,-1.9292,-1.819,-1.8643,-1.7885,-1.7166,-1.7535,-1.7312,-1.6857,-1.6152,-1.6394,-1.6809,-1.7122,-1.7547,-1.7815,-1.765,-1.7945,-1.7904,-1.6981,-1.7076,-1.6969,-1.6369,-1.5874,-1.5168,-1.4117,-1.3934,-1.3715,-1.3232,-1.2756,-1.2282,-1.1811,-1.1282,-1.0802,-1.0322,-0.9883,-0.9795,-1.0157,-0.9279,-0.8797,-0.8683,-0.8234,-0.778,1.254,0.9668,0.8344,0.8536,0.6109,0.2845,-0.0279,0.0,0.0,-0.6427,-0.7488,-0.9671,-1.4512,-1.5734,0.0,-1.6319,-1.8061,-1.9684,-2.0561,-2.1434,-2.2159,-2.266,-2.2712,-2.2634,-2.25,-2.2388,-2.231,-2.231,-2.2537,-2.2634,-2.25,-2.2798,-2.2958,-2.2947,-2.2517,-2.218,-2.1974,-2.218,-2.2061,-2.1582,-2.1582,-2.1598,-2.1631,-2.1385,-2.1538,-2.1928,-2.1928,-2.2061,-2.231,-2.231,-2.218,-2.2003,-2.2209,-2.1764,-2.0927,-2.0668,-2.0012,-1.9236,-1.891,-1.917,-1.9621,-1.9651,-1.9808,-2.0124,-2.0765,-2.0975,-2.1023,-2.1244,-2.115,-2.0829,-2.0112,-1.893,-1.787,-1.787,-1.7426,-1.7056,-1.732,-1.7236,-1.6831,-1.5949,-1.6046,-1.6349,-1.6655,-1.6891,-1.7089,-1.7209,-1.7516,-1.7483,-1.6819,-1.7055,-1.6892,-1.5991,-1.533,-1.4699,-1.3954,-1.3682,-1.3344,-1.2873,-1.2389,-1.192,-1.1394,-1.0629,-1.0264,-1.0283,-0.9478,-0.9199,-0.9478,-0.8675,-0.8103,-0.7807,-0.7572,-0.728,2.2445,1.6725,1.2072,1.5004,1.3256,1.039,0.8711,0.6823,0.4542,0.1438,0.0745,-0.1925,-1.0512,-1.2706,-1.3683,0.0,-1.6508,-1.794,-1.965,-2.0254,-2.0955,0.0,-2.249,0.0,-2.2321,-2.231,0.0,-2.231,-2.25,-2.259,-2.248,-2.2415,-2.2473,-2.2695,-2.2453,-2.2237,-2.2135,-2.2237,-2.2061,-2.1582,-2.1582,-2.143,-2.1118,-2.1023,-2.1181,-2.146,-2.1552,-2.1794,-2.2163,-2.2254,-2.231,-2.231,-2.231,-2.2003,-2.1505,-2.0685,-2.0116,-1.9656,-1.8835,-1.9096,-1.9798,-1.9958,-2.0215,-2.0583,-2.1259,-2.1244,-2.1023,-2.1259,-2.1039,-2.0501,-1.9656,-1.86,-1.7665,-1.7235,-1.7249,-1.7273,-1.7172,-1.7223,-1.7007,-1.5906,-1.5876,-1.6097,-1.6254,-1.6469,-1.6703,-1.6929,-1.7248,-1.729,-1.6798,-1.6877,-1.6605,-1.5677,-1.5065,-1.4577,-1.417,-1.3782,-1.3358,-1.2841,-1.2387,-1.1806,-1.1176,-1.0154,-0.9808,-1.0118,-0.9199,-0.8716,-0.8716,-0.8275,-0.778,-0.7196,-0.7196,-0.7105,2.4122,2.2809,1.9985,1.4581,1.3524,1.2565,0.7862,0.0,0.6976,0.8817,0.5885,0.2092,-0.0869,-0.3967,0.0,0.0,0.0,-1.6463,-1.8861,-1.9985,-2.1016,-2.2153,0.0,0.0,-2.231,-2.231,-2.231,-2.231,-2.2321,-2.2571,-2.3087,-2.2822,-2.2669,-2.2695,-2.2453,-2.2106,-2.1658,-2.2106,-2.2061,-2.1582,-2.1582,-2.1582,-2.1521,-2.115,-2.1023,-2.1071,-2.143,-2.1612,-2.1688,-2.2106,-2.231,-2.231,-2.231,-2.2003,-2.1552,-2.107,-2.0649,-2.023,-2.0128,-2.0162,-2.0366,-2.1149,-2.1213,-2.0959,-2.1023,-2.1039,-2.0926,-2.0516,-2.0093,-1.9621,-1.9103,-1.8168,-1.7342,-1.7301,-1.7666,-1.7851,-1.7396,-1.7272,-1.712,-1.6498,-1.6806,-1.7179,-1.7194,-1.8004,-1.8444,-1.787,-1.8095,-1.7944,-1.6996,-1.6439,-1.5959,-1.5558,-1.5721,-1.5564,-1.4854,-1.4752,-1.4483,-1.3895,-1.334,-1.2652,-1.1669,-1.0625,-0.988,-0.9567,-0.8999,-0.8716,-0.8716,-0.8635,-0.8357,-0.7829,-0.7829,-0.753,2.2701,2.2609,2.1655,1.777,1.6128,1.4865,1.2489,1.1426,1.0779,1.0168,1.0331,1.0321,0.9429,0.3065,-0.2924,0.0,0.0,0.0,-1.5647,-1.6891,-1.8178,-1.9441,-2.0804,0.0,0.0,0.0,-2.1162,-2.059,-2.1083,-2.1497,-2.1735,-2.2197,-2.2463,-2.2463,-2.2349,-2.2209,-2.2032,-2.2209,-2.2061,-2.1582,-2.1582,-2.146,-2.1213,-2.0781,-2.0715,-2.0991,-2.0878,-2.0975,-2.1275,-2.1705,-2.1899,-2.1899,-2.218,-2.218,-2.1945,-2.126,-2.0894,-2.0583,-1.9743,-1.9814,-2.0299,-2.0369,-2.0846,-2.1368,-2.1368,-2.1181,-2.0894,-2.0449,-1.9939,-1.9426,-1.8636,-1.7626,-1.6837,-1.6837,-1.6993,-1.7076,-1.6879,-1.6837,-1.6752,-1.6552,-1.668,-1.6837,-1.6837,-1.7146,-1.7342,-1.7076,-1.7183,-1.7129,-1.6731,-1.6454,-1.612,-1.5587,-1.5439,-1.5209,-1.4903,-1.4916,-1.4658,-1.4082,-1.3506,-1.2706,-1.164,-1.0101,-0.9092,-0.8738,-0.781,-0.7247,-0.7134,-0.7168,-0.7105,-0.6901,-0.7047,-0.7168,2.1737,2.2365,2.2593,2.0339,1.8465,1.6881,1.548,1.4426,1.3176,1.1217,1.2959,1.4946,1.5336,0.8213,0.1792,0.0,0.0,-1.0381,-1.2727,-1.3956,-1.5341,-1.7341,0.0,-2.0,0.0,-1.9734,-1.9866,-1.9167,-1.9764,-2.02,-2.0395,-2.1068,-2.1702,-2.2282,-2.231,-2.231,-2.231,-2.231,-2.2135,-2.1794,-2.1794,-2.1598,-2.115,-2.0846,-2.0813,-2.0991,-2.0649,-2.0682,-2.1023,-2.1306,-2.143,-2.146,-2.1781,-2.1915,-2.1811,-2.1055,-2.0797,-2.0616,-1.9507,-1.9558,-2.0089,-1.9884,-2.0452,-2.1197,-2.1038,-2.0991,-2.0862,-2.0265,-1.9534,-1.8707,-1.7854,-1.7076,-1.6522,-1.6522,-1.6522,-1.6522,-1.6522,-1.6522,-1.6522,-1.6522,-1.6522,-1.6522,-1.6522,-1.6637,-1.6752,-1.6752,-1.6752,-1.6752,-1.6752,-1.6595,-1.6281,-1.5676,-1.5283,-1.502,-1.4845,-1.5008,-1.4793,-1.4055,-1.342,-1.2567,-1.1477,-0.9608,-0.8389,-0.803,-0.6793,-0.6046,-0.594,-0.5938,-0.591,-0.5947,-0.6319,-0.6793,2.1989,2.3352,2.3855,2.1245,1.998,1.8506,1.5174,1.3991,1.3489,1.3064,1.3267,1.3899,1.5173,1.1128,0.5941,0.0827,0.0,0.0,-1.0713,-1.1842,-1.3123,0.0,0.0,-1.8254,-1.8572,-1.8542,-1.8512,-1.8512,-1.8512,0.0,-1.937,-1.9405,-2.0311,-2.2237,-2.231,-2.231,-2.231,-2.231,-2.231,-2.2282,-2.2282,-2.2049,-2.1582,-2.1582,-2.1368,-2.0991,-2.0991,-2.1007,-2.0991,-2.0991,-2.1007,-2.1007,-2.0991,-2.0991,-2.0975,-2.0483,-2.0314,-2.0246,-1.9839,-1.969,-1.9782,-2.0143,-2.0314,-2.023,-1.9763,-2.0249,-2.0829,-1.9854,-1.8517,-1.7188,-1.668,-1.6522,-1.6522,-1.6522,-1.6522,-1.6522,-1.6522,-1.6522,-1.6522,-1.6522,-1.6522,-1.6522,-1.6522,-1.6951,-1.7312,-1.7312,-1.7312,-1.7312,-1.7312,-1.6837,-1.6281,-1.5676,-1.562,-1.5353,-1.4732,-1.5264,-1.5073,-1.3899,-1.3158,-1.233,-1.1246,-0.9324,-0.8059,-0.7626,-0.6209,-0.5504,-0.5504,-0.537,-0.5288,-0.5343,-0.5942,-0.6481,1.9354,2.0215,2.0644,1.9422,1.8143,1.6955,1.599,1.464,1.3544,1.338,1.3756,1.4136,1.4169,1.3519,1.0119,0.1416,0.1089,0.0,0.0,0.0,0.0,-1.3519,-1.4969,-1.6088,0.0,0.0,-1.5887,-1.5887,-1.69,-1.762,-1.7804,-1.8819,-1.9977,-2.124,-2.1254,-2.1592,-2.2282,-2.231,-2.231,-2.231,-2.231,-2.2209,-2.2077,-2.1764,-2.1521,-2.1368,-2.0436,-2.0028,-2.0028,-2.0028,-2.0028,-2.0112,-2.0748,-2.0991,-2.0926,-2.0483,-2.0314,-2.0177,-1.9413,-1.9406,-1.9675,-1.9398,-1.9778,-2.0128,-1.9346,-1.9549,-1.9783,-1.8401,-1.7693,-1.7188,-1.6637,-1.6522,-1.6522,-1.6522,-1.6522,-1.638,-1.5952,-1.5864,-1.5776,-1.5332,-1.5242,-1.5242,-1.5242,-1.5764,-1.6145,-1.6145,-1.6145,-1.6145,-1.6145,-1.5632,-1.5062,-1.4411,-1.4732,-1.4926,-1.4709,-1.488,-1.4402,-1.3047,-1.2378,-1.1274,-0.9507,-0.7966,-0.681,-0.6041,-0.5522,-0.4922,-0.4346,-0.4785,-0.5305,-0.5799,-0.5856,-0.6153,1.785,1.8791,1.9344,1.8557,1.7351,1.6288,1.6055,1.4868,1.3828,1.385,1.4233,1.4489,1.415,1.4815,1.3186,0.6459,0.4578,0.0,0.0,0.0,0.0,-1.149,0.0,0.0,0.0,-1.5344,-1.4877,-1.472,-1.5612,-1.6439,-1.7074,-1.7636,-1.8656,-2.0213,-2.0606,-2.1115,-2.1715,-2.2118,-2.231,-2.231,-2.231,-2.231,-2.2282,-2.2003,-2.1853,-2.1794,-2.0405,-1.9838,0.0,-1.9266,-1.9022,-1.9096,-1.9662,-1.9908,-1.9873,-1.957,-1.9462,-1.939,-1.8788,-1.8817,-1.908,-1.893,-1.9163,-1.9317,-1.8521,-1.8507,-1.8517,-1.7572,-1.7146,-1.6909,-1.6595,-1.6522,-1.6423,-1.6194,-1.6151,-1.6008,-1.5365,-1.5276,-1.5141,-1.4789,-1.4698,-1.4698,-1.4698,-1.5017,-1.5276,-1.5276,-1.5276,-1.5276,-1.5276,-1.4721,-1.4064,-1.3464,-1.349,-1.3365,-1.2849,-1.3287,-1.2857,-1.1225,-1.0506,-0.9555,-0.8268,-0.6892,-0.5905,-0.5377,-0.4996,-0.4492,-0.3931,-0.4326,-0.4716,-0.5105,-0.5162,-0.553,0.0,1.8609,1.9306,1.8298,1.7269,1.6278,1.5465,1.4743,0.0,1.4441,1.4697,1.4904,1.4935,1.5163,1.5114,1.4337,0.9813,0.0,0.0,0.11,0.0,0.0,-1.1679,0.0,-1.5088,-1.528,-1.5121,-1.4731,-1.4744,-1.5472,-1.7034,-1.62,-1.6796,-1.9227,-2.0146,-2.0639,-2.0703,-2.1639,-2.2089,-2.2089,-2.2089,-2.2089,-2.2089,-2.2089,-2.2089,-2.1969,-2.0589,-1.997,-1.9867,-1.8541,-1.8013,-1.8066,-1.8106,-1.8106,-1.8106,-1.8106,-1.8106,-1.8106,-1.8066,-1.8066,-1.8185,-1.8688,-1.8496,-1.7947,-1.7381,-1.7216,-1.7188,-1.7188,-1.6782,-1.638,-1.638,-1.638,-1.6238,-1.5676,-1.5543,-1.5365,-1.4789,-1.4606,-1.456,-1.4514,-1.4457,-1.4411,-1.4411,-1.44,-1.44,-1.44,-1.4389,-1.4343,-1.4343,-1.3742,-1.3107,-1.2551,-1.1966,-1.1056,-0.9629,-1.0797,-1.0723,-0.8723,-0.7964,-0.7505,-0.7393,-0.6126,-0.5437,-0.5437,-0.4634,-0.4164,-0.4049,-0.3865,-0.3718,-0.3622,-0.4132,-0.4669,1.5792,0.0,1.5997,1.5629,1.5414,1.527,0.0,1.4821,1.4684,1.5082,1.5028,1.4973,1.5241,1.5136,1.4849,1.4286,1.259,1.0022,0.6281,0.2113,0.0,-0.0134,-0.473,-0.8826,-1.0967,-1.3668,-1.5112,-1.4743,-1.5152,-1.591,-1.7034,-1.6566,-1.6928,-1.8278,-1.8532,-1.8987,-1.9721,-1.9943,-2.0094,-2.0094,-2.0094,-2.0094,-2.0094,-2.0094,-1.9813,-1.9346,-1.8262,-1.7804,-1.7779,-1.707,-1.7066,-1.7544,-1.7947,-1.8106,-1.8106,-1.8106,-1.8106,-1.8027,-1.7626,-1.7747,-1.8145,-1.8263,-1.7947,-1.7381,-1.6773,-1.6305,-1.6015,-1.6015,-1.5588,-1.5107,-1.5107,-1.5107,-1.5107,-1.4971,-1.4926,-1.4744,-1.4143,-1.3606,-1.311,-1.258,-1.2092,-1.1738,-1.1738,-1.1675,-1.163,-1.163,-1.1144,-1.0813,-1.0813,-1.0248,-0.9832,-0.9687,-1.0167,-0.9747,-0.8031,-0.9275,-0.9416,-0.7765,-0.745,-0.6701,-0.5297,-0.4923,-0.4761,-0.4761,-0.452,-0.3849,-0.2688,-0.2748,-0.317,-0.3899,-0.3825,-0.4232,1.5295,1.5127,1.4942,1.4896,1.4886,1.4922,1.5053,1.5019,1.502,1.5328,0.0,1.5143,1.5163,1.5306,1.5075,1.4044,1.4361,0.0,0.0,0.0,0.728,0.6468,0.0536,-0.3776,0.0,-1.1393,-1.5775,-1.5555,-1.5823,-1.632,-1.706,-1.6469,-1.6676,-1.7956,-1.7558,-1.7772,-1.8743,-1.9191,-1.9405,-1.9405,-1.9405,-1.9405,-1.9405,-1.9405,-1.9081,-1.8438,-1.7502,-1.6926,-1.6584,-1.5886,-1.5828,-1.6133,-1.6409,-1.6524,-1.6524,-1.6524,-1.6524,-1.6536,-1.6519,-1.7037,-1.7706,-1.7463,-1.7353,-1.7133,-1.6305,-1.562,-1.5186,-1.5186,-1.4971,-1.4698,-1.4698,-1.4698,-1.456,-1.3971,-1.3831,-1.3595,-1.2628,-1.2141,-1.1796,-1.1408,-1.1065,-1.0813,-1.0813,-1.0947,-1.1074,-1.1074,-1.0003,-0.9167,-0.9167,-0.8874,-0.8718,-0.8718,-0.8586,-0.7788,-0.6095,-0.6747,-0.6913,-0.6069,-0.5328,-0.4501,-0.3469,-0.3469,-0.3469,-0.3469,-0.4165,-0.4091,-0.3232,-0.1942,-0.2188,-0.3806,-0.3093,-0.3029,1.5307,1.5278,1.5229,1.5118,1.5043,1.5028,1.5174,0.0,0.0,0.0,0.0,0.0,1.514,1.5526,0.0,0.0,0.0,0.0,1.6354,1.7149,1.6145,1.1727,0.6359,0.0,0.1712,-0.7697,-1.4165,-1.5189,-1.6042,-1.6633,-1.6977,-1.6114,-1.6311,-1.7824,-1.6815,-1.6604,-1.7505,-1.8465,-1.8899,-1.8796,-1.8796,-1.8759,-1.8671,-1.8567,-1.8182,-1.7587,-1.6779,-1.6111,-1.5543,-1.4846,-1.4617,-1.4698,-1.4698,-1.4698,-1.4698,-1.4698,-1.4698,-1.4789,-1.5276,-1.6102,-1.6841,-1.6355,-1.6514,-1.6659,-1.5395,-1.4744,-1.4354,-1.4054,-1.41,-1.4215,-1.4122,-1.4168,-1.3982,-1.2918,-1.2706,-1.2491,-1.1368,-1.093,-1.0794,-1.0794,-1.0616,-1.0506,-1.0506,-1.0848,-1.093,-1.0486,-0.8567,-0.7161,-0.7161,-0.7105,-0.7042,-0.7042,-0.6054,-0.4852,-0.3641,-0.3254,-0.3097,-0.3118,-0.279,-0.212,-0.1226,-0.1393,-0.1616,-0.1842,-0.3135,-0.3816,-0.3814,-0.1241,-0.1062,-0.3052,-0.2366,-0.1855,1.531,1.5828,1.6142,1.5317,1.5209,1.5309,1.5221,1.5295,0.0,0.0,0.0,0.0,0.0,1.5609,1.5265,0.0,0.0,1.7914,0.0,0.0,1.7988,1.717,0.0,1.2725,0.2604,-0.0095,-0.3489,-0.9116,-1.3873,-1.6511,-1.6591,-1.5947,-1.6083,-1.7209,-1.5768,-1.505,-1.5207,-1.6336,-1.6676,-1.617,-1.617,-1.5898,-1.5416,-1.4812,-1.4246,-1.3647,-1.3502,-1.3418,-1.3334,-1.3737,-1.4236,-1.4698,-1.4698,-1.4698,-1.4698,-1.4698,-1.4698,-1.4698,-1.4789,-1.4971,-1.5096,-1.5017,-1.5005,-1.4744,-1.2895,-1.2647,-1.2706,-1.0972,-1.1306,-1.2092,-1.1548,-1.1796,-1.2199,-1.2003,-1.2435,-1.2814,-1.2604,-1.1645,-1.082,-1.082,-0.9892,-0.9092,-0.9092,-0.9153,-0.8348,-0.5873,-0.2456,-0.0163,-0.0163,0.0271,0.054,0.054,0.0324,0.0271,0.0488,0.207,0.3063,0.3014,-0.1496,-0.1845,0.3254,0.2233,0.0948,-0.0336,-0.056,-0.0672,-0.0672,-0.022,-0.0211,-0.0595,-0.2438,-0.2204,1.5296,1.5615,1.5943,1.5953,1.6366,1.6743,1.6727,1.6755,0.0,0.0,0.0,0.0,0.0,0.0,1.7298,1.9058,0.0,1.8825,1.9974,1.9325,1.8785,0.0,0.0,1.6995,1.1885,0.4913,-0.0296,-0.2786,-0.8601,-1.3387,-1.6349,-1.5953,-1.5816,-1.6261,-1.5285,-1.481,-1.5034,-1.537,-1.5377,-1.5096,-1.5096,-1.4767,-1.4147,-1.3846,-1.3165,-1.2211,-1.2211,-1.2024,-1.1688,-1.1603,-1.2201,-1.3004,-1.1893,-1.2416,-1.3752,-1.3752,-1.392,-1.419,-1.419,-1.3939,-1.3585,-1.3585,-1.3044,-1.2273,-1.1407,-1.1563,-1.1728,-1.0332,-1.0783,-1.1573,-1.1277,-1.1226,-1.1439,-1.2232,-1.2645,-1.2052,-0.8988,-0.6521,-0.4938,-0.4938,-0.5296,-0.5304,-0.4217,-0.4041,-0.3569,-0.2231,0.0871,0.3624,0.5198,0.5634,0.5792,0.5792,0.5567,0.5396,0.5396,0.6258,0.576,0.3356,0.0662,0.0722,0.434,0.3822,0.314,0.2464,0.1625,0.1178,0.1178,0.1178,0.1214,0.1178,0.0055,0.0112,1.5326,1.5517,1.5859,1.6523,0.0,1.7494,1.8144,1.8144,0.0,0.0,0.0,0.0,0.0,1.7928,0.0,2.1483,2.0598,2.0125,2.1496,2.0679,2.0046,2.0282,1.9782,1.9599,2.0137,1.0747,0.3668,0.1395,-0.3246,-0.9077,-1.6136,-1.608,-1.5694,-1.5418,-1.4678,-1.4441,-1.4741,-1.343,-1.3351,-1.4543,-1.4512,-1.4165,-1.3536,-1.3266,-1.2511,-1.1325,-1.1132,-1.083,-1.0509,-0.9951,-1.0351,-1.1132,-0.9394,-1.0226,-1.2393,-1.2187,-1.255,-1.3062,-1.2908,-1.2339,-1.1713,-1.1923,-1.1291,-1.0374,-1.0285,-1.0691,-1.0601,-0.7933,-0.7739,-0.856,-0.9591,-0.9575,-0.9588,-1.0631,-1.0593,-0.9126,-0.4757,-0.1296,0.1239,0.1942,0.0862,0.0107,0.0905,0.1616,0.2329,0.3199,0.4998,0.7153,0.9631,0.9782,0.9503,0.9072,0.9025,0.9025,0.9025,0.9025,0.7597,0.4149,0.3189,0.3279,0.4445,0.4504,0.4497,0.4487,0.3363,0.2749,0.2749,0.2749,0.2749,0.2753,0.2749,0.2749,1.5387,1.5991,1.6621,1.668,1.6133,1.6211,1.8652,1.8574,0.0,2.0,0.0,0.0,0.0,2.0174,2.0483,2.0927,2.1489,2.2232,2.3265,0.0,2.2815,2.3085,2.2685,2.2162,2.1614,1.9567,1.3227,0.1011,0.0597,-0.4179,-1.5899,-1.6445,-1.593,-1.4776,-1.3613,-1.3049,-1.3077,-0.9023,-0.9416,-1.4132,-1.3963,-1.3532,-1.2943,-1.207,-1.1156,-1.0248,-0.9389,-0.934,-0.9858,-0.9754,-0.9783,-0.9783,-0.8982,-0.9599,-1.0847,-1.0191,-1.0394,-1.0939,-1.0234,-0.9548,-0.9144,-1.0007,-1.0216,-0.9963,-0.9098,-0.9792,-0.9064,-0.0532,0.144,0.0107,-0.3863,-0.49,-0.487,-0.4984,-0.388,-0.2683,-0.2254,0.1132,0.4892,0.7606,0.8027,0.7133,0.4548,0.6376,0.934,1.2776,1.2442,1.2243,1.3283,1.2735,1.1581,0.9917,0.9732,0.9732,0.9732,0.9732,0.9585,0.9188,0.6108,0.4363,0.448,0.4525,0.4522,0.4519,0.4408,0.4353,0.4353,0.4353,0.4307,0.4327,0.4307,0.4353,1.5389,1.6031,1.6699,1.6699,1.6445,0.0,0.0,1.9844,1.9805,2.0469,2.0934,0.0,0.0,0.0,2.2416,2.2353,2.3013,2.3615,2.3875,2.3741,2.3566,2.3412,2.3238,2.2921,2.2363,2.1478,1.851,1.271,0.5642,-0.0387,-0.4989,-0.9184,-0.986,-0.6392,-0.5365,-0.4876,-0.4876,-0.5034,-0.5195,-0.5408,-1.0695,-1.3113,-1.2807,-0.9738,-0.767,-0.6651,-0.817,-0.8931,-0.9138,-0.8545,-0.79,-0.7407,-0.8339,-0.8515,-0.8306,-0.9306,-0.9614,-0.9497,-0.9673,-0.8867,-0.7913,-0.8221,-0.5886,-0.2752,-0.1825,-0.1928,-0.1756,0.11,0.5222,0.7278,0.0894,0.0159,0.107,0.107,0.1561,0.2705,0.5383,0.7015,0.85,1.0181,1.0764,1.0687,0.9638,1.1626,1.3542,1.4208,1.3896,1.3708,1.4085,1.3175,1.2244,1.1572,1.0864,1.0415,1.0415,0.9982,0.9754,0.968,0.8482,0.7564,0.7139,0.7139,0.6874,0.646,0.6454,0.6248,0.5784,0.5792,0.5801,0.5801,0.5788,0.5784,1.58,1.6246,1.6777,1.7031,0.0,0.0,2.041,2.0801,2.0918,2.1992,2.2441,2.2563,2.2294,0.0,0.0,0.0,2.4033,2.4524,2.4458,2.4429,2.4342,2.4151,2.4132,2.4003,2.3676,2.295,2.1876,2.0459,1.2257,0.6422,0.4341,-0.0789,-0.2161,0.1082,0.3092,0.407,0.407,0.2097,0.1443,0.1942,-0.3964,-0.8937,-1.2744,-0.7444,-0.4298,-0.3128,-0.5132,-0.6554,-0.7378,-0.6718,-0.6055,-0.5586,-0.6881,-0.7063,-0.6753,-0.7958,-0.8214,-0.8103,-0.839,-0.7581,-0.6209,-0.4776,-0.1149,0.3044,0.4785,0.5659,0.5965,0.5761,0.9524,1.2425,0.7401,0.6263,0.6333,0.5882,0.6016,0.7143,1.0564,1.1131,1.1201,1.2194,1.2734,1.3024,1.3046,1.4541,1.5636,1.5362,1.5344,1.5484,1.5807,1.5038,1.4071,1.3166,1.1688,1.0864,1.1116,1.0629,1.0545,1.0989,1.0989,1.03,0.8771,0.8692,0.837,0.761,0.7583,0.7274,0.6623,0.661,0.662,0.6604,0.6797,0.6921,1.666,1.6695,1.6914,1.7773,0.0,0.0,2.1328,2.123,2.1582,2.5,2.4954,2.4266,2.414,2.4061,0.0,2.3645,2.434,2.4974,2.5166,2.5251,2.5395,2.5663,2.5703,2.5703,2.5683,2.4777,2.3505,2.1816,2.0467,1.687,1.0343,0.7756,0.6482,0.6526,1.0648,1.2887,1.2939,1.2887,1.0745,0.6482,0.643,-0.0318,-1.2482,-0.5234,-0.1191,0.0055,0.0055,-0.1633,-0.4338,-0.4316,-0.4401,-0.4477,-0.4477,-0.5332,-0.6489,-0.5751,-0.5959,-0.6489,-0.6059,-0.525,-0.368,0.0771,0.3699,0.6234,0.9757,1.1814,1.3229,1.4709,1.5121,1.529,1.6096,1.3566,1.0508,0.9205,0.9556,1.0649,1.2113,1.2474,1.2859,1.4071,1.4339,1.4339,1.4339,1.4716,1.5591,1.7372,1.763,1.8012,1.9155,1.8885,1.7472,1.4515,1.2167,1.1116,1.1765,1.1823,1.2404,1.3732,1.3826,1.2271,0.8923,0.8769,0.8421,0.7645,0.7652,0.7336,0.6654,0.6649,0.6632,0.6645,0.7319,0.7635,1.5777,1.6679,0.0,1.7949,0.0,0.0,0.0,2.2545,0.0,0.0,2.4955,2.4351,2.4313,2.4758,0.0,2.4026,2.4729,2.5357,2.5288,2.5447,2.56,2.5683,2.5703,2.5559,2.5167,2.4234,2.3151,2.193,2.0511,1.8874,1.6918,1.4609,1.3611,1.4109,1.3332,1.3263,1.4068,1.3303,1.2235,1.0963,0.9956,0.5926,-0.0645,0.1501,0.3854,0.6009,0.2914,0.1042,0.0219,-0.011,-0.1108,-0.2389,-0.2389,-0.35,-0.5117,-0.4889,-0.4944,-0.5234,-0.6101,-0.3487,0.0441,0.1763,0.5436,0.9914,1.2935,1.4132,1.483,1.6243,1.6647,1.6569,1.6378,1.5124,1.3875,1.3481,1.3227,1.3341,1.4236,1.4474,1.4806,1.5932,1.7193,1.8205,1.852,1.9353,2.0059,2.0291,1.9863,1.934,1.8863,1.8547,1.7653,1.5678,1.4517,1.3707,1.3175,1.3934,1.4327,1.4241,1.4374,1.3996,1.2972,1.2932,1.2378,1.1277,1.125,1.0688,0.9535,0.9533,0.9547,0.9578,0.9768,0.9836,1.6757,1.744,0.0,1.9253,2.025,2.1513,2.3582,0.0,0.0,0.0,2.5203,2.4879,2.4916,2.5299,0.0,2.4749,2.5197,2.559,2.5434,2.5487,2.5577,2.5683,2.56,2.537,2.4943,2.4359,2.3478,2.2242,2.1328,2.0649,2.0251,1.8326,1.7445,1.7851,1.5529,1.4569,1.5269,1.4605,1.4247,1.4247,1.2662,1.0375,0.7566,0.6596,0.7133,0.8578,0.4769,0.3101,0.3111,0.2783,0.1277,-0.0888,-0.0888,-0.2003,-0.3574,-0.339,-0.345,-0.3522,-0.3256,-0.0833,0.2599,0.5143,0.913,1.3264,1.4717,1.587,1.6914,1.8061,1.8302,1.8219,1.826,1.7942,1.7183,1.5642,1.5109,1.5167,1.6019,1.6567,1.7195,1.8332,1.9427,2.0314,2.0597,2.1321,2.1795,2.1499,2.0955,2.0329,1.9632,1.9737,1.9382,1.814,1.7043,1.5963,1.4886,1.4888,1.5,1.5195,1.5303,1.5688,1.6416,1.5324,1.4122,1.2822,1.2812,1.2154,1.0785,1.0659,1.0549,1.0589,1.0729,1.0905,1.8633,1.8607,1.8726,2.1179,2.1909,0.0,2.4953,2.5547,2.5598,2.5601,0.0,2.5616,2.5684,2.5641,2.5593,2.5593,2.5643,2.5664,2.5595,2.5434,2.5418,2.5662,2.5478,2.5209,2.4891,2.4868,2.4205,2.2642,2.2471,2.2048,2.1086,1.9476,1.8633,1.8759,1.7156,1.6325,1.6452,1.6325,1.6283,1.6283,1.4485,1.3268,1.2531,0.994,0.8682,0.8342,0.5736,0.4574,0.4494,0.4494,0.2903,0.0389,0.0334,-0.0612,-0.1782,-0.1281,-0.1339,-0.1288,0.1544,0.2886,0.4284,1.0094,1.3883,1.6088,1.5756,1.7286,1.9331,2.0113,2.0139,2.0162,2.1105,2.1248,2.0184,1.6643,1.6074,1.6612,1.7654,1.8724,1.9813,2.0895,2.1166,2.1199,2.1247,2.1589,2.1721,2.1437,2.1152,2.0983,2.0895,2.1729,2.2002,2.1192,1.9734,1.8219,1.6817,1.5538,1.53,1.6417,1.666,1.747,1.91,1.6504,1.4446,1.3246,1.3158,1.2464,1.1107,1.0739,1.0497,1.0473,1.0822,1.1221,1.7081,1.8533,0.0,2.1418,2.3173,2.4755,2.5305,2.5463,2.5543,2.5595,2.5605,2.5597,2.5611,2.5576,2.5522,2.5522,2.5535,2.5531,2.5522,2.5528,2.5556,2.5609,2.5618,2.5334,2.4658,2.4585,2.4038,2.2691,2.2332,2.195,2.1423,1.9606,1.9009,1.9893,1.7556,1.6715,1.7611,1.6757,1.6283,1.6283,1.4485,1.3522,1.3279,1.0132,0.7824,0.6168,0.5546,0.5003,0.4525,0.4525,0.4132,0.3458,0.2672,0.1666,0.078,0.1547,0.2014,0.2695,0.5502,0.8764,1.2081,1.4302,1.6162,1.7675,1.8618,1.9913,2.1241,2.236,2.2629,2.2463,2.1972,2.1802,2.1428,2.0098,1.9682,1.966,1.9909,2.0473,2.1119,2.174,2.2321,2.2841,2.3198,2.3346,2.2966,2.1609,2.1162,2.0735,2.0071,2.1358,2.2248,2.2046,2.2287,2.1524,1.9281,1.9659,1.9303,1.7459,1.8526,1.941,1.9794,1.8233,1.7067,1.6417,1.5897,1.4891,1.3406,1.329,1.2959,1.2326,1.242,1.2501,1.7524,0.0,0.0,2.1725,0.0,2.5379,2.5434,2.5468,2.5524,2.5584,2.5599,2.5595,2.5558,2.5511,2.5493,2.5493,2.5493,2.5493,2.5493,2.5454,2.5457,2.5579,2.5544,2.5245,2.4575,2.4514,2.4057,2.297,2.2565,2.2289,2.209,2.0767,2.0293,2.0894,1.937,1.8751,1.9112,1.8517,1.782,1.71,1.5282,1.346,1.171,1.0343,0.8919,0.7535,0.7535,0.6747,0.5534,0.5534,0.5655,0.5795,0.5528,0.5469,0.5678,0.6706,0.6942,0.7156,0.9603,1.2694,1.5782,1.7054,1.8277,1.9483,2.0726,2.1758,2.2745,2.3641,2.3826,2.3686,2.3398,2.3255,2.3178,2.3112,2.2269,2.1457,2.1457,2.2017,2.2607,2.2876,2.3223,2.3554,2.3809,2.346,2.2846,2.1963,2.1714,2.1169,1.9871,2.161,2.2917,2.2899,2.3335,2.3069,2.1713,2.1125,2.0726,2.048,2.125,2.1542,2.1111,2.0289,1.9045,1.7416,1.6741,1.5728,1.4376,1.4581,1.4369,1.3781,1.4362,1.4598,1.8184,0.0,1.9007,2.2211,2.4062,0.0,2.5438,2.5498,2.5509,2.5572,2.5573,2.5561,2.5508,2.5463,2.5471,2.5471,2.5488,2.5488,2.5477,2.5356,2.5346,2.5567,2.5457,2.5176,2.4677,2.4621,2.4247,2.3392,2.3034,2.2788,2.2695,2.1989,2.1582,2.1582,2.1213,2.0829,2.0416,2.0348,1.9662,1.8384,1.6612,1.4036,1.0872,1.1388,1.0847,0.9519,0.9519,0.858,0.6956,0.6956,0.7197,0.7586,0.8263,0.9233,1.0361,1.1487,1.1656,1.1551,1.3332,1.551,1.782,1.9095,2.0307,2.1384,2.2308,2.3054,2.3709,2.4348,2.4483,2.4523,2.5107,2.5205,2.5241,2.5817,2.4686,2.3403,2.3101,2.3799,2.4486,2.4561,2.4321,2.408,2.3984,2.3043,2.2306,2.2322,2.2735,2.2433,2.0594,2.2247,2.3606,2.3605,2.3586,2.3595,2.3595,2.1671,2.1349,2.3453,2.3608,2.3284,2.2542,2.2103,2.0707,1.8244,1.7497,1.6523,1.5197,1.5539,1.5475,1.503,1.6417,1.7038,1.687,0.0,2.0604,0.0,2.4091,2.448,0.0,0.0,2.5422,0.0,2.5503,2.5484,2.5428,2.5371,2.534,2.534,2.5387,2.5398,2.5339,2.5457,2.5538,2.5526,2.5586,2.5497,2.5135,2.5116,2.4774,2.3951,2.3593,2.3199,2.2729,2.1989,2.1582,2.1582,2.1213,2.0959,2.0894,2.0516,2.0196,1.9958,1.8379,1.6842,1.5393,1.5035,1.2683,0.8826,0.8826,0.8671,0.841,0.841,0.8469,0.86,0.9662,1.0548,1.1285,1.2,1.3361,1.4977,1.5465,1.752,2.007,2.0996,2.2164,2.3228,2.3375,2.3522,2.3794,2.4816,2.5303,2.5822,2.6852,2.7326,2.7645,2.8062,2.8,2.7438,2.5862,2.6385,2.7287,2.7624,2.6431,2.5208,2.4747,2.3353,2.2287,2.2292,2.4461,2.5395,2.3353,2.337,2.3582,2.3605,2.3575,2.3588,2.3621,2.3302,2.3246,2.3599,2.3613,2.3565,2.3445,2.2862,2.2182,2.1312,2.0656,1.928,1.7196,1.7264,1.6935,1.6321,1.8314,1.9288,1.7031,1.8742,2.0685,0.0,2.3423,2.4276,2.4713,2.5156,2.5469,2.5481,2.5463,2.5421,2.5354,2.5331,2.5303,2.5303,2.5354,2.5391,2.5354,2.5503,2.5595,2.5558,2.5604,2.5531,2.524,2.5166,2.4828,2.4063,2.3299,2.265,2.2104,2.1637,2.1368,2.1368,2.1354,2.1213,2.0991,2.0516,1.9889,1.9001,1.7664,1.6798,1.6283,1.5731,1.4417,1.2464,1.2186,1.1603,1.088,1.088,1.1043,1.1434,1.2544,1.3821,1.5125,1.5659,1.6667,1.7874,1.8741,2.027,2.2116,2.3268,2.4199,2.4831,2.4343,2.421,2.4223,2.4284,2.5213,2.6497,2.7829,2.8139,2.8275,2.896,2.912,2.903,2.8559,2.8116,2.7763,2.7589,2.7184,2.6507,2.5276,2.448,2.4175,2.4683,2.5865,2.6369,2.5447,2.4317,2.4046,2.5201,2.5336,2.4854,2.369,2.3591,2.3616,2.3614,2.3598,2.3797,2.4223,2.3845,2.3672,2.3763,2.1869,2.0259,1.8986,1.8986,1.8465,1.7424,1.8357,1.9123,0.0,0.0,1.9671,2.0971,2.2274,2.3367,0.0,0.0,2.5146,0.0,2.5286,2.5363,2.5303,2.5303,2.5303,2.5303,2.536,2.5415,2.5406,2.5535,2.5629,2.5603,2.5604,2.5515,2.5305,2.5216,2.4832,2.4026,2.3194,2.2461,2.1806,2.1591,2.1465,2.1465,2.1673,2.1568,2.115,2.0583,1.9662,1.8412,1.7558,1.7168,1.7127,1.6629,1.6346,1.6303,1.5196,1.4196,1.3362,1.3362,1.3634,1.4226,1.5342,1.6727,1.8254,1.8706,1.9559,2.0604,2.1483,2.257,2.3703,2.4859,2.5318,2.534,2.4938,2.4944,2.4992,2.4444,2.5493,2.7109,2.8377,2.8686,2.8827,2.9471,2.9677,2.9859,3.0292,2.9356,2.8288,2.7934,2.7975,2.755,2.5936,2.5641,2.5885,2.6601,2.7023,2.713,2.6747,2.568,2.5419,2.6599,2.6693,2.6091,2.4532,2.3891,2.3825,2.4357,2.407,2.4208,2.4932,2.4751,2.4776,2.5182,2.309,2.1627,2.0925,2.0925,2.0273,1.903,1.8893,1.9496,0.0,1.6726,0.0,1.9841,2.0521,2.1021,0.0,0.0,2.4196,2.4257,2.4833,2.5293,2.5303,2.5303,2.5303,2.5303,2.542,2.5463,2.5413,2.5564,2.5662,2.5605,2.5604,2.5567,2.5493,2.5421,2.4943,2.3879,2.3767,2.3318,2.2309,2.2243,2.2243,2.2243,2.2265,2.2032,2.1582,2.0732,2.0054,1.9603,1.9551,1.9515,1.95,1.8954,1.8712,1.8584,1.5879,1.4937,1.5348,1.5348,1.5676,1.6236,1.7402,1.8307,1.899,1.9456,2.1152,2.3196,2.3,2.3665,2.4716,2.5245,2.4619,2.3887,2.4889,2.566,2.6214,2.6156,2.6863,2.7802,2.8516,2.9304,2.9916,2.9965,3.0163,3.0367,3.0398,3.0081,2.988,3.0185,2.932,2.8147,2.6859,2.6631,2.6639,2.6697,2.7957,2.8352,2.6905,2.7865,2.8219,2.6859,2.6719,2.6654,2.6551,2.4736,2.4443,2.6432,2.5369,2.4932,2.5619,2.5333,2.5182,2.5221,2.5064,2.439,2.3242,2.3242,2.2629,2.1525,2.106,2.1739,0.0,0.0,0.0,1.8416,1.9591,2.0559,2.118,2.2402,2.3552,2.4083,2.4381,2.4697,2.5187,2.5303,2.5303,2.5303,2.5401,2.5484,2.5477,2.5601,2.5683,2.5604,2.5559,2.5517,2.5447,2.5387,2.5056,2.4379,2.3768,2.3107,2.2397,2.2059,2.1859,2.1859,2.186,2.1491,2.0765,2.0483,2.0089,1.969,1.969,1.969,1.969,1.9471,1.92,1.8841,1.8082,1.7517,1.7179,1.7179,1.7665,1.8489,1.9294,2.0266,2.1194,2.1381,2.2396,2.3768,2.4118,2.4768,2.553,2.5983,2.6115,2.5846,2.4577,2.5279,2.6756,2.7755,2.8713,2.9492,2.9731,2.9798,2.9875,3.019,3.0323,3.0398,3.0398,3.0068,2.981,2.9922,2.9361,2.8703,2.8242,2.8174,2.8192,2.8174,2.8639,2.8805,2.8262,2.8664,2.8392,2.6866,2.6687,2.6704,2.6709,2.6024,2.5729,2.6053,2.5605,2.55,2.5893,2.5775,2.5872,2.6158,2.6158,2.5452,2.4017,2.4017,2.3682,2.2921,2.2733,2.3008,1.6045,0.0,0.0,0.0,1.8319,1.9268,1.9834,2.107,2.2327,2.312,2.3719,2.4273,2.4829,2.5157,2.533,2.533,2.542,2.5473,2.5535,2.5605,2.5644,2.5605,2.5547,2.5463,2.5401,2.5348,2.5111,2.4648,2.3964,2.3338,2.2799,2.2374,2.2122,2.2122,2.1887,2.1502,2.0911,2.0667,2.0398,2.0154,2.0154,2.0193,2.0299,2.027,2.0122,1.994,2.0151,1.9617,1.8608,1.8875,1.9465,2.0302,2.0777,2.1471,2.2228,2.2228,2.2889,2.3952,2.4806,2.5792,2.6749,2.7204,2.7274,2.6985,2.5764,2.6369,2.7742,2.9082,2.9916,3.0403,3.04,3.0171,3.0011,3.0328,3.0398,3.0405,3.0394,3.0157,2.9924,2.9927,2.9437,2.8991,2.8997,2.9017,2.8997,2.8996,2.8999,2.882,2.8304,2.8688,2.8399,2.6859,2.6699,2.6691,2.669,2.6478,2.628,2.6049,2.5901,2.5926,2.6227,2.6227,2.6367,2.6691,2.6691,2.6123,2.495,2.495,2.4489,2.3586,2.3586,2.3773,0.0,0.0,0.0,0.0,0.0,0.0,1.8644,0.0,2.0502,2.1297,2.284,2.4058,2.414,2.4832,2.5367,2.5381,2.5381,2.5459,2.5573,2.5603,2.56,2.5607,2.5543,2.5463,2.5394,2.5339,2.5122,2.4648,2.4436,2.408,2.3557,2.332,2.3212,2.3189,2.2504,2.2124,2.2096,2.1397,2.0991,2.0991,2.0991,2.118,2.1497,2.1526,2.1682,2.1894,2.1921,2.1077,1.9718,2.0461,2.1048,2.1556,2.1815,2.1921,2.1966,2.1983,2.274,2.3902,2.5154,2.672,2.8282,2.8817,2.799,2.7051,2.8534,2.9018,2.9232,3.0136,3.0394,3.0409,3.0414,3.0402,3.0414,3.0406,3.0398,3.04,3.0395,3.0371,3.0371,3.039,2.9634,2.8994,2.8994,2.8994,2.8994,2.8994,2.8994,2.8448,2.6949,2.8074,2.8396,2.6861,2.6732,2.6771,2.6747,2.6135,2.6025,2.6691,2.6297,2.6227,2.6691,2.6691,2.6691,2.6691,2.6691,2.647,2.6013,2.6013,2.5196,2.3667,2.3667,2.4206,1.5391,0.0,0.0,0.0,0.0,0.0,0.0,0.0,1.9668,2.0476,2.1513,2.2501,2.3201,2.3994,2.4554,2.4604,2.5138,2.5558,2.5598,2.5637,2.5643,2.5547,2.5503,2.544,2.5348,2.5313,2.5203,2.4911,2.4757,2.4532,2.4228,2.3785,2.3437,2.3212,2.278,2.2398,2.2096,2.1668,2.1275,2.0991,2.1258,2.1393,2.1526,2.204,2.2153,2.1938,2.2556,2.241,2.1759,2.1623,2.1872,2.2295,2.2384,2.2733,2.3282,2.3851,2.4436,2.5135,2.6645,2.7492,2.802,2.8772,2.8723,2.8433,2.8857,2.9472,3.0065,3.0324,3.0394,3.0459,3.069,3.0576,3.0414,3.0406,3.0398,3.0386,3.0407,2.9884,2.9585,3.0283,2.9638,2.8994,2.8994,2.8994,2.8994,2.8994,2.8992,2.8846,2.8406,2.8755,2.8396,2.6861,2.7703,2.8147,2.7619,2.753,2.74,2.7147,2.7002,2.6856,2.6725,2.6691,2.6691,2.6691,2.6691,2.6624,2.6521,2.6156,2.5566,2.4752,2.4752,2.4909,0.0,0.0,0.0,0.0,0.0,0.0,1.6929,1.7869,1.894,0.0,2.103,2.1828,2.2392,2.3178,2.3741,2.3796,2.4523,2.5226,2.5598,2.5623,2.5599,2.5507,2.5482,2.5427,2.5303,2.5224,2.4988,2.4526,2.4606,2.4594,2.4393,2.4077,2.3816,2.361,2.33,2.293,2.2565,2.2224,2.1943,2.1711,2.191,2.2156,2.2435,2.286,2.2988,2.2887,2.3401,2.3486,2.3252,2.2976,2.2946,2.3071,2.3211,2.353,2.4026,2.4808,2.5241,2.5643,2.7329,2.797,2.8144,2.8969,2.9269,2.9328,2.9592,3.0113,3.0597,3.0617,3.0613,3.0653,3.0846,3.0649,3.0408,3.0398,3.0398,3.0405,3.0401,2.9956,2.9639,2.979,2.9381,2.9013,2.9013,2.9013,2.9013,2.9013,2.8997,2.899,2.901,2.8994,2.8664,2.776,2.8456,2.8829,2.8407,2.8269,2.7999,2.7577,2.753,2.7348,2.6971,2.6971,2.6971,2.6971,2.6787,2.6698,2.6688,2.6438,2.6134,2.581,2.5535,2.547,0.0,0.0,0.0,0.0,0.0,0.0,1.7297,1.7761,1.8305,0.0,2.0679,2.1294,2.136,2.2086,2.268,2.2675,2.3496,2.4453,2.543,2.5527,2.552,2.5507,2.5441,2.5379,2.5322,2.5111,2.4705,2.398,2.4268,2.4393,2.4209,2.419,2.419,2.419,2.3858,2.3544,2.3189,2.2898,2.2746,2.2695,2.2772,2.3117,2.3692,2.3735,2.3917,2.419,2.419,2.419,2.419,2.4228,2.4056,2.3795,2.4094,2.419,2.43,2.5221,2.5571,2.5814,2.7662,2.8367,2.8604,2.9422,2.9698,2.9839,3.0442,3.0765,3.0894,3.0903,3.0903,3.0905,3.09,3.0645,3.0406,3.04,3.0398,3.04,3.039,3.04,3.0157,2.9313,2.9169,2.9152,2.9152,2.9152,2.9152,2.9152,2.9152,2.9152,2.9152,2.9158,2.9153,2.9169,2.9053,2.8996,2.9,2.856,2.8198,2.7954,2.7954,2.7765,2.7378,2.7365,2.7348,2.7313,2.7009,2.6822,2.6817,2.6794,2.6793,2.6803,2.6204,2.6016,0.0,0.0,0.0,0.0,1.6916,0.0,1.6044,1.6889,1.7784,0.0,1.804,1.8643,1.8668,1.937,1.9967,1.9953,2.1327,2.293,2.4434,2.519,2.5556,2.5517,2.5441,2.5379,2.5322,2.5111,2.4892,2.4628,2.4385,2.4247,2.419,2.419,2.419,2.419,2.3858,2.3544,2.3189,2.3141,2.2972,2.2721,2.3253,2.3566,2.3714,2.3976,2.4151,2.419,2.419,2.419,2.4209,2.4375,2.4303,2.4113,2.417,2.419,2.4412,2.6005,2.66,2.6879,2.8796,2.9486,2.9556,2.9955,2.997,2.9977,3.0632,3.0862,3.0895,3.0909,3.0896,3.0892,3.0891,3.0645,3.0406,3.04,3.0398,3.0398,3.04,3.04,3.0362,3.0157,3.0125,3.0127,3.0127,3.0127,3.0127,3.0127,3.0127,3.0127,3.0127,3.013,3.0133,3.0127,2.946,2.9008,2.9002,2.8912,2.8687,2.8316,2.8298,2.8156,2.7811,2.7765,2.7694,2.7461,2.7595,2.7688,2.7674,2.7444,2.7352,2.7343,2.7435,2.7334,1.7051,1.7012,1.7344,1.7341,1.7321,0.0,0.0,1.6995,1.7425,1.7859,1.7953,1.8088,1.8522,1.8607,1.859,1.859,2.0058,2.1365,2.1797,2.3263,2.4288,2.4208,2.414,2.4259,2.4668,2.4431,2.4313,2.4491,2.3952,2.3786,2.4171,2.419,2.419,2.419,2.4054,2.3795,2.3437,2.3437,2.3369,2.3189,2.3642,2.3945,2.4117,2.4266,2.4339,2.4339,2.4339,2.4339,2.4375,2.4576,2.4599,2.4492,2.4508,2.4495,2.4698,2.6424,2.7067,2.738,2.9325,3.0021,3.0078,3.035,3.0437,3.0461,3.0793,3.0891,3.0894,3.0898,3.0898,3.0896,3.0896,3.0645,3.0406,3.04,3.0398,3.0398,3.0398,3.0398,3.0398,3.0405,3.0412,3.0399,3.0395,3.0409,3.0409,3.0409,3.0409,3.0409,3.0409,3.0409,3.0402,3.0396,2.9551,2.8983,2.9003,2.8994,2.8929,2.8707,2.8682,2.8612,2.8461,2.8461,2.8022,2.7112,2.7987,2.8443,2.8456,2.8316,2.8103,2.7862,2.7996,2.7882,1.7539,1.7324,1.7539,1.791,1.7598,1.7246,0.0,0.0,0.0,1.8281,1.7988,1.7714,0.0,0.0,0.0,1.7499,0.0,0.0,0.0,2.0653,0.0,2.24,2.2658,2.3004,2.3524,2.3244,2.3225,2.3695,2.2997,2.296,2.3914,2.3969,2.4043,2.419,2.419,2.4056,2.3759,2.3821,2.3842,2.3824,2.4044,2.4299,2.4561,2.4561,2.4561,2.4561,2.4561,2.4556,2.4564,2.4772,2.487,2.4845,2.4809,2.4898,2.522,2.6725,2.7428,2.7867,2.966,3.0315,3.0398,3.0605,3.0765,3.0876,3.0898,3.0907,3.0898,3.0898,3.0898,3.0896,3.0891,3.0656,3.0406,3.0393,3.0402,3.0398,3.0398,3.0398,3.0386,3.0393,3.0943,3.1167,3.0513,3.0398,3.0398,3.0398,3.0398,3.0398,3.0398,3.0398,3.0414,3.0397,2.9563,2.8989,2.9001,2.9003,2.8994,2.8994,2.8994,2.8991,2.8989,2.9,2.841,2.7161,2.8366,2.9009,2.8989,2.8991,2.8799,2.8344,2.8344,2.8217,1.9648,1.957,1.9805,1.8359,1.8516,1.8418,1.6191,0.0,1.6543,1.5968,0.0,1.5706,0.0,0.0,0.0,0.0,0.0,0.0,1.6937,1.7808,1.9051,2.0584,2.1978,2.2515,2.1778,2.1453,2.1485,2.2022,2.1385,2.1604,2.3052,2.3144,2.3474,2.4171,2.419,2.4135,2.3968,2.4265,2.4352,2.4239,2.4564,2.4727,2.476,2.476,2.476,2.476,2.476,2.4766,2.479,2.4982,2.5073,2.5039,2.4867,2.526,2.6098,2.7228,2.8129,2.8975,3.015,3.0564,3.0566,3.0607,3.0656,3.0734,3.0856,3.0894,3.0901,3.0898,3.0898,3.0898,3.0894,3.0652,3.0406,3.0391,3.0402,3.0398,3.0398,3.0405,3.0412,3.0412,3.2846,3.3949,3.0924,3.0393,3.0393,3.0398,3.0398,3.0398,3.0398,3.0398,3.0394,3.0395,2.9569,2.9007,2.8998,2.9005,2.8994,2.8994,2.8994,2.9012,2.9007,2.8985,2.8931,2.8735,2.8905,2.8998,2.9009,2.8998,2.8961,2.89,2.89,2.8718,1.9726,2.0312,2.0937,1.9199,1.9414,1.9375,1.6758,1.6055,1.5996,1.6131,0.0,0.0,0.0,0.0,0.0,0.0,1.6093,0.0,0.0,0.0,1.8119,1.8845,1.9491,2.0035,2.0391,2.1235,2.1761,2.18,2.1504,2.1817,2.2942,2.2997,2.3419,2.4338,2.4375,2.4408,2.4468,2.4586,2.4651,2.4591,2.4818,2.4917,2.4917,2.4917,2.4917,2.493,2.496,2.4952,2.4936,2.5229,2.5618,2.6014,2.5949,2.6108,2.6564,2.7998,2.8766,2.9242,3.0213,3.0531,3.0539,3.0505,3.0496,3.0547,3.0589,3.0751,3.0897,3.0897,3.0898,3.0898,3.0899,3.0793,3.0639,3.0447,3.0393,3.0398,3.0405,3.0393,3.0989,3.2968,3.4526,3.504,3.3615,3.1712,3.0407,3.04,3.04,3.04,3.04,3.04,3.0394,3.0399,3.0048,2.9584,2.905,2.8993,2.9007,2.8998,2.8998,2.8998,2.8998,3.0779,3.1796,3.1783,3.1783,3.1489,3.0852,3.0852,3.0705,3.0375,2.9439,2.9167,2.0657,2.1249,2.1699,1.9492,1.9414,1.9277,1.6894,1.6211,1.6211,1.6621,1.6582,0.0,0.0,0.0,0.0,0.0,0.0,1.634,0.0,1.6405,0.0,0.0,0.0,1.7841,1.9004,2.0229,2.096,2.0896,2.0902,2.133,2.235,2.2556,2.3123,2.4141,2.4383,2.4623,2.4855,2.4855,2.4883,2.4942,2.503,2.5088,2.5088,2.5088,2.5088,2.5099,2.5139,2.5155,2.5146,2.5562,2.6088,2.6641,2.7123,2.7255,2.7363,2.8656,2.932,2.9647,3.0271,3.049,3.0461,3.0422,3.0405,3.0409,3.0397,3.0626,3.0897,3.0897,3.0898,3.0898,3.0907,3.0895,3.0812,3.0486,3.0405,3.0406,3.0393,3.1142,3.2545,3.5027,3.5509,3.5495,3.5495,3.3436,3.1796,3.1796,3.1796,3.1796,3.1796,3.1796,3.1795,3.1804,3.1802,3.1514,3.0837,3.0506,3.0309,3.0314,3.0307,3.0325,3.0312,3.2569,3.3802,3.3795,3.3795,3.3264,3.2187,3.2187,3.193,3.1366,3.021,2.9971,2.3566,2.2979,2.2246,1.8887,1.8066,1.7617,1.5859,1.6738,1.7695,1.6875,1.8027,1.8926,1.8105,0.0,0.0,0.0,0.0,0.0,0.0,0.0,0.0,0.0,0.0,1.6658,1.7479,1.7622,1.7909,1.8557,1.8603,1.9276,2.0792,2.1498,2.2291,2.3303,2.4102,2.4666,2.4998,2.4979,2.5088,2.5274,2.5303,2.5284,2.5284,2.5284,2.5284,2.5293,2.536,2.5385,2.5447,2.6103,2.6359,2.6484,2.8157,2.8797,2.8766,2.9077,2.9731,3.0469,3.0482,3.0468,3.0402,3.0402,3.0389,3.0397,3.0404,3.0635,3.0897,3.0897,3.0898,3.0898,3.0898,3.0891,3.0817,3.0489,3.0393,3.0404,3.0393,3.2994,3.5374,3.547,3.5501,3.5507,3.5507,3.5405,3.5348,3.5342,3.5342,3.5342,3.5342,3.5342,3.5342,3.5342,3.534,3.5324,3.5287,3.4275,3.3635,3.3648,3.3642,3.3647,3.3663,3.3755,3.3821,3.3788,3.3788,3.3275,3.2195,3.2195,3.1928,3.1384,3.1347,3.1329,2.506,2.5558,2.5514,2.1468,2.0914,2.0488,1.7031,1.7168,1.7754,1.6875,1.8086,1.9023,1.8164,0.0,0.0,0.0,0.0,0.0,0.0,0.0,0.0,0.0,0.0,0.0,1.663,1.7669,1.8403,1.8485,1.9032,1.9782,2.0751,2.1517,2.2393,2.3403,2.4249,2.4855,2.5203,2.5203,2.5224,2.5303,2.5303,2.5303,2.5303,2.5303,2.5649,2.6227,2.6247,2.6587,2.7142,2.7362,2.7724,2.8195,2.8664,2.9257,2.987,2.995,3.018,3.0432,3.0442,3.0424,3.0402,3.0498,3.0474,3.0442,3.0661,3.2397,3.381,3.1542,3.2539,3.4277,3.4277,3.4271,3.4248,3.4133,3.3949,3.384,3.4065,3.5016,3.5793,3.5668,3.5572,3.5496,3.5496,3.5489,3.5501,3.5515,3.5515,3.5515,3.5515,3.5515,3.5515,3.5515,3.5498,3.5492,3.5507,3.4461,3.379,3.3807,3.3795,3.3795,3.3805,3.3805,3.4002,3.4389,3.4389,3.4152,3.3642,3.3642,3.3571,3.3384,3.3384,3.2957,2.7426,2.7682,2.7269,2.3553,2.309,2.2575,1.8926,1.8984,1.957,1.8711,1.9434,2.0332,2.0664,0.0,0.0,0.0,0.0,0.0,0.0,1.5323,0.0,0.0,0.0,0.0,0.0,1.7329,1.8193,1.864,1.9143,1.9763,2.0471,2.1536,2.2436,2.3158,2.4276,2.5012,2.5303,2.5303,2.5303,2.5303,2.5303,2.5313,2.535,2.5667,2.6149,2.676,2.7061,2.7499,2.8028,2.8225,2.8576,2.9008,2.9159,2.9645,3.0254,3.0254,3.0311,3.039,3.0428,3.0424,3.0428,3.0561,3.0584,3.0622,3.0823,3.243,3.3976,3.2988,3.4297,3.5996,3.5996,3.5994,3.6003,3.5991,3.583,3.5738,3.5957,3.5989,3.597,3.5827,3.5729,3.5659,3.5581,3.553,3.5496,3.5488,3.5493,3.5493,3.5493,3.5493,3.5493,3.5493,3.5493,3.5499,3.5501,3.4826,3.424,3.3841,3.3815,3.3781,3.3781,3.3781,3.3975,3.4379,3.4776,3.4827,3.4504,3.4504,3.4523,3.4581,3.4581,3.4064]}]]